Time,TemperatureF,DewpointF,PressureIn,WindDirection,WindDirectionDegrees,WindSpeedMPH,WindSpeedGustMPH,Humidity,HourlyPrecipIn,Conditions,Clouds,dailyrainin,SoftwareType,DateUTC
2013-08-06 00:00:00,66.9,62.2,29.85,NNE,25,0.0,0.0,85,0.00,,---,0.00,VWS V14.01,2013-08-06 04:00:00,
2013-08-06 00:01:00,66.9,62.6,29.85,NNE,25,0.0,0.0,86,0.00,,---,0.00,VWS V14.01,2013-08-06 04:01:00,
2013-08-06 00:02:00,66.9,62.6,29.85,NNE,25,0.0,0.0,86,0.00,,---,0.00,VWS V14.01,2013-08-06 04:02:00,
2013-08-06 00:03:00,66.9,62.9,29.85,NNE,25,0.0,0.0,87,0.01,,---,0.01,VWS V14.01,2013-08-06 04:03:00,
2013-08-06 00:04:00,66.9,62.9,29.85,NNE,25,0.0,0.0,87,0.01,,---,0.01,VWS V14.01,2013-08-06 04:04:00,
2013-08-06 00:05:00,66.8,62.8,29.85,NNE,25,0.0,0.0,87,0.01,,---,0.01,VWS V14.01,2013-08-06 04:05:00,
2013-08-06 00:06:00,66.8,62.8,29.85,NNE,25,0.0,0.0,87,0.01,,---,0.01,VWS V14.01,2013-08-06 04:06:00,
2013-08-06 00:07:00,66.8,62.8,29.85,NNE,25,0.0,0.0,87,0.01,,---,0.01,VWS V14.01,2013-08-06 04:07:00,
2013-08-06 00:08:00,66.8,62.8,29.85,NNE,25,0.0,0.0,87,0.02,,---,0.02,VWS V14.01,2013-08-06 04:08:00,
2013-08-06 00:09:00,66.8,62.8,29.85,NNE,25,0.0,0.0,87,0.03,,---,0.03,VWS V14.01,2013-08-06 04:09:00,
2013-08-06 00:10:00,66.8,63.1,29.85,NNE,25,0.0,0.0,88,0.04,,---,0.04,VWS V14.01,2013-08-06 04:10:00,
2013-08-06 00:11:00,66.8,63.1,29.85,NNE,25,0.0,0.0,88,0.05,,---,0.05,VWS V14.01,2013-08-06 04:11:00,
2013-08-06 00:12:00,66.8,63.1,29.85,NNE,25,0.0,0.0,88,0.05,,---,0.05,VWS V14.01,2013-08-06 04:12:00,
2013-08-06 00:13:00,66.8,63.1,29.85,NNE,25,0.0,0.0,88,0.05,,---,0.05,VWS V14.01,2013-08-06 04:13:00,
2013-08-06 00:14:00,66.7,63.0,29.85,NNE,25,0.0,0.0,88,0.05,,---,0.05,VWS V14.01,2013-08-06 04:14:00,
2013-08-06 00:15:00,66.7,62.7,29.84,NNE,25,0.0,0.0,87,0.05,,---,0.05,VWS V14.01,2013-08-06 04:15:00,
2013-08-06 00:16:00,66.7,62.7,29.84,NNE,25,0.0,0.0,87,0.05,,---,0.05,VWS V14.01,2013-08-06 04:16:00,
2013-08-06 00:17:00,66.7,62.7,29.84,NNE,25,0.0,0.0,87,0.06,,---,0.06,VWS V14.01,2013-08-06 04:17:00,
2013-08-06 00:18:00,66.6,62.6,29.84,NNE,25,0.0,0.0,87,0.06,,---,0.06,VWS V14.01,2013-08-06 04:18:00,
2013-08-06 00:19:00,66.6,62.9,29.84,NNE,25,0.0,0.0,88,0.06,,---,0.06,VWS V14.01,2013-08-06 04:19:00,
2013-08-06 00:20:00,66.6,62.9,29.84,NNE,25,0.0,0.0,88,0.06,,---,0.06,VWS V14.01,2013-08-06 04:20:00,
2013-08-06 00:21:00,66.5,62.8,29.84,NNE,25,0.0,0.0,88,0.06,,---,0.06,VWS V14.01,2013-08-06 04:21:00,
2013-08-06 00:22:00,66.5,62.8,29.84,NNE,25,0.0,0.0,88,0.06,,---,0.06,VWS V14.01,2013-08-06 04:22:00,
2013-08-06 00:23:00,66.5,62.8,29.84,NNE,25,0.0,0.0,88,0.06,,---,0.06,VWS V14.01,2013-08-06 04:23:00,
2013-08-06 00:24:00,66.5,62.8,29.84,NNE,25,0.0,0.0,88,0.07,,---,0.07,VWS V14.01,2013-08-06 04:24:00,
2013-08-06 00:25:00,66.4,63.1,29.84,NNE,25,0.0,0.0,89,0.07,,---,0.07,VWS V14.01,2013-08-06 04:25:00,
2013-08-06 00:26:00,66.4,63.1,29.84,NNE,25,0.0,0.0,89,0.07,,---,0.07,VWS V14.01,2013-08-06 04:26:00,
2013-08-06 00:27:00,66.3,63.0,29.84,NNE,25,0.0,0.0,89,0.07,,---,0.07,VWS V14.01,2013-08-06 04:27:00,
2013-08-06 00:28:00,66.3,63.0,29.84,NNE,25,0.0,0.0,89,0.07,,---,0.07,VWS V14.01,2013-08-06 04:28:00,
2013-08-06 00:29:00,66.2,63.2,29.84,NNE,25,0.0,0.0,90,0.07,,---,0.07,VWS V14.01,2013-08-06 04:29:00,
2013-08-06 00:30:00,66.1,63.1,29.83,NNE,25,0.0,0.0,90,0.07,,---,0.07,VWS V14.01,2013-08-06 04:30:00,
2013-08-06 00:31:00,66.1,63.1,29.83,NNE,25,0.0,0.0,90,0.07,,---,0.07,VWS V14.01,2013-08-06 04:31:00,
2013-08-06 00:32:00,66.0,63.0,29.83,NNE,25,0.0,0.0,90,0.07,,---,0.07,VWS V14.01,2013-08-06 04:32:00,
2013-08-06 00:33:00,65.9,62.9,29.83,NNE,25,0.0,0.0,90,0.07,,---,0.07,VWS V14.01,2013-08-06 04:33:00,
2013-08-06 00:34:00,65.9,62.9,29.83,NNE,25,0.0,0.0,90,0.07,,---,0.07,VWS V14.01,2013-08-06 04:34:00,
2013-08-06 00:35:00,65.8,62.8,29.83,NNE,25,0.0,0.0,90,0.07,,---,0.07,VWS V14.01,2013-08-06 04:35:00,
2013-08-06 00:36:00,65.8,62.8,29.83,NNE,25,0.0,0.0,90,0.07,,---,0.07,VWS V14.01,2013-08-06 04:36:00,
2013-08-06 00:37:00,65.7,62.7,29.83,NNE,25,0.0,0.0,90,0.07,,---,0.07,VWS V14.01,2013-08-06 04:37:00,
2013-08-06 00:38:00,65.7,62.7,29.83,NNE,25,0.0,0.0,90,0.07,,---,0.07,VWS V14.01,2013-08-06 04:38:00,
2013-08-06 00:39:00,65.6,62.6,29.83,NNE,25,0.0,0.0,90,0.07,,---,0.07,VWS V14.01,2013-08-06 04:39:00,
2013-08-06 00:40:00,65.6,62.6,29.83,NNE,25,0.0,0.0,90,0.07,,---,0.07,VWS V14.01,2013-08-06 04:40:00,
2013-08-06 00:41:00,65.5,62.5,29.83,NNE,25,0.0,0.0,90,0.07,,---,0.07,VWS V14.01,2013-08-06 04:41:00,
2013-08-06 00:42:00,65.5,62.5,29.83,NNE,25,0.0,0.0,90,0.07,,---,0.07,VWS V14.01,2013-08-06 04:42:00,
2013-08-06 00:43:00,65.4,62.4,29.83,NNE,25,0.0,0.0,90,0.07,,---,0.07,VWS V14.01,2013-08-06 04:43:00,
2013-08-06 00:44:00,65.4,62.4,29.83,NNE,25,0.0,0.0,90,0.07,,---,0.07,VWS V14.01,2013-08-06 04:44:00,
2013-08-06 00:45:00,65.3,62.6,29.83,NNE,25,0.0,0.0,91,0.07,,---,0.07,VWS V14.01,2013-08-06 04:45:00,
2013-08-06 00:46:00,65.3,62.6,29.83,NNE,25,0.0,0.0,91,0.07,,---,0.07,VWS V14.01,2013-08-06 04:46:00,
2013-08-06 00:47:00,65.2,62.5,29.83,NNE,25,0.0,0.0,91,0.07,,---,0.07,VWS V14.01,2013-08-06 04:47:00,
2013-08-06 00:48:00,65.2,62.5,29.83,NNE,25,0.0,0.0,91,0.07,,---,0.07,VWS V14.01,2013-08-06 04:48:00,
2013-08-06 00:49:00,65.2,62.5,29.83,NNE,25,0.0,0.0,91,0.07,,---,0.07,VWS V14.01,2013-08-06 04:49:00,
2013-08-06 00:50:00,65.2,62.5,29.83,NNE,25,0.0,0.0,91,0.07,,---,0.07,VWS V14.01,2013-08-06 04:50:00,
2013-08-06 00:51:00,65.1,62.4,29.83,NNE,25,0.0,0.0,91,0.07,,---,0.07,VWS V14.01,2013-08-06 04:51:00,
2013-08-06 00:52:00,65.0,62.3,29.83,NNE,25,0.0,0.0,91,0.07,,---,0.07,VWS V14.01,2013-08-06 04:52:00,
2013-08-06 00:53:00,65.0,62.3,29.83,NNE,25,0.0,0.0,91,0.07,,---,0.07,VWS V14.01,2013-08-06 04:53:00,
2013-08-06 00:54:00,65.0,62.3,29.83,NNE,25,0.0,0.0,91,0.07,,---,0.07,VWS V14.01,2013-08-06 04:54:00,
2013-08-06 00:55:00,64.9,62.2,29.83,NNE,25,0.0,0.0,91,0.07,,---,0.07,VWS V14.01,2013-08-06 04:55:00,
2013-08-06 00:56:00,64.9,62.2,29.83,NNE,25,0.0,0.0,91,0.07,,---,0.07,VWS V14.01,2013-08-06 04:56:00,
2013-08-06 00:57:00,64.9,62.5,29.83,NNE,25,0.0,0.0,92,0.07,,---,0.07,VWS V14.01,2013-08-06 04:57:00,
2013-08-06 00:58:00,64.9,62.5,29.83,NNE,25,0.0,0.0,92,0.07,,---,0.07,VWS V14.01,2013-08-06 04:58:00,
2013-08-06 00:59:00,64.8,62.1,29.83,NNE,25,0.0,0.0,91,0.07,,---,0.07,VWS V14.01,2013-08-06 04:59:00,
2013-08-06 01:00:00,64.8,62.1,29.82,NNE,25,0.0,0.0,91,0.07,,---,0.07,VWS V14.01,2013-08-06 05:00:00,
2013-08-06 01:01:00,64.7,62.0,29.82,NNE,25,0.0,0.0,91,0.07,,---,0.07,VWS V14.01,2013-08-06 05:01:00,
2013-08-06 01:02:00,64.7,62.0,29.82,NNE,25,0.0,0.0,91,0.07,,---,0.07,VWS V14.01,2013-08-06 05:02:00,
2013-08-06 01:03:00,64.7,62.0,29.82,NNE,25,0.0,0.0,91,0.07,,---,0.07,VWS V14.01,2013-08-06 05:03:00,
2013-08-06 01:04:00,64.7,62.0,29.82,NNE,25,0.0,0.0,91,0.07,,---,0.07,VWS V14.01,2013-08-06 05:04:00,
2013-08-06 01:05:00,64.6,61.9,29.82,NNE,25,0.0,0.0,91,0.07,,---,0.07,VWS V14.01,2013-08-06 05:05:00,
2013-08-06 01:06:00,64.6,61.9,29.82,NNE,25,0.0,0.0,91,0.06,,---,0.07,VWS V14.01,2013-08-06 05:06:00,
2013-08-06 01:07:00,64.6,61.9,29.82,NNE,25,0.0,0.0,91,0.06,,---,0.07,VWS V14.01,2013-08-06 05:07:00,
2013-08-06 01:08:00,64.5,61.8,29.82,NNE,25,0.0,0.0,91,0.06,,---,0.07,VWS V14.01,2013-08-06 05:08:00,
2013-08-06 01:09:00,64.5,62.1,29.82,NNE,25,0.0,0.0,92,0.06,,---,0.07,VWS V14.01,2013-08-06 05:09:00,
2013-08-06 01:10:00,64.5,62.1,29.82,NNE,25,0.0,0.0,92,0.06,,---,0.07,VWS V14.01,2013-08-06 05:10:00,
2013-08-06 01:11:00,64.5,62.1,29.82,NNE,25,0.0,0.0,92,0.03,,---,0.07,VWS V14.01,2013-08-06 05:11:00,
2013-08-06 01:12:00,64.5,62.1,29.82,NNE,25,0.0,0.0,92,0.03,,---,0.07,VWS V14.01,2013-08-06 05:12:00,
2013-08-06 01:13:00,64.5,62.1,29.82,NNE,25,0.0,0.0,92,0.03,,---,0.07,VWS V14.01,2013-08-06 05:13:00,
2013-08-06 01:14:00,64.4,62.0,29.82,NNE,25,0.0,0.0,92,0.03,,---,0.07,VWS V14.01,2013-08-06 05:14:00,
2013-08-06 01:15:00,64.4,62.0,29.82,NNE,25,0.0,0.0,92,0.03,,---,0.07,VWS V14.01,2013-08-06 05:15:00,
2013-08-06 01:16:00,64.4,62.0,29.82,NNE,25,0.0,0.0,92,0.02,,---,0.07,VWS V14.01,2013-08-06 05:16:00,
2013-08-06 01:17:00,64.4,62.0,29.82,NNE,25,0.0,0.0,92,0.02,,---,0.07,VWS V14.01,2013-08-06 05:17:00,
2013-08-06 01:18:00,64.4,62.3,29.82,NNE,25,0.0,0.0,93,0.02,,---,0.07,VWS V14.01,2013-08-06 05:18:00,
2013-08-06 01:19:00,64.3,61.9,29.82,NNE,25,0.0,0.0,92,0.02,,---,0.07,VWS V14.01,2013-08-06 05:19:00,
2013-08-06 01:20:00,64.3,62.2,29.82,NNE,25,0.0,0.0,93,0.02,,---,0.07,VWS V14.01,2013-08-06 05:20:00,
2013-08-06 01:21:00,64.3,62.2,29.82,NNE,25,0.0,0.0,93,0.01,,---,0.07,VWS V14.01,2013-08-06 05:21:00,
2013-08-06 01:22:00,64.3,62.2,29.82,NNE,25,0.0,0.0,93,0.01,,---,0.07,VWS V14.01,2013-08-06 05:22:00,
2013-08-06 01:23:00,64.3,62.2,29.82,NNE,25,0.0,0.0,93,0.01,,---,0.07,VWS V14.01,2013-08-06 05:23:00,
2013-08-06 01:24:00,64.3,62.2,29.82,NNE,25,0.0,0.0,93,0.01,,---,0.07,VWS V14.01,2013-08-06 05:24:00,
2013-08-06 01:25:00,64.3,62.2,29.82,NNE,25,0.0,0.0,93,0.01,,---,0.07,VWS V14.01,2013-08-06 05:25:00,
2013-08-06 01:26:00,64.2,62.1,29.82,NNE,25,0.0,0.0,93,0.00,,---,0.07,VWS V14.01,2013-08-06 05:26:00,
2013-08-06 01:27:00,64.2,62.1,29.82,NNE,25,0.0,0.0,93,0.00,,---,0.07,VWS V14.01,2013-08-06 05:27:00,
2013-08-06 01:28:00,64.2,62.1,29.82,NNE,25,0.0,0.0,93,0.00,,---,0.07,VWS V14.01,2013-08-06 05:28:00,
2013-08-06 01:29:00,64.2,62.1,29.82,NNE,25,0.0,0.0,93,0.00,,---,0.07,VWS V14.01,2013-08-06 05:29:00,
2013-08-06 01:30:00,64.2,62.1,29.82,NNE,25,0.0,0.0,93,0.00,,---,0.07,VWS V14.01,2013-08-06 05:30:00,
2013-08-06 01:31:00,64.1,62.0,29.82,NNE,25,0.0,0.0,93,0.00,,---,0.07,VWS V14.01,2013-08-06 05:31:00,
2013-08-06 01:32:00,64.1,62.0,29.82,NNE,25,0.0,0.0,93,0.00,,---,0.07,VWS V14.01,2013-08-06 05:32:00,
2013-08-06 01:33:00,64.1,62.0,29.82,NNE,25,0.0,0.0,93,0.00,,---,0.07,VWS V14.01,2013-08-06 05:33:00,
2013-08-06 01:34:00,64.1,62.0,29.82,NNE,25,0.0,0.0,93,0.00,,---,0.07,VWS V14.01,2013-08-06 05:34:00,
2013-08-06 01:35:00,64.1,62.0,29.82,NNE,25,0.0,0.0,93,0.00,,---,0.07,VWS V14.01,2013-08-06 05:35:00,
2013-08-06 01:36:00,64.1,62.0,29.82,NNE,25,0.0,0.0,93,0.00,,---,0.07,VWS V14.01,2013-08-06 05:36:00,
2013-08-06 01:37:00,64.1,62.0,29.82,NNE,25,0.0,0.0,93,0.00,,---,0.07,VWS V14.01,2013-08-06 05:37:00,
2013-08-06 01:38:00,64.1,62.0,29.82,NNE,25,0.0,0.0,93,0.00,,---,0.07,VWS V14.01,2013-08-06 05:38:00,
2013-08-06 01:39:00,64.1,62.0,29.82,NNE,25,0.0,0.0,93,0.00,,---,0.07,VWS V14.01,2013-08-06 05:39:00,
2013-08-06 01:40:00,64.1,62.0,29.82,NNE,25,0.0,0.0,93,0.00,,---,0.07,VWS V14.01,2013-08-06 05:40:00,
2013-08-06 01:41:00,64.1,62.3,29.82,NNE,25,0.0,0.0,94,0.00,,---,0.07,VWS V14.01,2013-08-06 05:41:00,
2013-08-06 01:42:00,64.1,62.3,29.82,NNE,25,0.0,0.0,94,0.00,,---,0.07,VWS V14.01,2013-08-06 05:42:00,
2013-08-06 01:43:00,64.1,62.3,29.82,NNE,25,0.0,0.0,94,0.00,,---,0.07,VWS V14.01,2013-08-06 05:43:00,
2013-08-06 01:44:00,64.0,62.2,29.82,NNE,25,0.0,0.0,94,0.00,,---,0.07,VWS V14.01,2013-08-06 05:44:00,
2013-08-06 01:45:00,64.0,62.2,29.81,NNE,25,0.0,0.0,94,0.00,,---,0.07,VWS V14.01,2013-08-06 05:45:00,
2013-08-06 01:46:00,64.0,62.2,29.81,NNE,25,0.0,0.0,94,0.00,,---,0.07,VWS V14.01,2013-08-06 05:46:00,
2013-08-06 01:47:00,64.0,62.2,29.81,NNE,25,0.0,0.0,94,0.00,,---,0.07,VWS V14.01,2013-08-06 05:47:00,
2013-08-06 01:48:00,64.0,62.2,29.81,NNE,25,0.0,0.0,94,0.00,,---,0.07,VWS V14.01,2013-08-06 05:48:00,
2013-08-06 01:49:00,64.0,62.2,29.81,NNE,25,0.0,0.0,94,0.00,,---,0.07,VWS V14.01,2013-08-06 05:49:00,
2013-08-06 01:50:00,64.0,62.2,29.81,NNE,25,0.0,0.0,94,0.00,,---,0.07,VWS V14.01,2013-08-06 05:50:00,
2013-08-06 01:51:00,64.0,62.2,29.81,NNE,25,0.0,0.0,94,0.00,,---,0.07,VWS V14.01,2013-08-06 05:51:00,
2013-08-06 01:52:00,64.0,62.2,29.81,NNE,25,0.0,0.0,94,0.00,,---,0.07,VWS V14.01,2013-08-06 05:52:00,
2013-08-06 01:53:00,64.0,62.2,29.81,NNE,25,0.0,0.0,94,0.00,,---,0.07,VWS V14.01,2013-08-06 05:53:00,
2013-08-06 01:54:00,64.0,62.2,29.81,NNE,25,0.0,0.0,94,0.00,,---,0.07,VWS V14.01,2013-08-06 05:54:00,
2013-08-06 01:55:00,63.9,62.1,29.81,NNE,25,0.0,0.0,94,0.00,,---,0.07,VWS V14.01,2013-08-06 05:55:00,
2013-08-06 01:56:00,64.0,62.2,29.81,NNE,25,0.0,0.0,94,0.00,,---,0.07,VWS V14.01,2013-08-06 05:56:00,
2013-08-06 01:57:00,64.0,62.2,29.81,NNE,25,0.0,0.0,94,0.00,,---,0.07,VWS V14.01,2013-08-06 05:57:00,
2013-08-06 01:58:00,63.9,62.1,29.81,NNE,25,0.0,0.0,94,0.00,,---,0.07,VWS V14.01,2013-08-06 05:58:00,
2013-08-06 01:59:00,63.9,62.1,29.81,NNE,25,0.0,0.0,94,0.00,,---,0.07,VWS V14.01,2013-08-06 05:59:00,
2013-08-06 02:00:00,63.9,62.1,29.82,NNE,25,0.0,0.0,94,0.00,,---,0.07,VWS V14.01,2013-08-06 06:00:00,
2013-08-06 02:01:00,63.9,62.1,29.82,NNE,25,0.0,0.0,94,0.00,,---,0.07,VWS V14.01,2013-08-06 06:01:00,
2013-08-06 02:02:00,63.9,62.1,29.82,NNE,25,0.0,0.0,94,0.00,,---,0.07,VWS V14.01,2013-08-06 06:02:00,
2013-08-06 02:03:00,63.9,62.1,29.82,NNE,25,0.0,0.0,94,0.00,,---,0.07,VWS V14.01,2013-08-06 06:03:00,
2013-08-06 02:04:00,63.9,62.1,29.82,NNE,25,0.0,0.0,94,0.00,,---,0.07,VWS V14.01,2013-08-06 06:04:00,
2013-08-06 02:05:00,63.9,62.1,29.82,NNE,25,0.0,0.0,94,0.00,,---,0.07,VWS V14.01,2013-08-06 06:05:00,
2013-08-06 02:06:00,63.9,62.1,29.82,NNE,25,0.0,0.0,94,0.00,,---,0.07,VWS V14.01,2013-08-06 06:06:00,
2013-08-06 02:07:00,64.0,62.5,29.82,NNE,25,0.0,0.0,95,0.00,,---,0.07,VWS V14.01,2013-08-06 06:07:00,
2013-08-06 02:08:00,64.0,62.5,29.82,NNE,25,0.0,0.0,95,0.00,,---,0.07,VWS V14.01,2013-08-06 06:08:00,
2013-08-06 02:09:00,64.0,62.5,29.82,NNE,25,0.0,0.0,95,0.00,,---,0.07,VWS V14.01,2013-08-06 06:09:00,
2013-08-06 02:10:00,64.0,62.5,29.82,NNE,25,0.0,0.0,95,0.00,,---,0.07,VWS V14.01,2013-08-06 06:10:00,
2013-08-06 02:11:00,64.0,62.5,29.82,NNE,25,0.0,0.0,95,0.00,,---,0.07,VWS V14.01,2013-08-06 06:11:00,
2013-08-06 02:12:00,64.0,62.5,29.82,NNE,25,0.0,0.0,95,0.00,,---,0.07,VWS V14.01,2013-08-06 06:12:00,
2013-08-06 02:13:00,64.0,62.5,29.82,NNE,25,0.0,0.0,95,0.00,,---,0.07,VWS V14.01,2013-08-06 06:13:00,
2013-08-06 02:14:00,64.0,62.5,29.82,NNE,25,0.0,0.0,95,0.00,,---,0.07,VWS V14.01,2013-08-06 06:14:00,
2013-08-06 02:15:00,64.0,62.5,29.83,NNE,25,0.0,0.0,95,0.00,,---,0.07,VWS V14.01,2013-08-06 06:15:00,
2013-08-06 02:16:00,64.0,62.5,29.83,NNE,25,0.0,0.0,95,0.00,,---,0.07,VWS V14.01,2013-08-06 06:16:00,
2013-08-06 02:17:00,64.0,62.5,29.83,NNE,25,0.0,0.0,95,0.01,,---,0.08,VWS V14.01,2013-08-06 06:17:00,
2013-08-06 02:18:00,63.9,62.4,29.83,NNE,25,0.0,0.0,95,0.01,,---,0.08,VWS V14.01,2013-08-06 06:18:00,
2013-08-06 02:19:00,63.9,62.4,29.83,NNE,25,0.0,0.0,95,0.01,,---,0.08,VWS V14.01,2013-08-06 06:19:00,
2013-08-06 02:20:00,63.9,62.4,29.83,NNE,25,0.0,0.0,95,0.01,,---,0.08,VWS V14.01,2013-08-06 06:20:00,
2013-08-06 02:21:00,63.9,62.4,29.83,NNE,25,0.0,0.0,95,0.01,,---,0.08,VWS V14.01,2013-08-06 06:21:00,
2013-08-06 02:22:00,63.9,62.4,29.83,NNE,25,0.0,0.0,95,0.01,,---,0.08,VWS V14.01,2013-08-06 06:22:00,
2013-08-06 02:23:00,63.9,62.4,29.83,NNE,25,0.0,0.0,95,0.01,,---,0.08,VWS V14.01,2013-08-06 06:23:00,
2013-08-06 02:24:00,63.9,62.4,29.83,NNE,25,0.0,0.0,95,0.01,,---,0.08,VWS V14.01,2013-08-06 06:24:00,
2013-08-06 02:25:00,63.9,62.4,29.83,NNE,25,0.0,0.0,95,0.01,,---,0.08,VWS V14.01,2013-08-06 06:25:00,
2013-08-06 02:26:00,63.9,62.4,29.83,NNE,25,0.0,0.0,95,0.01,,---,0.08,VWS V14.01,2013-08-06 06:26:00,
2013-08-06 02:27:00,63.9,62.7,29.83,NNE,25,0.0,0.0,96,0.01,,---,0.08,VWS V14.01,2013-08-06 06:27:00,
2013-08-06 02:28:00,63.9,62.7,29.83,NNE,25,0.0,0.0,96,0.02,,---,0.09,VWS V14.01,2013-08-06 06:28:00,
2013-08-06 02:29:00,63.9,62.7,29.83,NNE,25,0.0,0.0,96,0.02,,---,0.09,VWS V14.01,2013-08-06 06:29:00,
2013-08-06 02:30:00,63.8,62.6,29.82,NNE,25,0.0,0.0,96,0.02,,---,0.09,VWS V14.01,2013-08-06 06:30:00,
2013-08-06 02:31:00,63.8,62.6,29.82,NNE,25,0.0,0.0,96,0.02,,---,0.09,VWS V14.01,2013-08-06 06:31:00,
2013-08-06 02:32:00,63.8,62.6,29.82,NNE,25,0.0,0.0,96,0.02,,---,0.09,VWS V14.01,2013-08-06 06:32:00,
2013-08-06 02:33:00,63.8,62.6,29.82,NNE,25,0.0,0.0,96,0.02,,---,0.09,VWS V14.01,2013-08-06 06:33:00,
2013-08-06 02:34:00,63.8,62.6,29.82,NNE,25,0.0,0.0,96,0.02,,---,0.09,VWS V14.01,2013-08-06 06:34:00,
2013-08-06 02:35:00,63.8,62.6,29.82,NNE,25,0.0,0.0,96,0.03,,---,0.10,VWS V14.01,2013-08-06 06:35:00,
2013-08-06 02:36:00,63.8,62.6,29.82,NNE,25,0.0,0.0,96,0.03,,---,0.10,VWS V14.01,2013-08-06 06:36:00,
2013-08-06 02:37:00,63.8,62.6,29.82,NNE,25,0.0,0.0,96,0.03,,---,0.10,VWS V14.01,2013-08-06 06:37:00,
2013-08-06 02:38:00,63.8,62.6,29.82,NNE,25,0.0,0.0,96,0.03,,---,0.10,VWS V14.01,2013-08-06 06:38:00,
2013-08-06 02:39:00,63.8,62.6,29.82,NNE,25,0.0,0.0,96,0.03,,---,0.10,VWS V14.01,2013-08-06 06:39:00,
2013-08-06 02:40:00,63.8,62.6,29.82,NNE,25,0.0,0.0,96,0.03,,---,0.10,VWS V14.01,2013-08-06 06:40:00,
2013-08-06 02:41:00,63.8,62.6,29.82,NNE,25,0.0,0.0,96,0.03,,---,0.10,VWS V14.01,2013-08-06 06:41:00,
2013-08-06 02:42:00,63.8,62.6,29.82,NNE,25,0.0,0.0,96,0.03,,---,0.10,VWS V14.01,2013-08-06 06:42:00,
2013-08-06 02:43:00,63.8,62.6,29.82,NNE,25,0.0,0.0,96,0.03,,---,0.10,VWS V14.01,2013-08-06 06:43:00,
2013-08-06 02:44:00,63.8,62.6,29.82,NNE,25,0.0,0.0,96,0.03,,---,0.10,VWS V14.01,2013-08-06 06:44:00,
2013-08-06 02:45:00,63.8,62.6,29.82,NNE,25,0.0,0.0,96,0.04,,---,0.11,VWS V14.01,2013-08-06 06:45:00,
2013-08-06 02:46:00,63.8,62.6,29.82,NNE,25,0.0,0.0,96,0.04,,---,0.11,VWS V14.01,2013-08-06 06:46:00,
2013-08-06 02:47:00,63.8,62.6,29.82,NNE,25,0.0,0.0,96,0.05,,---,0.12,VWS V14.01,2013-08-06 06:47:00,
2013-08-06 02:48:00,63.8,62.6,29.82,NNE,25,0.0,0.0,96,0.05,,---,0.12,VWS V14.01,2013-08-06 06:48:00,
2013-08-06 02:49:00,63.8,62.6,29.82,NNE,25,0.0,0.0,96,0.05,,---,0.12,VWS V14.01,2013-08-06 06:49:00,
2013-08-06 02:50:00,63.7,62.5,29.82,NNE,25,0.0,0.0,96,0.06,,---,0.13,VWS V14.01,2013-08-06 06:50:00,
2013-08-06 02:51:00,63.8,62.6,29.82,NNE,25,0.0,0.0,96,0.06,,---,0.13,VWS V14.01,2013-08-06 06:51:00,
2013-08-06 02:52:00,63.7,62.5,29.82,NNE,25,0.0,0.0,96,0.06,,---,0.13,VWS V14.01,2013-08-06 06:52:00,
2013-08-06 02:53:00,63.7,62.5,29.82,NNE,25,0.0,0.0,96,0.07,,---,0.14,VWS V14.01,2013-08-06 06:53:00,
2013-08-06 02:54:00,63.7,62.5,29.82,NNE,25,0.0,0.0,96,0.07,,---,0.14,VWS V14.01,2013-08-06 06:54:00,
2013-08-06 02:55:00,63.7,62.5,29.82,NNE,25,0.0,0.0,96,0.07,,---,0.14,VWS V14.01,2013-08-06 06:55:00,
2013-08-06 02:56:00,63.7,62.5,29.82,NNE,25,0.0,0.0,96,0.07,,---,0.14,VWS V14.01,2013-08-06 06:56:00,
2013-08-06 02:57:00,63.7,62.5,29.82,NNE,25,0.0,0.0,96,0.08,,---,0.15,VWS V14.01,2013-08-06 06:57:00,
2013-08-06 02:58:00,63.7,62.5,29.82,NNE,25,0.0,0.0,96,0.08,,---,0.15,VWS V14.01,2013-08-06 06:58:00,
2013-08-06 02:59:00,63.7,62.5,29.82,NNE,25,0.0,0.0,96,0.08,,---,0.15,VWS V14.01,2013-08-06 06:59:00,
2013-08-06 03:00:00,63.7,62.5,29.82,NNE,25,0.0,0.0,96,0.08,,---,0.15,VWS V14.01,2013-08-06 07:00:00,
2013-08-06 03:01:00,63.7,62.5,29.82,NNE,25,0.0,0.0,96,0.09,,---,0.16,VWS V14.01,2013-08-06 07:01:00,
2013-08-06 03:02:00,63.7,62.5,29.82,NNE,25,0.0,0.0,96,0.09,,---,0.16,VWS V14.01,2013-08-06 07:02:00,
2013-08-06 03:03:00,63.6,62.4,29.82,NNE,25,0.0,0.0,96,0.09,,---,0.16,VWS V14.01,2013-08-06 07:03:00,
2013-08-06 03:04:00,63.7,62.5,29.82,NNE,25,0.0,0.0,96,0.09,,---,0.16,VWS V14.01,2013-08-06 07:04:00,
2013-08-06 03:05:00,63.6,62.4,29.82,NNE,25,0.0,0.0,96,0.09,,---,0.16,VWS V14.01,2013-08-06 07:05:00,
2013-08-06 03:06:00,63.7,62.5,29.82,NNE,25,0.0,0.0,96,0.09,,---,0.16,VWS V14.01,2013-08-06 07:06:00,
2013-08-06 03:07:00,63.6,62.4,29.82,NNE,25,0.0,0.0,96,0.10,,---,0.17,VWS V14.01,2013-08-06 07:07:00,
2013-08-06 03:08:00,63.6,62.4,29.82,NNE,25,0.0,0.0,96,0.10,,---,0.17,VWS V14.01,2013-08-06 07:08:00,
2013-08-06 03:09:00,63.7,62.5,29.82,NNE,25,0.0,0.0,96,0.10,,---,0.17,VWS V14.01,2013-08-06 07:09:00,
2013-08-06 03:10:00,63.6,62.4,29.82,NNE,25,0.0,0.0,96,0.10,,---,0.17,VWS V14.01,2013-08-06 07:10:00,
2013-08-06 03:11:00,63.6,62.4,29.82,NNE,25,0.0,0.0,96,0.10,,---,0.17,VWS V14.01,2013-08-06 07:11:00,
2013-08-06 03:12:00,63.6,62.4,29.82,NNE,25,0.0,0.0,96,0.11,,---,0.18,VWS V14.01,2013-08-06 07:12:00,
2013-08-06 03:13:00,63.6,62.4,29.82,NNE,25,0.0,0.0,96,0.11,,---,0.18,VWS V14.01,2013-08-06 07:13:00,
2013-08-06 03:14:00,63.6,62.4,29.82,NNE,25,0.0,0.0,96,0.11,,---,0.18,VWS V14.01,2013-08-06 07:14:00,
2013-08-06 03:15:00,63.6,62.4,29.82,NNE,25,0.0,0.0,96,0.12,,---,0.19,VWS V14.01,2013-08-06 07:15:00,
2013-08-06 03:16:00,63.6,62.4,29.82,NNE,25,0.0,0.0,96,0.12,,---,0.19,VWS V14.01,2013-08-06 07:16:00,
2013-08-06 03:17:00,63.6,62.4,29.82,NNE,25,0.0,0.0,96,0.12,,---,0.19,VWS V14.01,2013-08-06 07:17:00,
2013-08-06 03:18:00,63.6,62.4,29.82,NNE,25,0.0,0.0,96,0.12,,---,0.19,VWS V14.01,2013-08-06 07:18:00,
2013-08-06 03:19:00,63.6,62.4,29.82,NNE,25,0.0,0.0,96,0.13,,---,0.20,VWS V14.01,2013-08-06 07:19:00,
2013-08-06 03:20:00,63.6,62.4,29.82,NNE,25,0.0,0.0,96,0.14,,---,0.21,VWS V14.01,2013-08-06 07:20:00,
2013-08-06 03:21:00,63.6,62.4,29.82,NNE,25,0.0,0.0,96,0.15,,---,0.23,VWS V14.01,2013-08-06 07:21:00,
2013-08-06 03:22:00,63.6,62.4,29.82,NNE,25,0.0,0.0,96,0.16,,---,0.24,VWS V14.01,2013-08-06 07:22:00,
2013-08-06 03:23:00,63.6,62.4,29.82,NNE,25,0.0,0.0,96,0.17,,---,0.25,VWS V14.01,2013-08-06 07:23:00,
2013-08-06 03:24:00,63.6,62.4,29.82,NNE,25,0.0,0.0,96,0.17,,---,0.25,VWS V14.01,2013-08-06 07:24:00,
2013-08-06 03:25:00,63.6,62.4,29.82,NNE,25,0.0,0.0,96,0.18,,---,0.26,VWS V14.01,2013-08-06 07:25:00,
2013-08-06 03:26:00,63.6,62.4,29.82,NNE,25,0.0,0.0,96,0.18,,---,0.26,VWS V14.01,2013-08-06 07:26:00,
2013-08-06 03:27:00,63.6,62.4,29.82,NNE,25,0.0,0.0,96,0.19,,---,0.27,VWS V14.01,2013-08-06 07:27:00,
2013-08-06 03:28:00,63.6,62.4,29.82,NNE,25,0.0,0.0,96,0.19,,---,0.27,VWS V14.01,2013-08-06 07:28:00,
2013-08-06 03:29:00,63.6,62.4,29.82,NNE,25,0.0,0.0,96,0.20,,---,0.28,VWS V14.01,2013-08-06 07:29:00,
2013-08-06 03:30:00,63.6,62.4,29.82,NNE,25,0.0,0.0,96,0.20,,---,0.28,VWS V14.01,2013-08-06 07:30:00,
2013-08-06 03:31:00,63.6,62.4,29.82,NNE,25,0.0,0.0,96,0.19,,---,0.28,VWS V14.01,2013-08-06 07:31:00,
2013-08-06 03:32:00,63.6,62.4,29.82,NNE,25,0.0,0.0,96,0.19,,---,0.28,VWS V14.01,2013-08-06 07:32:00,
2013-08-06 03:33:00,63.6,62.4,29.82,NNE,25,0.0,0.0,96,0.19,,---,0.28,VWS V14.01,2013-08-06 07:33:00,
2013-08-06 03:34:00,63.6,62.4,29.82,NNE,25,0.0,0.0,96,0.19,,---,0.28,VWS V14.01,2013-08-06 07:34:00,
2013-08-06 03:35:00,63.6,62.4,29.82,NNE,25,0.0,0.0,96,0.19,,---,0.28,VWS V14.01,2013-08-06 07:35:00,
2013-08-06 03:36:00,63.6,62.4,29.82,NNE,25,0.0,0.0,96,0.18,,---,0.28,VWS V14.01,2013-08-06 07:36:00,
2013-08-06 03:37:00,63.6,62.4,29.82,NNE,25,0.0,0.0,96,0.18,,---,0.28,VWS V14.01,2013-08-06 07:37:00,
2013-08-06 03:38:00,63.6,62.4,29.82,NNE,25,0.0,0.0,96,0.19,,---,0.29,VWS V14.01,2013-08-06 07:38:00,
2013-08-06 03:39:00,63.6,62.4,29.82,NNE,25,0.0,0.0,96,0.19,,---,0.29,VWS V14.01,2013-08-06 07:39:00,
2013-08-06 03:40:00,63.6,62.4,29.82,NNE,25,0.0,0.0,96,0.19,,---,0.29,VWS V14.01,2013-08-06 07:40:00,
2013-08-06 03:41:00,63.6,62.4,29.82,NNE,25,0.0,0.0,96,0.19,,---,0.29,VWS V14.01,2013-08-06 07:41:00,
2013-08-06 03:42:00,63.6,62.4,29.82,NNE,25,0.0,0.0,96,0.19,,---,0.29,VWS V14.01,2013-08-06 07:42:00,
2013-08-06 03:43:00,63.5,62.3,29.82,NNE,25,0.0,0.0,96,0.20,,---,0.30,VWS V14.01,2013-08-06 07:43:00,
2013-08-06 03:44:00,63.5,62.3,29.82,NNE,25,0.0,0.0,96,0.20,,---,0.30,VWS V14.01,2013-08-06 07:44:00,
2013-08-06 03:45:00,63.5,62.3,29.82,NNE,25,0.0,0.0,96,0.20,,---,0.30,VWS V14.01,2013-08-06 07:45:00,
2013-08-06 03:46:00,63.5,62.3,29.82,NNE,25,0.0,0.0,96,0.19,,---,0.30,VWS V14.01,2013-08-06 07:46:00,
2013-08-06 03:47:00,63.5,62.3,29.82,NNE,25,0.0,0.0,96,0.19,,---,0.30,VWS V14.01,2013-08-06 07:47:00,
2013-08-06 03:48:00,63.5,62.3,29.82,NNE,25,0.0,0.0,96,0.19,,---,0.30,VWS V14.01,2013-08-06 07:48:00,
2013-08-06 03:49:00,63.5,62.3,29.82,NNE,25,0.0,0.0,96,0.19,,---,0.30,VWS V14.01,2013-08-06 07:49:00,
2013-08-06 03:50:00,63.5,62.3,29.82,NNE,25,0.0,0.0,96,0.19,,---,0.30,VWS V14.01,2013-08-06 07:50:00,
2013-08-06 03:51:00,63.5,62.3,29.82,NNE,25,0.0,0.0,96,0.17,,---,0.30,VWS V14.01,2013-08-06 07:51:00,
2013-08-06 03:52:00,63.5,62.6,29.82,NNE,25,0.0,0.0,97,0.17,,---,0.30,VWS V14.01,2013-08-06 07:52:00,
2013-08-06 03:53:00,63.5,62.6,29.82,NNE,25,0.0,0.0,97,0.17,,---,0.30,VWS V14.01,2013-08-06 07:53:00,
2013-08-06 03:54:00,63.5,62.6,29.82,NNE,25,0.0,0.0,97,0.17,,---,0.30,VWS V14.01,2013-08-06 07:54:00,
2013-08-06 03:55:00,63.5,62.6,29.82,NNE,25,0.0,0.0,97,0.17,,---,0.30,VWS V14.01,2013-08-06 07:55:00,
2013-08-06 03:56:00,63.5,62.6,29.82,NNE,25,0.0,0.0,97,0.16,,---,0.30,VWS V14.01,2013-08-06 07:56:00,
2013-08-06 03:57:00,63.5,62.6,29.82,NNE,25,0.0,0.0,97,0.16,,---,0.30,VWS V14.01,2013-08-06 07:57:00,
2013-08-06 03:58:00,63.5,62.6,29.82,NNE,25,0.0,0.0,97,0.16,,---,0.30,VWS V14.01,2013-08-06 07:58:00,
2013-08-06 03:59:00,63.5,62.6,29.82,NNE,25,0.0,0.0,97,0.16,,---,0.30,VWS V14.01,2013-08-06 07:59:00,
2013-08-06 04:00:00,63.5,62.6,29.82,NNE,25,0.0,0.0,97,0.16,,---,0.30,VWS V14.01,2013-08-06 08:00:00,
2013-08-06 04:01:00,63.5,62.6,29.82,NNE,25,0.0,0.0,97,0.15,,---,0.30,VWS V14.01,2013-08-06 08:01:00,
2013-08-06 04:02:00,63.4,62.5,29.82,NNE,25,0.0,0.0,97,0.15,,---,0.30,VWS V14.01,2013-08-06 08:02:00,
2013-08-06 04:03:00,63.4,62.5,29.82,NNE,25,0.0,0.0,97,0.15,,---,0.30,VWS V14.01,2013-08-06 08:03:00,
2013-08-06 04:04:00,63.4,62.5,29.82,NNE,25,0.0,0.0,97,0.16,,---,0.31,VWS V14.01,2013-08-06 08:04:00,
2013-08-06 04:05:00,63.4,62.5,29.82,NNE,25,0.0,0.0,97,0.16,,---,0.31,VWS V14.01,2013-08-06 08:05:00,
2013-08-06 04:06:00,63.4,62.5,29.82,NNE,25,0.0,0.0,97,0.15,,---,0.31,VWS V14.01,2013-08-06 08:06:00,
2013-08-06 04:07:00,63.4,62.5,29.82,NNE,25,0.0,0.0,97,0.15,,---,0.31,VWS V14.01,2013-08-06 08:07:00,
2013-08-06 04:08:00,63.4,62.5,29.82,NNE,25,0.0,0.0,97,0.15,,---,0.31,VWS V14.01,2013-08-06 08:08:00,
2013-08-06 04:09:00,63.4,62.5,29.82,NNE,25,0.0,0.0,97,0.15,,---,0.31,VWS V14.01,2013-08-06 08:09:00,
2013-08-06 04:10:00,63.4,62.5,29.82,NNE,25,0.0,0.0,97,0.15,,---,0.31,VWS V14.01,2013-08-06 08:10:00,
2013-08-06 04:11:00,63.4,62.5,29.82,NNE,25,0.0,0.0,97,0.14,,---,0.31,VWS V14.01,2013-08-06 08:11:00,
2013-08-06 04:12:00,63.4,62.5,29.82,NNE,25,0.0,0.0,97,0.14,,---,0.31,VWS V14.01,2013-08-06 08:12:00,
2013-08-06 04:13:00,63.4,62.5,29.82,NNE,25,0.0,0.0,97,0.14,,---,0.31,VWS V14.01,2013-08-06 08:13:00,
2013-08-06 04:14:00,63.4,62.5,29.82,NNE,25,0.0,0.0,97,0.15,,---,0.32,VWS V14.01,2013-08-06 08:14:00,
2013-08-06 04:15:00,63.4,62.5,29.82,NNE,25,0.0,0.0,97,0.15,,---,0.32,VWS V14.01,2013-08-06 08:15:00,
2013-08-06 04:16:00,63.4,62.5,29.82,NNE,25,0.0,0.0,97,0.13,,---,0.32,VWS V14.01,2013-08-06 08:16:00,
2013-08-06 04:17:00,63.4,62.5,29.82,NNE,25,0.0,0.0,97,0.13,,---,0.32,VWS V14.01,2013-08-06 08:17:00,
2013-08-06 04:18:00,63.4,62.5,29.82,NNE,25,0.0,0.0,97,0.13,,---,0.32,VWS V14.01,2013-08-06 08:18:00,
2013-08-06 04:19:00,63.4,62.5,29.82,NNE,25,0.0,0.0,97,0.13,,---,0.32,VWS V14.01,2013-08-06 08:19:00,
2013-08-06 04:20:00,63.4,62.5,29.82,NNE,25,0.0,0.0,97,0.13,,---,0.32,VWS V14.01,2013-08-06 08:20:00,
2013-08-06 04:21:00,63.4,62.5,29.82,NNE,25,0.0,0.0,97,0.11,,---,0.32,VWS V14.01,2013-08-06 08:21:00,
2013-08-06 04:22:00,63.4,62.5,29.82,NNE,25,0.0,0.0,97,0.11,,---,0.32,VWS V14.01,2013-08-06 08:22:00,
2013-08-06 04:23:00,63.4,62.5,29.82,NNE,25,0.0,0.0,97,0.11,,---,0.32,VWS V14.01,2013-08-06 08:23:00,
2013-08-06 04:24:00,63.4,62.5,29.82,NNE,25,0.0,0.0,97,0.11,,---,0.32,VWS V14.01,2013-08-06 08:24:00,
2013-08-06 04:25:00,63.4,62.5,29.82,NNE,25,0.0,0.0,97,0.11,,---,0.32,VWS V14.01,2013-08-06 08:25:00,
2013-08-06 04:26:00,63.4,62.5,29.82,NNE,25,0.0,0.0,97,0.06,,---,0.32,VWS V14.01,2013-08-06 08:26:00,
2013-08-06 04:27:00,63.4,62.5,29.82,NNE,25,0.0,0.0,97,0.06,,---,0.32,VWS V14.01,2013-08-06 08:27:00,
2013-08-06 04:28:00,63.4,62.5,29.82,NNE,25,0.0,0.0,97,0.07,,---,0.33,VWS V14.01,2013-08-06 08:28:00,
2013-08-06 04:29:00,63.4,62.5,29.82,NNE,25,0.0,0.0,97,0.07,,---,0.33,VWS V14.01,2013-08-06 08:29:00,
2013-08-06 04:30:00,63.4,62.5,29.81,NNE,25,0.0,0.0,97,0.07,,---,0.33,VWS V14.01,2013-08-06 08:30:00,
2013-08-06 04:31:00,63.4,62.5,29.81,NNE,25,0.0,0.0,97,0.05,,---,0.33,VWS V14.01,2013-08-06 08:31:00,
2013-08-06 04:32:00,63.4,62.5,29.81,NNE,25,0.0,0.0,97,0.05,,---,0.33,VWS V14.01,2013-08-06 08:32:00,
2013-08-06 04:33:00,63.4,62.5,29.81,NNE,25,0.0,0.0,97,0.05,,---,0.33,VWS V14.01,2013-08-06 08:33:00,
2013-08-06 04:34:00,63.4,62.5,29.81,NNE,25,0.0,0.0,97,0.05,,---,0.33,VWS V14.01,2013-08-06 08:34:00,
2013-08-06 04:35:00,63.4,62.5,29.81,NNE,25,0.0,0.0,97,0.05,,---,0.33,VWS V14.01,2013-08-06 08:35:00,
2013-08-06 04:36:00,63.4,62.5,29.81,NNE,25,0.0,0.0,97,0.05,,---,0.33,VWS V14.01,2013-08-06 08:36:00,
2013-08-06 04:37:00,63.4,62.5,29.81,NNE,25,0.0,0.0,97,0.05,,---,0.33,VWS V14.01,2013-08-06 08:37:00,
2013-08-06 04:38:00,63.4,62.5,29.81,NNE,25,0.0,0.0,97,0.05,,---,0.33,VWS V14.01,2013-08-06 08:38:00,
2013-08-06 04:39:00,63.3,62.4,29.81,NNE,25,0.0,0.0,97,0.05,,---,0.33,VWS V14.01,2013-08-06 08:39:00,
2013-08-06 04:40:00,63.4,62.5,29.81,NNE,25,0.0,0.0,97,0.05,,---,0.33,VWS V14.01,2013-08-06 08:40:00,
2013-08-06 04:41:00,63.4,62.5,29.81,NNE,25,0.0,0.0,97,0.05,,---,0.34,VWS V14.01,2013-08-06 08:41:00,
2013-08-06 04:42:00,63.4,62.5,29.81,NNE,25,0.0,0.0,97,0.05,,---,0.34,VWS V14.01,2013-08-06 08:42:00,
2013-08-06 04:43:00,63.4,62.5,29.81,NNE,25,0.0,0.0,97,0.05,,---,0.34,VWS V14.01,2013-08-06 08:43:00,
2013-08-06 04:44:00,63.4,62.5,29.81,NNE,25,0.0,0.0,97,0.05,,---,0.34,VWS V14.01,2013-08-06 08:44:00,
2013-08-06 04:45:00,63.4,62.5,29.81,NNE,25,0.0,0.0,97,0.05,,---,0.34,VWS V14.01,2013-08-06 08:45:00,
2013-08-06 04:46:00,63.4,62.5,29.81,NNE,25,0.0,0.0,97,0.04,,---,0.34,VWS V14.01,2013-08-06 08:46:00,
2013-08-06 04:47:00,63.4,62.5,29.81,NNE,25,0.0,0.0,97,0.04,,---,0.34,VWS V14.01,2013-08-06 08:47:00,
2013-08-06 04:48:00,63.3,62.4,29.81,NNE,25,0.0,0.0,97,0.04,,---,0.34,VWS V14.01,2013-08-06 08:48:00,
2013-08-06 04:49:00,63.3,62.4,29.81,NNE,25,0.0,0.0,97,0.04,,---,0.34,VWS V14.01,2013-08-06 08:49:00,
2013-08-06 04:50:00,63.3,62.4,29.81,NNE,25,0.0,0.0,97,0.04,,---,0.34,VWS V14.01,2013-08-06 08:50:00,
2013-08-06 04:51:00,63.4,62.5,29.81,NNE,25,0.0,0.0,97,0.04,,---,0.34,VWS V14.01,2013-08-06 08:51:00,
2013-08-06 04:52:00,63.3,62.4,29.81,NNE,25,0.0,0.0,97,0.04,,---,0.34,VWS V14.01,2013-08-06 08:52:00,
2013-08-06 04:53:00,63.3,62.4,29.81,NNE,25,0.0,0.0,97,0.05,,---,0.35,VWS V14.01,2013-08-06 08:53:00,
2013-08-06 04:54:00,63.3,62.4,29.81,NNE,25,0.0,0.0,97,0.05,,---,0.35,VWS V14.01,2013-08-06 08:54:00,
2013-08-06 04:55:00,63.3,62.4,29.81,NNE,25,0.0,0.0,97,0.05,,---,0.35,VWS V14.01,2013-08-06 08:55:00,
2013-08-06 04:56:00,63.3,62.4,29.81,NNE,25,0.0,0.0,97,0.05,,---,0.35,VWS V14.01,2013-08-06 08:56:00,
2013-08-06 04:57:00,63.3,62.4,29.81,NNE,25,0.0,0.0,97,0.05,,---,0.35,VWS V14.01,2013-08-06 08:57:00,
2013-08-06 04:58:00,63.3,62.4,29.81,NNE,25,0.0,0.0,97,0.05,,---,0.35,VWS V14.01,2013-08-06 08:58:00,
2013-08-06 04:59:00,63.3,62.4,29.81,NNE,25,0.0,0.0,97,0.05,,---,0.35,VWS V14.01,2013-08-06 08:59:00,
2013-08-06 05:00:00,63.3,62.4,29.81,NNE,25,0.0,0.0,97,0.06,,---,0.36,VWS V14.01,2013-08-06 09:00:00,
2013-08-06 05:01:00,63.3,62.4,29.81,NNE,25,0.0,0.0,97,0.06,,---,0.36,VWS V14.01,2013-08-06 09:01:00,
2013-08-06 05:02:00,63.3,62.4,29.81,NNE,25,0.0,0.0,97,0.06,,---,0.36,VWS V14.01,2013-08-06 09:02:00,
2013-08-06 05:03:00,63.3,62.4,29.81,NNE,25,0.0,0.0,97,0.06,,---,0.36,VWS V14.01,2013-08-06 09:03:00,
2013-08-06 05:04:00,63.3,62.4,29.81,NNE,25,0.0,0.0,97,0.06,,---,0.36,VWS V14.01,2013-08-06 09:04:00,
2013-08-06 05:05:00,63.3,62.4,29.81,NNE,25,0.0,0.0,97,0.06,,---,0.36,VWS V14.01,2013-08-06 09:05:00,
2013-08-06 05:06:00,63.3,62.4,29.81,NNE,25,0.0,0.0,97,0.05,,---,0.36,VWS V14.01,2013-08-06 09:06:00,
2013-08-06 05:07:00,63.3,62.4,29.81,NNE,25,0.0,0.0,97,0.06,,---,0.37,VWS V14.01,2013-08-06 09:07:00,
2013-08-06 05:08:00,63.3,62.4,29.81,NNE,25,0.0,0.0,97,0.06,,---,0.37,VWS V14.01,2013-08-06 09:08:00,
2013-08-06 05:09:00,63.2,62.3,29.81,NNE,25,0.0,0.0,97,0.06,,---,0.37,VWS V14.01,2013-08-06 09:09:00,
2013-08-06 05:10:00,63.3,62.4,29.81,NNE,25,0.0,0.0,97,0.06,,---,0.37,VWS V14.01,2013-08-06 09:10:00,
2013-08-06 05:11:00,63.2,62.3,29.81,NNE,25,0.0,0.0,97,0.06,,---,0.37,VWS V14.01,2013-08-06 09:11:00,
2013-08-06 05:12:00,63.2,62.3,29.81,NNE,25,0.0,0.0,97,0.06,,---,0.37,VWS V14.01,2013-08-06 09:12:00,
2013-08-06 05:13:00,63.2,62.3,29.81,NNE,25,0.0,0.0,97,0.06,,---,0.37,VWS V14.01,2013-08-06 09:13:00,
2013-08-06 05:14:00,63.2,62.3,29.81,NNE,25,0.0,0.0,97,0.07,,---,0.38,VWS V14.01,2013-08-06 09:14:00,
2013-08-06 05:15:00,63.2,62.3,29.80,NNE,25,0.0,0.0,97,0.07,,---,0.38,VWS V14.01,2013-08-06 09:15:00,
2013-08-06 05:16:00,63.2,62.3,29.80,NNE,25,0.0,0.0,97,0.06,,---,0.38,VWS V14.01,2013-08-06 09:16:00,
2013-08-06 05:17:00,63.2,62.3,29.80,NNE,25,0.0,0.0,97,0.06,,---,0.38,VWS V14.01,2013-08-06 09:17:00,
2013-08-06 05:18:00,63.2,62.3,29.80,NNE,25,0.0,0.0,97,0.06,,---,0.38,VWS V14.01,2013-08-06 09:18:00,
2013-08-06 05:19:00,63.2,62.3,29.80,NNE,25,0.0,0.0,97,0.06,,---,0.38,VWS V14.01,2013-08-06 09:19:00,
2013-08-06 05:20:00,63.2,62.3,29.80,NNE,25,0.0,0.0,97,0.06,,---,0.38,VWS V14.01,2013-08-06 09:20:00,
2013-08-06 05:21:00,63.2,62.3,29.80,NNE,25,0.0,0.0,97,0.06,,---,0.38,VWS V14.01,2013-08-06 09:21:00,
2013-08-06 05:22:00,63.2,62.3,29.80,NNE,25,0.0,0.0,97,0.06,,---,0.38,VWS V14.01,2013-08-06 09:22:00,
2013-08-06 05:23:00,63.2,62.3,29.80,NNE,25,0.0,0.0,97,0.06,,---,0.38,VWS V14.01,2013-08-06 09:23:00,
2013-08-06 05:24:00,63.2,62.3,29.80,NNE,25,0.0,0.0,97,0.06,,---,0.38,VWS V14.01,2013-08-06 09:24:00,
2013-08-06 05:25:00,63.2,62.3,29.80,NNE,25,0.0,0.0,97,0.07,,---,0.39,VWS V14.01,2013-08-06 09:25:00,
2013-08-06 05:26:00,63.2,62.3,29.80,NNE,25,0.0,0.0,97,0.07,,---,0.39,VWS V14.01,2013-08-06 09:26:00,
2013-08-06 05:27:00,63.1,62.2,29.80,NNE,25,0.0,0.0,97,0.07,,---,0.39,VWS V14.01,2013-08-06 09:27:00,
2013-08-06 05:28:00,63.1,62.2,29.80,NNE,25,0.0,0.0,97,0.07,,---,0.39,VWS V14.01,2013-08-06 09:28:00,
2013-08-06 05:29:00,63.1,62.2,29.80,NNE,25,0.0,0.0,97,0.07,,---,0.39,VWS V14.01,2013-08-06 09:29:00,
2013-08-06 05:30:00,63.1,62.2,29.79,NNE,25,0.0,0.0,97,0.07,,---,0.39,VWS V14.01,2013-08-06 09:30:00,
2013-08-06 05:31:00,63.1,62.2,29.79,NNE,25,0.0,0.0,97,0.06,,---,0.39,VWS V14.01,2013-08-06 09:31:00,
2013-08-06 05:32:00,63.1,62.2,29.79,NNE,25,0.0,0.0,97,0.06,,---,0.39,VWS V14.01,2013-08-06 09:32:00,
2013-08-06 05:33:00,63.1,62.2,29.79,NNE,25,0.0,0.0,97,0.06,,---,0.39,VWS V14.01,2013-08-06 09:33:00,
2013-08-06 05:34:00,63.1,62.2,29.79,NNE,25,0.0,0.0,97,0.06,,---,0.39,VWS V14.01,2013-08-06 09:34:00,
2013-08-06 05:35:00,63.1,62.2,29.79,NNE,25,0.0,0.0,97,0.06,,---,0.39,VWS V14.01,2013-08-06 09:35:00,
2013-08-06 05:36:00,63.1,62.2,29.79,NNE,25,0.0,0.0,97,0.06,,---,0.39,VWS V14.01,2013-08-06 09:36:00,
2013-08-06 05:37:00,63.1,62.2,29.79,NNE,25,0.0,0.0,97,0.06,,---,0.39,VWS V14.01,2013-08-06 09:37:00,
2013-08-06 05:38:00,63.1,62.2,29.79,NNE,25,0.0,0.0,97,0.06,,---,0.39,VWS V14.01,2013-08-06 09:38:00,
2013-08-06 05:39:00,63.1,62.2,29.79,NNE,25,0.0,0.0,97,0.07,,---,0.40,VWS V14.01,2013-08-06 09:39:00,
2013-08-06 05:40:00,63.1,62.2,29.79,NNE,25,0.0,0.0,97,0.07,,---,0.40,VWS V14.01,2013-08-06 09:40:00,
2013-08-06 05:41:00,63.1,62.2,29.79,NNE,25,0.0,0.0,97,0.07,,---,0.40,VWS V14.01,2013-08-06 09:41:00,
2013-08-06 05:42:00,63.1,62.2,29.79,NNE,25,0.0,0.0,97,0.07,,---,0.40,VWS V14.01,2013-08-06 09:42:00,
2013-08-06 05:43:00,63.0,62.1,29.79,NNE,25,0.0,0.0,97,0.09,,---,0.42,VWS V14.01,2013-08-06 09:43:00,
2013-08-06 05:44:00,63.0,62.1,29.79,NNE,25,0.0,0.0,97,0.10,,---,0.43,VWS V14.01,2013-08-06 09:44:00,
2013-08-06 05:45:00,63.0,62.1,29.79,NNE,25,0.0,0.0,97,0.10,,---,0.43,VWS V14.01,2013-08-06 09:45:00,
2013-08-06 05:46:00,63.0,62.1,29.79,NNE,25,0.0,0.0,97,0.09,,---,0.43,VWS V14.01,2013-08-06 09:46:00,
2013-08-06 05:47:00,63.0,62.1,29.79,NNE,25,0.0,0.0,97,0.09,,---,0.43,VWS V14.01,2013-08-06 09:47:00,
2013-08-06 05:48:00,63.0,62.1,29.79,NNE,25,0.0,0.0,97,0.09,,---,0.43,VWS V14.01,2013-08-06 09:48:00,
2013-08-06 05:49:00,63.0,62.1,29.79,NNE,25,0.0,0.0,97,0.09,,---,0.43,VWS V14.01,2013-08-06 09:49:00,
2013-08-06 05:50:00,63.0,62.1,29.79,NNE,25,0.0,0.0,97,0.09,,---,0.43,VWS V14.01,2013-08-06 09:50:00,
2013-08-06 05:51:00,63.0,62.1,29.79,NNE,25,0.0,0.0,97,0.09,,---,0.43,VWS V14.01,2013-08-06 09:51:00,
2013-08-06 05:52:00,62.9,62.0,29.79,NNE,25,0.0,0.0,97,0.09,,---,0.43,VWS V14.01,2013-08-06 09:52:00,
2013-08-06 05:53:00,62.9,62.0,29.79,NNE,25,0.0,0.0,97,0.09,,---,0.43,VWS V14.01,2013-08-06 09:53:00,
2013-08-06 05:54:00,62.9,62.3,29.79,NNE,25,0.0,0.0,98,0.09,,---,0.43,VWS V14.01,2013-08-06 09:54:00,
2013-08-06 05:55:00,62.9,62.3,29.79,NNE,25,0.0,0.0,98,0.09,,---,0.43,VWS V14.01,2013-08-06 09:55:00,
2013-08-06 05:56:00,62.9,62.3,29.79,NNE,25,0.0,0.0,98,0.08,,---,0.43,VWS V14.01,2013-08-06 09:56:00,
2013-08-06 05:57:00,62.9,62.3,29.79,NNE,25,0.0,0.0,98,0.08,,---,0.43,VWS V14.01,2013-08-06 09:57:00,
2013-08-06 05:58:00,62.9,62.3,29.79,NNE,25,0.0,0.0,98,0.08,,---,0.43,VWS V14.01,2013-08-06 09:58:00,
2013-08-06 05:59:00,62.9,62.3,29.79,NNE,25,0.0,0.0,98,0.08,,---,0.43,VWS V14.01,2013-08-06 09:59:00,
2013-08-06 06:00:00,62.9,62.3,29.79,NNE,25,0.0,0.0,98,0.08,,---,0.43,VWS V14.01,2013-08-06 10:00:00,
2013-08-06 06:01:00,62.9,62.3,29.79,NNE,25,0.0,0.0,98,0.07,,---,0.43,VWS V14.01,2013-08-06 10:01:00,
2013-08-06 06:02:00,62.9,62.3,29.79,NNE,25,0.0,0.0,98,0.07,,---,0.43,VWS V14.01,2013-08-06 10:02:00,
2013-08-06 06:03:00,62.9,62.3,29.79,NNE,24,0.0,0.0,98,0.07,,---,0.43,VWS V14.01,2013-08-06 10:03:00,
2013-08-06 06:04:00,62.9,62.3,29.79,NNE,24,0.0,0.0,98,0.07,,---,0.43,VWS V14.01,2013-08-06 10:04:00,
2013-08-06 06:05:00,62.8,62.2,29.79,NNE,23,0.0,0.0,98,0.08,,---,0.44,VWS V14.01,2013-08-06 10:05:00,
2013-08-06 06:06:00,62.8,62.2,29.79,NNE,23,0.0,0.0,98,0.08,,---,0.44,VWS V14.01,2013-08-06 10:06:00,
2013-08-06 06:07:00,62.8,62.2,29.79,NNE,23,0.0,0.0,98,0.08,,---,0.44,VWS V14.01,2013-08-06 10:07:00,
2013-08-06 06:08:00,62.8,62.2,29.79,NNE,22,0.0,0.0,98,0.08,,---,0.44,VWS V14.01,2013-08-06 10:08:00,
2013-08-06 06:09:00,62.8,62.2,29.79,NNE,23,0.0,0.0,98,0.08,,---,0.44,VWS V14.01,2013-08-06 10:09:00,
2013-08-06 06:10:00,62.8,62.2,29.79,NNE,22,0.0,0.0,98,0.09,,---,0.45,VWS V14.01,2013-08-06 10:10:00,
2013-08-06 06:11:00,62.8,62.2,29.79,NNE,22,0.0,0.0,98,0.08,,---,0.45,VWS V14.01,2013-08-06 10:11:00,
2013-08-06 06:12:00,62.8,62.2,29.79,NNE,22,0.0,0.0,98,0.08,,---,0.45,VWS V14.01,2013-08-06 10:12:00,
2013-08-06 06:13:00,62.8,62.2,29.79,NNE,20,0.0,0.0,98,0.08,,---,0.45,VWS V14.01,2013-08-06 10:13:00,
2013-08-06 06:14:00,62.8,62.2,29.79,NNE,20,0.0,0.0,98,0.08,,---,0.45,VWS V14.01,2013-08-06 10:14:00,
2013-08-06 06:15:00,62.8,62.2,29.79,NNE,20,0.0,0.0,98,0.09,,---,0.46,VWS V14.01,2013-08-06 10:15:00,
2013-08-06 06:16:00,62.7,62.1,29.79,NNE,20,0.0,0.0,98,0.08,,---,0.46,VWS V14.01,2013-08-06 10:16:00,
2013-08-06 06:17:00,62.7,62.1,29.79,NNE,20,0.0,0.0,98,0.08,,---,0.46,VWS V14.01,2013-08-06 10:17:00,
2013-08-06 06:18:00,62.7,62.1,29.79,NNE,20,0.0,0.0,98,0.08,,---,0.46,VWS V14.01,2013-08-06 10:18:00,
2013-08-06 06:19:00,62.7,62.1,29.79,NNE,20,0.0,0.0,98,0.08,,---,0.46,VWS V14.01,2013-08-06 10:19:00,
2013-08-06 06:20:00,62.7,62.1,29.79,NNE,20,0.0,0.0,98,0.09,,---,0.47,VWS V14.01,2013-08-06 10:20:00,
2013-08-06 06:21:00,62.7,62.1,29.79,NNE,20,0.0,0.0,98,0.09,,---,0.47,VWS V14.01,2013-08-06 10:21:00,
2013-08-06 06:22:00,62.7,62.1,29.79,NNE,20,0.0,0.0,98,0.09,,---,0.47,VWS V14.01,2013-08-06 10:22:00,
2013-08-06 06:23:00,62.7,62.1,29.79,NNE,20,0.0,0.0,98,0.09,,---,0.47,VWS V14.01,2013-08-06 10:23:00,
2013-08-06 06:24:00,62.7,62.1,29.79,NNE,20,0.0,0.0,98,0.09,,---,0.47,VWS V14.01,2013-08-06 10:24:00,
2013-08-06 06:25:00,62.7,62.1,29.79,NNE,20,0.0,0.0,98,0.09,,---,0.47,VWS V14.01,2013-08-06 10:25:00,
2013-08-06 06:26:00,62.7,62.1,29.79,NNE,18,0.0,0.0,98,0.09,,---,0.48,VWS V14.01,2013-08-06 10:26:00,
2013-08-06 06:27:00,62.7,62.1,29.79,NNE,18,0.0,0.0,98,0.09,,---,0.48,VWS V14.01,2013-08-06 10:27:00,
2013-08-06 06:28:00,62.7,62.1,29.79,NNE,18,0.0,0.0,98,0.09,,---,0.48,VWS V14.01,2013-08-06 10:28:00,
2013-08-06 06:29:00,62.7,62.1,29.79,NNE,18,0.0,0.0,98,0.09,,---,0.48,VWS V14.01,2013-08-06 10:29:00,
2013-08-06 06:30:00,62.7,62.1,29.79,NNE,18,0.0,0.0,98,0.10,,---,0.49,VWS V14.01,2013-08-06 10:30:00,
2013-08-06 06:31:00,62.7,62.1,29.79,NNE,17,0.0,0.0,98,0.10,,---,0.49,VWS V14.01,2013-08-06 10:31:00,
2013-08-06 06:32:00,62.7,62.1,29.79,NNE,17,0.0,0.0,98,0.10,,---,0.49,VWS V14.01,2013-08-06 10:32:00,
2013-08-06 06:33:00,62.7,62.1,29.79,NNE,17,0.0,0.0,98,0.10,,---,0.49,VWS V14.01,2013-08-06 10:33:00,
2013-08-06 06:34:00,62.7,62.1,29.79,NNE,17,0.0,0.0,98,0.10,,---,0.49,VWS V14.01,2013-08-06 10:34:00,
2013-08-06 06:35:00,62.6,62.0,29.79,NNE,16,0.0,0.0,98,0.11,,---,0.50,VWS V14.01,2013-08-06 10:35:00,
2013-08-06 06:36:00,62.6,62.0,29.79,NNE,13,0.0,0.0,98,0.11,,---,0.50,VWS V14.01,2013-08-06 10:36:00,
2013-08-06 06:37:00,62.6,62.0,29.79,NNE,13,0.0,0.0,98,0.11,,---,0.50,VWS V14.01,2013-08-06 10:37:00,
2013-08-06 06:38:00,62.6,62.0,29.79,NNE,13,0.0,0.0,98,0.11,,---,0.50,VWS V14.01,2013-08-06 10:38:00,
2013-08-06 06:39:00,62.6,62.0,29.79,NNE,13,0.0,0.0,98,0.12,,---,0.51,VWS V14.01,2013-08-06 10:39:00,
2013-08-06 06:40:00,62.6,62.0,29.79,NNE,12,0.0,0.0,98,0.13,,---,0.52,VWS V14.01,2013-08-06 10:40:00,
2013-08-06 06:41:00,62.6,62.0,29.79,NNE,12,0.0,0.0,98,0.12,,---,0.52,VWS V14.01,2013-08-06 10:41:00,
2013-08-06 06:42:00,62.6,62.0,29.79,North,11,0.0,0.0,98,0.13,,---,0.53,VWS V14.01,2013-08-06 10:42:00,
2013-08-06 06:43:00,62.6,62.0,29.79,North,11,0.0,0.0,98,0.13,,---,0.53,VWS V14.01,2013-08-06 10:43:00,
2013-08-06 06:44:00,62.6,62.0,29.79,North,11,0.0,0.0,98,0.14,,---,0.54,VWS V14.01,2013-08-06 10:44:00,
2013-08-06 06:45:00,62.6,62.0,29.80,North,11,0.0,0.0,98,0.14,,---,0.54,VWS V14.01,2013-08-06 10:45:00,
2013-08-06 06:46:00,62.6,62.0,29.80,North,11,0.0,0.0,98,0.11,,---,0.54,VWS V14.01,2013-08-06 10:46:00,
2013-08-06 06:47:00,62.6,62.0,29.80,North,11,0.0,0.0,98,0.11,,---,0.54,VWS V14.01,2013-08-06 10:47:00,
2013-08-06 06:48:00,62.5,61.9,29.80,North,11,0.0,0.0,98,0.11,,---,0.54,VWS V14.01,2013-08-06 10:48:00,
2013-08-06 06:49:00,62.5,61.9,29.80,North,11,0.0,0.0,98,0.11,,---,0.54,VWS V14.01,2013-08-06 10:49:00,
2013-08-06 06:50:00,62.6,62.0,29.80,North,11,0.0,0.0,98,0.11,,---,0.54,VWS V14.01,2013-08-06 10:50:00,
2013-08-06 06:51:00,62.5,61.9,29.80,North,11,0.0,0.0,98,0.11,,---,0.54,VWS V14.01,2013-08-06 10:51:00,
2013-08-06 06:52:00,62.5,61.9,29.80,North,11,0.0,0.0,98,0.11,,---,0.54,VWS V14.01,2013-08-06 10:52:00,
2013-08-06 06:53:00,62.5,61.9,29.80,North,11,0.0,0.0,98,0.11,,---,0.54,VWS V14.01,2013-08-06 10:53:00,
2013-08-06 06:54:00,62.5,61.9,29.80,North,11,0.0,0.0,98,0.11,,---,0.54,VWS V14.01,2013-08-06 10:54:00,
2013-08-06 06:55:00,62.5,61.9,29.80,North,11,0.0,0.0,98,0.11,,---,0.54,VWS V14.01,2013-08-06 10:55:00,
2013-08-06 06:56:00,62.5,61.9,29.80,North,11,0.0,0.0,98,0.11,,---,0.54,VWS V14.01,2013-08-06 10:56:00,
2013-08-06 06:57:00,62.5,61.9,29.80,North,11,0.0,0.0,98,0.11,,---,0.54,VWS V14.01,2013-08-06 10:57:00,
2013-08-06 06:58:00,62.5,61.9,29.80,North,11,0.0,0.0,98,0.12,,---,0.55,VWS V14.01,2013-08-06 10:58:00,
2013-08-06 06:59:00,62.5,61.9,29.80,North,11,0.0,0.0,98,0.12,,---,0.55,VWS V14.01,2013-08-06 10:59:00,
2013-08-06 07:00:00,62.5,61.9,29.80,North,11,0.0,0.0,98,0.13,,---,0.56,VWS V14.01,2013-08-06 11:00:00,
2013-08-06 07:01:00,62.5,61.9,29.80,North,11,0.0,0.0,98,0.13,,---,0.56,VWS V14.01,2013-08-06 11:01:00,
2013-08-06 07:02:00,62.5,61.9,29.80,North,11,0.0,0.0,98,0.13,,---,0.56,VWS V14.01,2013-08-06 11:02:00,
2013-08-06 07:03:00,62.5,61.9,29.80,North,11,0.0,0.0,98,0.13,,---,0.56,VWS V14.01,2013-08-06 11:03:00,
2013-08-06 07:04:00,62.6,62.0,29.80,North,11,0.0,0.0,98,0.13,,---,0.56,VWS V14.01,2013-08-06 11:04:00,
2013-08-06 07:05:00,62.5,61.9,29.80,North,11,0.0,0.0,98,0.13,,---,0.56,VWS V14.01,2013-08-06 11:05:00,
2013-08-06 07:06:00,62.6,62.0,29.80,North,11,0.0,0.0,98,0.12,,---,0.56,VWS V14.01,2013-08-06 11:06:00,
2013-08-06 07:07:00,62.6,62.0,29.80,North,11,0.0,0.0,98,0.13,,---,0.57,VWS V14.01,2013-08-06 11:07:00,
2013-08-06 07:08:00,62.6,62.0,29.80,North,11,0.0,0.0,98,0.13,,---,0.57,VWS V14.01,2013-08-06 11:08:00,
2013-08-06 07:09:00,62.6,62.0,29.80,North,11,0.0,0.0,98,0.13,,---,0.57,VWS V14.01,2013-08-06 11:09:00,
2013-08-06 07:10:00,62.6,62.0,29.80,North,11,0.0,0.0,98,0.13,,---,0.57,VWS V14.01,2013-08-06 11:10:00,
2013-08-06 07:11:00,62.6,62.0,29.80,North,11,0.0,0.0,98,0.12,,---,0.57,VWS V14.01,2013-08-06 11:11:00,
2013-08-06 07:12:00,62.6,62.0,29.80,North,11,0.0,0.0,98,0.12,,---,0.57,VWS V14.01,2013-08-06 11:12:00,
2013-08-06 07:13:00,62.6,62.0,29.80,North,11,0.0,0.0,98,0.12,,---,0.57,VWS V14.01,2013-08-06 11:13:00,
2013-08-06 07:14:00,62.6,62.0,29.80,North,11,0.0,0.0,98,0.12,,---,0.57,VWS V14.01,2013-08-06 11:14:00,
2013-08-06 07:15:00,62.6,62.0,29.80,North,11,0.0,0.0,98,0.12,,---,0.57,VWS V14.01,2013-08-06 11:15:00,
2013-08-06 07:16:00,62.6,62.0,29.80,North,11,0.0,0.0,98,0.11,,---,0.57,VWS V14.01,2013-08-06 11:16:00,
2013-08-06 07:17:00,62.6,62.0,29.80,North,11,0.0,0.0,98,0.11,,---,0.57,VWS V14.01,2013-08-06 11:17:00,
2013-08-06 07:18:00,62.6,62.0,29.80,North,11,0.0,0.0,98,0.11,,---,0.57,VWS V14.01,2013-08-06 11:18:00,
2013-08-06 07:19:00,62.6,62.0,29.80,North,11,0.0,0.0,98,0.11,,---,0.57,VWS V14.01,2013-08-06 11:19:00,
2013-08-06 07:20:00,62.6,62.0,29.80,North,11,0.0,0.0,98,0.11,,---,0.57,VWS V14.01,2013-08-06 11:20:00,
2013-08-06 07:21:00,62.6,62.0,29.80,North,11,0.0,0.0,98,0.10,,---,0.57,VWS V14.01,2013-08-06 11:21:00,
2013-08-06 07:22:00,62.6,62.0,29.80,North,11,0.0,0.0,98,0.10,,---,0.57,VWS V14.01,2013-08-06 11:22:00,
2013-08-06 07:23:00,62.7,62.1,29.80,North,11,0.0,0.0,98,0.10,,---,0.57,VWS V14.01,2013-08-06 11:23:00,
2013-08-06 07:24:00,62.6,62.0,29.80,North,11,0.0,0.0,98,0.10,,---,0.57,VWS V14.01,2013-08-06 11:24:00,
2013-08-06 07:25:00,62.6,62.0,29.80,North,11,0.0,0.0,98,0.10,,---,0.57,VWS V14.01,2013-08-06 11:25:00,
2013-08-06 07:26:00,62.6,62.0,29.80,North,11,0.0,0.0,98,0.10,,---,0.57,VWS V14.01,2013-08-06 11:26:00,
2013-08-06 07:27:00,62.6,62.0,29.80,North,11,0.0,0.0,98,0.10,,---,0.57,VWS V14.01,2013-08-06 11:27:00,
2013-08-06 07:28:00,62.7,62.1,29.80,North,11,0.0,0.0,98,0.10,,---,0.57,VWS V14.01,2013-08-06 11:28:00,
2013-08-06 07:29:00,62.7,62.1,29.80,North,11,0.0,0.0,98,0.10,,---,0.57,VWS V14.01,2013-08-06 11:29:00,
2013-08-06 07:30:00,62.7,62.1,29.80,North,11,0.0,0.0,98,0.10,,---,0.57,VWS V14.01,2013-08-06 11:30:00,
2013-08-06 07:31:00,62.7,62.1,29.80,North,11,0.0,0.0,98,0.08,,---,0.57,VWS V14.01,2013-08-06 11:31:00,
2013-08-06 07:32:00,62.7,62.1,29.80,North,11,0.0,0.0,98,0.08,,---,0.57,VWS V14.01,2013-08-06 11:32:00,
2013-08-06 07:33:00,62.7,62.1,29.80,North,11,0.0,0.0,98,0.08,,---,0.57,VWS V14.01,2013-08-06 11:33:00,
2013-08-06 07:34:00,62.7,62.1,29.80,North,11,0.0,0.0,98,0.08,,---,0.57,VWS V14.01,2013-08-06 11:34:00,
2013-08-06 07:35:00,62.7,62.1,29.80,North,11,0.0,0.0,98,0.08,,---,0.57,VWS V14.01,2013-08-06 11:35:00,
2013-08-06 07:36:00,62.7,62.1,29.80,North,11,0.0,0.0,98,0.07,,---,0.57,VWS V14.01,2013-08-06 11:36:00,
2013-08-06 07:37:00,62.7,62.1,29.80,North,11,0.0,0.0,98,0.07,,---,0.57,VWS V14.01,2013-08-06 11:37:00,
2013-08-06 07:38:00,62.7,62.1,29.80,North,11,0.0,0.0,98,0.07,,---,0.57,VWS V14.01,2013-08-06 11:38:00,
2013-08-06 07:39:00,62.7,62.1,29.80,North,11,0.0,0.0,98,0.07,,---,0.57,VWS V14.01,2013-08-06 11:39:00,
2013-08-06 07:40:00,62.7,62.1,29.80,North,11,0.0,0.0,98,0.07,,---,0.57,VWS V14.01,2013-08-06 11:40:00,
2013-08-06 07:41:00,62.7,62.1,29.80,North,11,0.0,0.0,98,0.05,,---,0.57,VWS V14.01,2013-08-06 11:41:00,
2013-08-06 07:42:00,62.7,62.1,29.80,North,11,0.0,0.0,98,0.05,,---,0.57,VWS V14.01,2013-08-06 11:42:00,
2013-08-06 07:43:00,62.7,62.1,29.80,North,11,0.0,0.0,98,0.05,,---,0.57,VWS V14.01,2013-08-06 11:43:00,
2013-08-06 07:44:00,62.7,62.1,29.80,North,11,0.0,0.0,98,0.05,,---,0.57,VWS V14.01,2013-08-06 11:44:00,
2013-08-06 07:45:00,62.7,62.1,29.81,North,11,0.0,0.0,98,0.05,,---,0.57,VWS V14.01,2013-08-06 11:45:00,
2013-08-06 07:46:00,62.7,62.1,29.81,North,11,0.0,0.0,98,0.03,,---,0.57,VWS V14.01,2013-08-06 11:46:00,
2013-08-06 07:47:00,62.7,62.1,29.81,North,11,0.0,0.0,98,0.03,,---,0.57,VWS V14.01,2013-08-06 11:47:00,
2013-08-06 07:48:00,62.7,62.1,29.81,North,11,0.0,0.0,98,0.03,,---,0.57,VWS V14.01,2013-08-06 11:48:00,
2013-08-06 07:49:00,62.7,62.1,29.81,North,11,0.0,0.0,98,0.03,,---,0.57,VWS V14.01,2013-08-06 11:49:00,
2013-08-06 07:50:00,62.7,62.1,29.81,North,11,0.0,0.0,98,0.03,,---,0.57,VWS V14.01,2013-08-06 11:50:00,
2013-08-06 07:51:00,62.7,62.1,29.81,North,11,0.0,0.0,98,0.03,,---,0.57,VWS V14.01,2013-08-06 11:51:00,
2013-08-06 07:52:00,62.7,62.1,29.81,North,11,0.0,0.0,98,0.03,,---,0.57,VWS V14.01,2013-08-06 11:52:00,
2013-08-06 07:53:00,62.8,62.2,29.81,North,11,0.0,0.0,98,0.03,,---,0.57,VWS V14.01,2013-08-06 11:53:00,
2013-08-06 07:54:00,62.8,62.2,29.81,North,11,0.0,0.0,98,0.03,,---,0.57,VWS V14.01,2013-08-06 11:54:00,
2013-08-06 07:55:00,62.8,62.2,29.81,North,11,0.0,0.0,98,0.03,,---,0.57,VWS V14.01,2013-08-06 11:55:00,
2013-08-06 07:56:00,62.8,62.2,29.81,North,11,0.0,0.0,98,0.03,,---,0.57,VWS V14.01,2013-08-06 11:56:00,
2013-08-06 07:57:00,62.8,62.2,29.81,North,11,0.0,0.0,98,0.03,,---,0.57,VWS V14.01,2013-08-06 11:57:00,
2013-08-06 07:58:00,62.8,62.2,29.81,North,11,0.0,0.0,98,0.03,,---,0.57,VWS V14.01,2013-08-06 11:58:00,
2013-08-06 07:59:00,62.8,62.2,29.81,North,11,0.0,0.0,98,0.03,,---,0.57,VWS V14.01,2013-08-06 11:59:00,
2013-08-06 08:00:00,62.8,62.2,29.82,North,11,0.0,0.0,98,0.03,,---,0.57,VWS V14.01,2013-08-06 12:00:00,
2013-08-06 08:01:00,62.8,62.2,29.82,North,11,0.0,0.0,98,0.01,,---,0.57,VWS V14.01,2013-08-06 12:01:00,
2013-08-06 08:02:00,62.8,62.2,29.82,North,11,0.0,0.0,98,0.01,,---,0.57,VWS V14.01,2013-08-06 12:02:00,
2013-08-06 08:03:00,62.8,62.2,29.82,North,11,0.0,0.0,98,0.01,,---,0.57,VWS V14.01,2013-08-06 12:03:00,
2013-08-06 08:04:00,62.8,62.2,29.82,North,11,0.0,0.0,98,0.01,,---,0.57,VWS V14.01,2013-08-06 12:04:00,
2013-08-06 08:05:00,62.8,62.2,29.82,North,11,0.0,0.0,98,0.01,,---,0.57,VWS V14.01,2013-08-06 12:05:00,
2013-08-06 08:06:00,62.9,62.3,29.82,North,11,0.0,0.0,98,0.01,,---,0.57,VWS V14.01,2013-08-06 12:06:00,
2013-08-06 08:07:00,62.9,62.3,29.82,North,11,0.0,0.0,98,0.01,,---,0.57,VWS V14.01,2013-08-06 12:07:00,
2013-08-06 08:08:00,62.9,62.3,29.82,North,11,0.0,0.0,98,0.01,,---,0.57,VWS V14.01,2013-08-06 12:08:00,
2013-08-06 08:09:00,62.9,62.3,29.82,North,11,0.0,0.0,98,0.01,,---,0.57,VWS V14.01,2013-08-06 12:09:00,
2013-08-06 08:10:00,62.9,62.3,29.82,North,11,0.0,0.0,98,0.01,,---,0.57,VWS V14.01,2013-08-06 12:10:00,
2013-08-06 08:11:00,62.9,62.3,29.82,North,11,0.0,0.0,98,0.00,,---,0.57,VWS V14.01,2013-08-06 12:11:00,
2013-08-06 08:12:00,62.9,62.3,29.82,North,11,0.0,0.0,98,0.00,,---,0.57,VWS V14.01,2013-08-06 12:12:00,
2013-08-06 08:13:00,63.0,62.4,29.82,North,11,0.0,0.0,98,0.00,,---,0.57,VWS V14.01,2013-08-06 12:13:00,
2013-08-06 08:14:00,63.0,62.4,29.82,North,11,0.0,0.0,98,0.00,,---,0.57,VWS V14.01,2013-08-06 12:14:00,
2013-08-06 08:15:00,63.0,62.4,29.82,North,11,0.0,0.0,98,0.00,,---,0.57,VWS V14.01,2013-08-06 12:15:00,
2013-08-06 08:16:00,63.0,62.4,29.82,North,11,0.0,0.0,98,0.00,,---,0.57,VWS V14.01,2013-08-06 12:16:00,
2013-08-06 08:17:00,63.0,62.4,29.82,North,11,0.0,0.0,98,0.01,,---,0.58,VWS V14.01,2013-08-06 12:17:00,
2013-08-06 08:18:00,63.1,62.5,29.82,North,11,0.0,0.0,98,0.01,,---,0.58,VWS V14.01,2013-08-06 12:18:00,
2013-08-06 08:19:00,63.1,62.5,29.82,North,11,0.0,0.0,98,0.02,,---,0.59,VWS V14.01,2013-08-06 12:19:00,
2013-08-06 08:20:00,63.1,62.5,29.82,North,11,0.0,0.0,98,0.02,,---,0.59,VWS V14.01,2013-08-06 12:20:00,
2013-08-06 08:21:00,63.1,62.5,29.82,North,11,0.0,0.0,98,0.02,,---,0.59,VWS V14.01,2013-08-06 12:21:00,
2013-08-06 08:22:00,63.1,62.5,29.82,North,11,0.0,0.0,98,0.03,,---,0.60,VWS V14.01,2013-08-06 12:22:00,
2013-08-06 08:23:00,63.2,62.6,29.82,North,11,0.0,0.0,98,0.03,,---,0.60,VWS V14.01,2013-08-06 12:23:00,
2013-08-06 08:24:00,63.2,62.6,29.82,North,11,0.0,0.0,98,0.03,,---,0.60,VWS V14.01,2013-08-06 12:24:00,
2013-08-06 08:25:00,63.2,62.6,29.82,North,11,0.0,0.0,98,0.03,,---,0.60,VWS V14.01,2013-08-06 12:25:00,
2013-08-06 08:26:00,63.2,62.6,29.82,North,11,0.0,0.0,98,0.03,,---,0.60,VWS V14.01,2013-08-06 12:26:00,
2013-08-06 08:27:00,63.2,62.6,29.82,North,11,0.0,0.0,98,0.03,,---,0.60,VWS V14.01,2013-08-06 12:27:00,
2013-08-06 08:28:00,63.2,62.6,29.82,North,11,0.0,0.0,98,0.03,,---,0.60,VWS V14.01,2013-08-06 12:28:00,
2013-08-06 08:29:00,63.2,62.6,29.82,North,11,0.0,0.0,98,0.03,,---,0.60,VWS V14.01,2013-08-06 12:29:00,
2013-08-06 08:30:00,63.2,62.6,29.82,North,11,0.0,0.0,98,0.03,,---,0.60,VWS V14.01,2013-08-06 12:30:00,
2013-08-06 08:31:00,63.2,62.6,29.82,North,11,0.0,0.0,98,0.03,,---,0.60,VWS V14.01,2013-08-06 12:31:00,
2013-08-06 08:32:00,63.3,62.7,29.82,North,11,0.0,0.0,98,0.03,,---,0.60,VWS V14.01,2013-08-06 12:32:00,
2013-08-06 08:33:00,63.3,62.7,29.82,North,11,0.0,0.0,98,0.03,,---,0.60,VWS V14.01,2013-08-06 12:33:00,
2013-08-06 08:34:00,63.3,62.7,29.82,North,11,0.0,0.0,98,0.03,,---,0.60,VWS V14.01,2013-08-06 12:34:00,
2013-08-06 08:35:00,63.3,62.7,29.82,North,11,0.0,0.0,98,0.03,,---,0.60,VWS V14.01,2013-08-06 12:35:00,
2013-08-06 08:36:00,63.3,62.7,29.82,North,11,0.0,0.0,98,0.03,,---,0.60,VWS V14.01,2013-08-06 12:36:00,
2013-08-06 08:37:00,63.3,62.7,29.82,North,11,0.0,0.0,98,0.03,,---,0.60,VWS V14.01,2013-08-06 12:37:00,
2013-08-06 08:38:00,63.4,62.8,29.82,North,11,0.0,0.0,98,0.03,,---,0.60,VWS V14.01,2013-08-06 12:38:00,
2013-08-06 08:39:00,63.4,62.8,29.82,North,11,0.0,0.0,98,0.03,,---,0.60,VWS V14.01,2013-08-06 12:39:00,
2013-08-06 08:40:00,63.4,62.8,29.82,North,11,0.0,0.0,98,0.03,,---,0.60,VWS V14.01,2013-08-06 12:40:00,
2013-08-06 08:41:00,63.4,62.8,29.82,North,11,0.0,0.0,98,0.03,,---,0.60,VWS V14.01,2013-08-06 12:41:00,
2013-08-06 08:42:00,63.4,62.8,29.82,North,11,0.0,0.0,98,0.03,,---,0.60,VWS V14.01,2013-08-06 12:42:00,
2013-08-06 08:43:00,63.4,62.8,29.82,North,11,0.0,0.0,98,0.03,,---,0.60,VWS V14.01,2013-08-06 12:43:00,
2013-08-06 08:44:00,63.5,63.2,29.82,North,11,0.0,0.0,99,0.03,,---,0.60,VWS V14.01,2013-08-06 12:44:00,
2013-08-06 08:45:00,63.5,63.2,29.81,North,11,0.0,0.0,99,0.03,,---,0.60,VWS V14.01,2013-08-06 12:45:00,
2013-08-06 08:46:00,63.6,63.3,29.81,North,11,0.0,0.0,99,0.03,,---,0.60,VWS V14.01,2013-08-06 12:46:00,
2013-08-06 08:47:00,63.6,63.3,29.81,North,11,0.0,0.0,99,0.03,,---,0.60,VWS V14.01,2013-08-06 12:47:00,
2013-08-06 08:48:00,63.8,63.5,29.81,North,11,0.0,0.0,99,0.03,,---,0.60,VWS V14.01,2013-08-06 12:48:00,
2013-08-06 08:49:00,64.0,63.7,29.81,North,11,0.0,0.0,99,0.03,,---,0.60,VWS V14.01,2013-08-06 12:49:00,
2013-08-06 08:50:00,64.2,63.9,29.81,North,11,0.0,0.0,99,0.03,,---,0.60,VWS V14.01,2013-08-06 12:50:00,
2013-08-06 08:51:00,64.3,64.0,29.81,North,11,0.0,0.0,99,0.03,,---,0.60,VWS V14.01,2013-08-06 12:51:00,
2013-08-06 08:52:00,64.4,64.1,29.81,North,11,0.0,0.0,99,0.03,,---,0.60,VWS V14.01,2013-08-06 12:52:00,
2013-08-06 08:53:00,64.5,64.2,29.81,North,11,0.0,0.0,99,0.03,,---,0.60,VWS V14.01,2013-08-06 12:53:00,
2013-08-06 08:54:00,64.6,64.3,29.81,North,11,0.0,0.0,99,0.03,,---,0.60,VWS V14.01,2013-08-06 12:54:00,
2013-08-06 08:55:00,64.6,64.3,29.81,North,11,0.0,0.0,99,0.03,,---,0.60,VWS V14.01,2013-08-06 12:55:00,
2013-08-06 08:56:00,64.6,64.3,29.81,North,11,0.0,0.0,99,0.03,,---,0.60,VWS V14.01,2013-08-06 12:56:00,
2013-08-06 08:57:00,64.6,64.3,29.81,North,11,0.0,0.0,99,0.03,,---,0.60,VWS V14.01,2013-08-06 12:57:00,
2013-08-06 08:58:00,64.6,64.3,29.81,North,11,0.0,0.0,99,0.03,,---,0.60,VWS V14.01,2013-08-06 12:58:00,
2013-08-06 08:59:00,64.6,64.3,29.81,North,11,0.0,0.0,99,0.03,,---,0.60,VWS V14.01,2013-08-06 12:59:00,
2013-08-06 09:00:00,64.6,64.3,29.80,North,11,0.0,0.0,99,0.03,,---,0.60,VWS V14.01,2013-08-06 13:00:00,
2013-08-06 09:01:00,64.6,64.3,29.80,North,11,0.0,0.0,99,0.03,,---,0.60,VWS V14.01,2013-08-06 13:01:00,
2013-08-06 09:02:00,64.6,64.3,29.80,North,11,0.0,0.0,99,0.03,,---,0.60,VWS V14.01,2013-08-06 13:02:00,
2013-08-06 09:03:00,64.6,64.3,29.80,North,11,0.0,0.0,99,0.03,,---,0.60,VWS V14.01,2013-08-06 13:03:00,
2013-08-06 09:04:00,64.6,64.3,29.80,North,11,0.0,0.0,99,0.03,,---,0.60,VWS V14.01,2013-08-06 13:04:00,
2013-08-06 09:05:00,64.6,64.0,29.80,North,11,0.0,0.0,98,0.03,,---,0.60,VWS V14.01,2013-08-06 13:05:00,
2013-08-06 09:06:00,64.6,64.0,29.80,North,11,0.0,0.0,98,0.03,,---,0.60,VWS V14.01,2013-08-06 13:06:00,
2013-08-06 09:07:00,64.6,64.0,29.80,North,11,0.0,0.0,98,0.03,,---,0.60,VWS V14.01,2013-08-06 13:07:00,
2013-08-06 09:08:00,64.7,64.1,29.80,North,11,0.0,0.0,98,0.03,,---,0.60,VWS V14.01,2013-08-06 13:08:00,
2013-08-06 09:09:00,64.7,64.1,29.80,North,11,0.0,0.0,98,0.03,,---,0.60,VWS V14.01,2013-08-06 13:09:00,
2013-08-06 09:10:00,64.9,64.6,29.80,North,11,0.0,0.0,99,0.03,,---,0.60,VWS V14.01,2013-08-06 13:10:00,
2013-08-06 09:11:00,65.0,64.7,29.80,North,11,0.0,0.0,99,0.03,,---,0.60,VWS V14.01,2013-08-06 13:11:00,
2013-08-06 09:12:00,65.1,64.8,29.80,North,11,0.0,0.0,99,0.03,,---,0.60,VWS V14.01,2013-08-06 13:12:00,
2013-08-06 09:13:00,65.2,64.9,29.80,North,11,0.0,0.0,99,0.03,,---,0.60,VWS V14.01,2013-08-06 13:13:00,
2013-08-06 09:14:00,65.3,65.0,29.80,North,11,0.0,0.0,99,0.03,,---,0.60,VWS V14.01,2013-08-06 13:14:00,
2013-08-06 09:15:00,65.4,65.1,29.81,North,11,0.0,0.0,99,0.03,,---,0.60,VWS V14.01,2013-08-06 13:15:00,
2013-08-06 09:16:00,65.4,65.1,29.81,North,11,0.0,0.0,99,0.03,,---,0.60,VWS V14.01,2013-08-06 13:16:00,
2013-08-06 09:17:00,65.4,65.1,29.81,North,11,0.0,0.0,99,0.03,,---,0.60,VWS V14.01,2013-08-06 13:17:00,
2013-08-06 09:18:00,65.4,65.1,29.81,North,11,0.0,0.0,99,0.03,,---,0.60,VWS V14.01,2013-08-06 13:18:00,
2013-08-06 09:19:00,65.4,65.1,29.81,North,11,0.0,0.0,99,0.03,,---,0.60,VWS V14.01,2013-08-06 13:19:00,
2013-08-06 09:20:00,65.4,65.1,29.81,North,11,0.0,0.0,99,0.03,,---,0.60,VWS V14.01,2013-08-06 13:20:00,
2013-08-06 09:21:00,65.4,64.8,29.81,North,11,0.0,0.0,98,0.01,,---,0.60,VWS V14.01,2013-08-06 13:21:00,
2013-08-06 09:22:00,65.4,65.1,29.81,North,11,0.0,0.0,99,0.01,,---,0.60,VWS V14.01,2013-08-06 13:22:00,
2013-08-06 09:23:00,65.4,65.1,29.81,North,11,0.0,0.0,99,0.01,,---,0.60,VWS V14.01,2013-08-06 13:23:00,
2013-08-06 09:24:00,65.5,65.2,29.81,North,11,0.0,0.0,99,0.01,,---,0.60,VWS V14.01,2013-08-06 13:24:00,
2013-08-06 09:25:00,65.5,65.2,29.81,North,11,0.0,0.0,99,0.01,,---,0.60,VWS V14.01,2013-08-06 13:25:00,
2013-08-06 09:26:00,65.6,65.3,29.81,North,11,0.0,0.0,99,0.00,,---,0.60,VWS V14.01,2013-08-06 13:26:00,
2013-08-06 09:27:00,65.7,65.1,29.81,North,11,0.0,0.0,98,0.00,,---,0.60,VWS V14.01,2013-08-06 13:27:00,
2013-08-06 09:28:00,65.8,65.2,29.81,North,11,0.0,0.0,98,0.00,,---,0.60,VWS V14.01,2013-08-06 13:28:00,
2013-08-06 09:29:00,65.9,65.3,29.81,North,11,0.0,0.0,98,0.00,,---,0.60,VWS V14.01,2013-08-06 13:29:00,
2013-08-06 09:30:00,65.9,65.3,29.81,North,11,0.0,0.0,98,0.00,,---,0.60,VWS V14.01,2013-08-06 13:30:00,
2013-08-06 09:31:00,65.9,65.3,29.81,North,11,0.0,0.0,98,0.00,,---,0.60,VWS V14.01,2013-08-06 13:31:00,
2013-08-06 09:32:00,66.0,65.7,29.81,North,11,0.0,0.0,99,0.00,,---,0.60,VWS V14.01,2013-08-06 13:32:00,
2013-08-06 09:33:00,66.0,65.7,29.81,North,11,0.0,0.0,99,0.00,,---,0.60,VWS V14.01,2013-08-06 13:33:00,
2013-08-06 09:34:00,66.0,65.7,29.81,North,11,0.0,0.0,99,0.00,,---,0.60,VWS V14.01,2013-08-06 13:34:00,
2013-08-06 09:35:00,66.1,65.8,29.81,North,11,0.0,0.0,99,0.00,,---,0.60,VWS V14.01,2013-08-06 13:35:00,
2013-08-06 09:36:00,66.1,65.8,29.81,North,11,0.0,0.0,99,0.00,,---,0.60,VWS V14.01,2013-08-06 13:36:00,
2013-08-06 09:37:00,66.1,65.8,29.81,North,11,0.0,0.0,99,0.00,,---,0.60,VWS V14.01,2013-08-06 13:37:00,
2013-08-06 09:38:00,66.2,65.9,29.81,North,11,0.0,0.0,99,0.00,,---,0.60,VWS V14.01,2013-08-06 13:38:00,
2013-08-06 09:39:00,66.3,66.0,29.81,North,11,0.0,0.0,99,0.00,,---,0.60,VWS V14.01,2013-08-06 13:39:00,
2013-08-06 09:40:00,66.3,65.7,29.81,North,11,0.0,0.0,98,0.00,,---,0.60,VWS V14.01,2013-08-06 13:40:00,
2013-08-06 09:41:00,66.3,65.7,29.81,North,11,0.0,0.0,98,0.00,,---,0.60,VWS V14.01,2013-08-06 13:41:00,
2013-08-06 09:42:00,66.3,65.7,29.81,North,11,0.0,0.0,98,0.00,,---,0.60,VWS V14.01,2013-08-06 13:42:00,
2013-08-06 09:43:00,66.3,65.7,29.81,North,11,0.0,0.0,98,0.00,,---,0.60,VWS V14.01,2013-08-06 13:43:00,
2013-08-06 09:44:00,66.3,65.7,29.81,North,11,0.0,0.0,98,0.00,,---,0.60,VWS V14.01,2013-08-06 13:44:00,
2013-08-06 09:45:00,66.3,65.7,29.80,North,11,0.0,0.0,98,0.00,,---,0.60,VWS V14.01,2013-08-06 13:45:00,
2013-08-06 09:46:00,66.4,65.8,29.80,North,11,0.0,0.0,98,0.00,,---,0.60,VWS V14.01,2013-08-06 13:46:00,
2013-08-06 09:47:00,66.4,65.8,29.80,North,11,0.0,0.0,98,0.00,,---,0.60,VWS V14.01,2013-08-06 13:47:00,
2013-08-06 09:48:00,66.4,65.8,29.80,North,11,0.0,0.0,98,0.00,,---,0.60,VWS V14.01,2013-08-06 13:48:00,
2013-08-06 09:49:00,66.5,65.9,29.80,North,11,0.0,0.0,98,0.00,,---,0.60,VWS V14.01,2013-08-06 13:49:00,
2013-08-06 09:50:00,66.6,66.0,29.80,North,11,0.0,0.0,98,0.00,,---,0.60,VWS V14.01,2013-08-06 13:50:00,
2013-08-06 09:51:00,66.7,66.1,29.80,North,11,0.0,0.0,98,0.00,,---,0.60,VWS V14.01,2013-08-06 13:51:00,
2013-08-06 09:52:00,66.7,66.1,29.80,North,11,0.0,0.0,98,0.00,,---,0.60,VWS V14.01,2013-08-06 13:52:00,
2013-08-06 09:53:00,66.7,66.1,29.80,North,11,0.0,0.0,98,0.00,,---,0.60,VWS V14.01,2013-08-06 13:53:00,
2013-08-06 09:54:00,66.7,66.1,29.80,North,11,0.0,0.0,98,0.00,,---,0.60,VWS V14.01,2013-08-06 13:54:00,
2013-08-06 09:55:00,66.7,66.1,29.80,North,11,0.0,0.0,98,0.00,,---,0.60,VWS V14.01,2013-08-06 13:55:00,
2013-08-06 09:56:00,66.7,66.1,29.80,North,11,0.0,0.0,98,0.00,,---,0.60,VWS V14.01,2013-08-06 13:56:00,
2013-08-06 09:57:00,66.7,66.1,29.80,North,11,0.0,0.0,98,0.00,,---,0.60,VWS V14.01,2013-08-06 13:57:00,
2013-08-06 09:58:00,66.7,66.1,29.80,North,11,0.0,0.0,98,0.00,,---,0.60,VWS V14.01,2013-08-06 13:58:00,
2013-08-06 09:59:00,66.7,66.1,29.80,North,11,0.0,0.0,98,0.00,,---,0.60,VWS V14.01,2013-08-06 13:59:00,
2013-08-06 10:00:00,66.7,66.1,29.81,North,11,0.0,0.0,98,0.00,,---,0.60,VWS V14.01,2013-08-06 14:00:00,
2013-08-06 10:01:00,66.6,66.0,29.81,North,11,0.0,0.0,98,0.00,,---,0.60,VWS V14.01,2013-08-06 14:01:00,
2013-08-06 10:02:00,66.6,66.0,29.81,North,11,0.0,0.0,98,0.00,,---,0.60,VWS V14.01,2013-08-06 14:02:00,
2013-08-06 10:03:00,66.6,66.0,29.81,North,11,0.0,0.0,98,0.00,,---,0.60,VWS V14.01,2013-08-06 14:03:00,
2013-08-06 10:04:00,66.6,66.0,29.81,North,11,0.0,0.0,98,0.00,,---,0.60,VWS V14.01,2013-08-06 14:04:00,
2013-08-06 10:05:00,66.6,66.0,29.81,North,11,0.0,0.0,98,0.00,,---,0.60,VWS V14.01,2013-08-06 14:05:00,
2013-08-06 10:06:00,66.6,66.0,29.81,North,11,0.0,0.0,98,0.00,,---,0.60,VWS V14.01,2013-08-06 14:06:00,
2013-08-06 10:07:00,66.7,66.1,29.81,North,11,0.0,0.0,98,0.00,,---,0.60,VWS V14.01,2013-08-06 14:07:00,
2013-08-06 10:08:00,66.7,66.1,29.81,North,11,0.0,0.0,98,0.00,,---,0.60,VWS V14.01,2013-08-06 14:08:00,
2013-08-06 10:09:00,66.8,66.2,29.81,North,11,0.0,0.0,98,0.00,,---,0.60,VWS V14.01,2013-08-06 14:09:00,
2013-08-06 10:10:00,66.9,66.3,29.81,North,11,0.0,0.0,98,0.00,,---,0.60,VWS V14.01,2013-08-06 14:10:00,
2013-08-06 10:11:00,66.9,66.3,29.81,North,11,0.0,0.0,98,0.00,,---,0.60,VWS V14.01,2013-08-06 14:11:00,
2013-08-06 10:12:00,67.0,66.4,29.81,North,11,0.0,0.0,98,0.00,,---,0.60,VWS V14.01,2013-08-06 14:12:00,
2013-08-06 10:13:00,67.0,66.4,29.81,North,11,0.0,0.0,98,0.00,,---,0.60,VWS V14.01,2013-08-06 14:13:00,
2013-08-06 10:14:00,67.0,66.4,29.81,North,11,0.0,0.0,98,0.00,,---,0.60,VWS V14.01,2013-08-06 14:14:00,
2013-08-06 10:15:00,67.0,66.4,29.81,North,11,0.0,0.0,98,0.00,,---,0.60,VWS V14.01,2013-08-06 14:15:00,
2013-08-06 10:16:00,67.0,66.4,29.81,North,11,0.0,0.0,98,0.00,,---,0.60,VWS V14.01,2013-08-06 14:16:00,
2013-08-06 10:17:00,67.1,66.5,29.81,North,11,0.0,0.0,98,0.00,,---,0.60,VWS V14.01,2013-08-06 14:17:00,
2013-08-06 10:18:00,67.1,66.5,29.81,North,11,0.0,0.0,98,0.00,,---,0.60,VWS V14.01,2013-08-06 14:18:00,
2013-08-06 10:19:00,67.2,66.6,29.81,North,11,0.0,0.0,98,0.00,,---,0.60,VWS V14.01,2013-08-06 14:19:00,
2013-08-06 10:20:00,67.3,66.7,29.81,North,11,0.0,0.0,98,0.00,,---,0.60,VWS V14.01,2013-08-06 14:20:00,
2013-08-06 10:21:00,67.3,66.7,29.81,North,11,0.0,0.0,98,0.00,,---,0.60,VWS V14.01,2013-08-06 14:21:00,
2013-08-06 10:22:00,67.3,66.7,29.81,North,11,0.0,0.0,98,0.00,,---,0.60,VWS V14.01,2013-08-06 14:22:00,
2013-08-06 10:23:00,67.3,66.7,29.81,North,11,0.0,0.0,98,0.00,,---,0.60,VWS V14.01,2013-08-06 14:23:00,
2013-08-06 10:24:00,67.4,66.8,29.81,North,11,0.0,0.0,98,0.00,,---,0.60,VWS V14.01,2013-08-06 14:24:00,
2013-08-06 10:25:00,67.4,66.8,29.81,North,11,0.0,0.0,98,0.00,,---,0.60,VWS V14.01,2013-08-06 14:25:00,
2013-08-06 10:26:00,67.4,66.8,29.81,North,11,0.0,0.0,98,0.00,,---,0.60,VWS V14.01,2013-08-06 14:26:00,
2013-08-06 10:27:00,67.5,66.9,29.81,North,11,0.0,0.0,98,0.00,,---,0.60,VWS V14.01,2013-08-06 14:27:00,
2013-08-06 10:28:00,67.5,66.9,29.81,North,11,0.0,0.0,98,0.00,,---,0.60,VWS V14.01,2013-08-06 14:28:00,
2013-08-06 10:29:00,67.6,67.0,29.81,North,11,0.0,0.0,98,0.00,,---,0.60,VWS V14.01,2013-08-06 14:29:00,
2013-08-06 10:30:00,67.6,67.0,29.81,North,11,0.0,0.0,98,0.00,,---,0.60,VWS V14.01,2013-08-06 14:30:00,
2013-08-06 10:31:00,67.6,66.7,29.81,North,11,0.0,0.0,97,0.00,,---,0.60,VWS V14.01,2013-08-06 14:31:00,
2013-08-06 10:32:00,67.6,66.7,29.81,North,11,0.0,0.0,97,0.00,,---,0.60,VWS V14.01,2013-08-06 14:32:00,
2013-08-06 10:33:00,67.6,66.7,29.81,North,11,0.0,0.0,97,0.00,,---,0.60,VWS V14.01,2013-08-06 14:33:00,
2013-08-06 10:34:00,67.6,66.7,29.81,North,11,0.0,0.0,97,0.00,,---,0.60,VWS V14.01,2013-08-06 14:34:00,
2013-08-06 10:35:00,67.7,66.8,29.81,North,11,0.0,0.0,97,0.00,,---,0.60,VWS V14.01,2013-08-06 14:35:00,
2013-08-06 10:36:00,67.7,66.8,29.81,North,11,0.0,0.0,97,0.00,,---,0.60,VWS V14.01,2013-08-06 14:36:00,
2013-08-06 10:37:00,67.8,67.2,29.81,North,11,0.0,0.0,98,0.00,,---,0.60,VWS V14.01,2013-08-06 14:37:00,
2013-08-06 10:38:00,67.9,67.3,29.81,North,11,0.0,0.0,98,0.00,,---,0.60,VWS V14.01,2013-08-06 14:38:00,
2013-08-06 10:39:00,68.0,67.4,29.81,North,11,0.0,0.0,98,0.00,,---,0.60,VWS V14.01,2013-08-06 14:39:00,
2013-08-06 10:40:00,68.1,67.5,29.81,North,11,0.0,0.0,98,0.00,,---,0.60,VWS V14.01,2013-08-06 14:40:00,
2013-08-06 10:41:00,68.1,67.5,29.81,North,11,0.0,0.0,98,0.00,,---,0.60,VWS V14.01,2013-08-06 14:41:00,
2013-08-06 10:42:00,68.2,67.6,29.81,North,11,0.0,0.0,98,0.00,,---,0.60,VWS V14.01,2013-08-06 14:42:00,
2013-08-06 10:43:00,68.2,67.6,29.81,North,11,0.0,0.0,98,0.00,,---,0.60,VWS V14.01,2013-08-06 14:43:00,
2013-08-06 10:44:00,68.3,67.7,29.81,North,11,0.0,0.0,98,0.00,,---,0.60,VWS V14.01,2013-08-06 14:44:00,
2013-08-06 10:45:00,68.3,67.7,29.80,North,11,0.0,0.0,98,0.00,,---,0.60,VWS V14.01,2013-08-06 14:45:00,
2013-08-06 10:46:00,68.4,67.8,29.80,North,11,0.0,0.0,98,0.00,,---,0.60,VWS V14.01,2013-08-06 14:46:00,
2013-08-06 10:47:00,68.5,67.9,29.80,North,11,0.0,0.0,98,0.00,,---,0.60,VWS V14.01,2013-08-06 14:47:00,
2013-08-06 10:48:00,68.5,67.9,29.80,North,11,0.0,0.0,98,0.00,,---,0.60,VWS V14.01,2013-08-06 14:48:00,
2013-08-06 10:49:00,68.5,67.9,29.80,North,11,0.0,0.0,98,0.00,,---,0.60,VWS V14.01,2013-08-06 14:49:00,
2013-08-06 10:50:00,68.5,67.9,29.80,North,11,0.0,0.0,98,0.00,,---,0.60,VWS V14.01,2013-08-06 14:50:00,
2013-08-06 10:51:00,68.6,68.0,29.80,North,11,0.0,0.0,98,0.00,,---,0.60,VWS V14.01,2013-08-06 14:51:00,
2013-08-06 10:52:00,68.6,68.0,29.80,North,11,0.0,0.0,98,0.00,,---,0.60,VWS V14.01,2013-08-06 14:52:00,
2013-08-06 10:53:00,68.6,67.7,29.80,North,11,0.0,0.0,97,0.00,,---,0.60,VWS V14.01,2013-08-06 14:53:00,
2013-08-06 10:54:00,68.7,67.8,29.80,North,11,0.0,0.0,97,0.00,,---,0.60,VWS V14.01,2013-08-06 14:54:00,
2013-08-06 10:55:00,68.8,68.2,29.80,North,11,0.0,0.0,98,0.00,,---,0.60,VWS V14.01,2013-08-06 14:55:00,
2013-08-06 10:56:00,68.9,68.3,29.80,North,11,0.0,0.0,98,0.00,,---,0.60,VWS V14.01,2013-08-06 14:56:00,
2013-08-06 10:57:00,68.9,68.0,29.80,North,11,0.0,0.0,97,0.00,,---,0.60,VWS V14.01,2013-08-06 14:57:00,
2013-08-06 10:58:00,68.9,68.0,29.80,North,11,0.0,0.0,97,0.00,,---,0.60,VWS V14.01,2013-08-06 14:58:00,
2013-08-06 10:59:00,68.9,68.0,29.80,North,11,0.0,0.0,97,0.00,,---,0.60,VWS V14.01,2013-08-06 14:59:00,
2013-08-06 11:00:00,69.0,68.1,29.80,North,11,0.0,0.0,97,0.00,,---,0.60,VWS V14.01,2013-08-06 15:00:00,
2013-08-06 11:01:00,69.0,68.1,29.80,North,11,0.0,0.0,97,0.00,,---,0.60,VWS V14.01,2013-08-06 15:01:00,
2013-08-06 11:02:00,69.1,68.2,29.80,North,11,0.0,0.0,97,0.00,,---,0.60,VWS V14.01,2013-08-06 15:02:00,
2013-08-06 11:03:00,69.2,68.3,29.80,North,11,0.0,0.0,97,0.00,,---,0.60,VWS V14.01,2013-08-06 15:03:00,
2013-08-06 11:04:00,69.2,68.3,29.80,North,11,0.0,0.0,97,0.00,,---,0.60,VWS V14.01,2013-08-06 15:04:00,
2013-08-06 11:05:00,69.4,68.5,29.80,North,11,0.0,0.0,97,0.00,,---,0.60,VWS V14.01,2013-08-06 15:05:00,
2013-08-06 11:06:00,69.5,68.6,29.80,North,11,0.0,0.0,97,0.00,,---,0.60,VWS V14.01,2013-08-06 15:06:00,
2013-08-06 11:07:00,69.5,68.6,29.80,North,11,0.0,0.0,97,0.00,,---,0.60,VWS V14.01,2013-08-06 15:07:00,
2013-08-06 11:08:00,69.7,68.8,29.80,North,11,0.0,0.0,97,0.00,,---,0.60,VWS V14.01,2013-08-06 15:08:00,
2013-08-06 11:09:00,69.8,68.9,29.80,North,11,0.0,0.0,97,0.00,,---,0.60,VWS V14.01,2013-08-06 15:09:00,
2013-08-06 11:10:00,69.9,69.0,29.80,North,11,0.0,0.0,97,0.00,,---,0.60,VWS V14.01,2013-08-06 15:10:00,
2013-08-06 11:11:00,70.0,68.8,29.80,North,11,0.0,0.0,96,0.00,,---,0.60,VWS V14.01,2013-08-06 15:11:00,
2013-08-06 11:12:00,70.0,68.8,29.80,North,11,0.0,0.0,96,0.00,,---,0.60,VWS V14.01,2013-08-06 15:12:00,
2013-08-06 11:13:00,70.0,68.8,29.80,North,11,0.0,0.0,96,0.00,,---,0.60,VWS V14.01,2013-08-06 15:13:00,
2013-08-06 11:14:00,70.0,68.5,29.80,North,11,0.0,0.0,95,0.00,,---,0.60,VWS V14.01,2013-08-06 15:14:00,
2013-08-06 11:15:00,70.0,68.5,29.80,North,11,0.0,0.0,95,0.00,,---,0.60,VWS V14.01,2013-08-06 15:15:00,
2013-08-06 11:16:00,70.0,68.5,29.80,North,11,0.0,0.0,95,0.00,,---,0.60,VWS V14.01,2013-08-06 15:16:00,
2013-08-06 11:17:00,69.9,68.4,29.80,North,11,0.0,0.0,95,0.00,,---,0.60,VWS V14.01,2013-08-06 15:17:00,
2013-08-06 11:18:00,69.8,68.3,29.80,North,11,0.0,0.0,95,0.00,,---,0.60,VWS V14.01,2013-08-06 15:18:00,
2013-08-06 11:19:00,69.9,68.4,29.80,North,11,0.0,0.0,95,0.00,,---,0.60,VWS V14.01,2013-08-06 15:19:00,
2013-08-06 11:20:00,69.9,68.4,29.80,North,11,0.0,0.0,95,0.00,,---,0.60,VWS V14.01,2013-08-06 15:20:00,
2013-08-06 11:21:00,70.0,68.5,29.80,North,11,0.0,0.0,95,0.00,,---,0.60,VWS V14.01,2013-08-06 15:21:00,
2013-08-06 11:22:00,70.0,68.5,29.80,North,11,0.0,0.0,95,0.00,,---,0.60,VWS V14.01,2013-08-06 15:22:00,
2013-08-06 11:23:00,70.1,68.6,29.80,North,11,0.0,0.0,95,0.00,,---,0.60,VWS V14.01,2013-08-06 15:23:00,
2013-08-06 11:24:00,70.2,68.7,29.80,North,11,0.0,0.0,95,0.00,,---,0.60,VWS V14.01,2013-08-06 15:24:00,
2013-08-06 11:25:00,70.4,68.9,29.80,North,11,0.0,0.0,95,0.00,,---,0.60,VWS V14.01,2013-08-06 15:25:00,
2013-08-06 11:26:00,70.4,68.9,29.80,North,11,0.0,0.0,95,0.00,,---,0.60,VWS V14.01,2013-08-06 15:26:00,
2013-08-06 11:27:00,70.4,68.9,29.80,North,11,0.0,0.0,95,0.00,,---,0.60,VWS V14.01,2013-08-06 15:27:00,
2013-08-06 11:28:00,70.4,68.9,29.80,North,11,0.0,0.0,95,0.00,,---,0.60,VWS V14.01,2013-08-06 15:28:00,
2013-08-06 11:29:00,70.4,68.9,29.80,North,11,0.0,0.0,95,0.00,,---,0.60,VWS V14.01,2013-08-06 15:29:00,
2013-08-06 11:30:00,70.4,68.9,29.80,North,11,0.0,0.0,95,0.00,,---,0.60,VWS V14.01,2013-08-06 15:30:00,
2013-08-06 11:31:00,70.4,68.9,29.80,North,11,0.0,0.0,95,0.00,,---,0.60,VWS V14.01,2013-08-06 15:31:00,
2013-08-06 11:32:00,70.3,68.8,29.80,North,11,0.0,0.0,95,0.00,,---,0.60,VWS V14.01,2013-08-06 15:32:00,
2013-08-06 11:33:00,70.3,68.8,29.80,North,11,0.0,0.0,95,0.00,,---,0.60,VWS V14.01,2013-08-06 15:33:00,
2013-08-06 11:34:00,70.4,68.9,29.80,North,11,0.0,0.0,95,0.00,,---,0.60,VWS V14.01,2013-08-06 15:34:00,
2013-08-06 11:35:00,70.4,68.9,29.80,North,11,0.0,0.0,95,0.00,,---,0.60,VWS V14.01,2013-08-06 15:35:00,
2013-08-06 11:36:00,70.4,68.9,29.80,North,11,0.0,0.0,95,0.00,,---,0.60,VWS V14.01,2013-08-06 15:36:00,
2013-08-06 11:37:00,70.4,68.6,29.80,North,11,0.0,0.0,94,0.00,,---,0.60,VWS V14.01,2013-08-06 15:37:00,
2013-08-06 11:38:00,70.3,68.5,29.80,North,11,0.0,0.0,94,0.00,,---,0.60,VWS V14.01,2013-08-06 15:38:00,
2013-08-06 11:39:00,70.3,68.8,29.80,North,11,0.0,0.0,95,0.00,,---,0.60,VWS V14.01,2013-08-06 15:39:00,
2013-08-06 11:40:00,70.3,68.5,29.80,North,11,0.0,0.0,94,0.00,,---,0.60,VWS V14.01,2013-08-06 15:40:00,
2013-08-06 11:41:00,70.4,68.9,29.80,North,11,0.0,0.0,95,0.00,,---,0.60,VWS V14.01,2013-08-06 15:41:00,
2013-08-06 11:42:00,70.4,68.9,29.80,North,11,0.0,0.0,95,0.00,,---,0.60,VWS V14.01,2013-08-06 15:42:00,
2013-08-06 11:43:00,70.5,69.0,29.80,North,11,0.0,0.0,95,0.00,,---,0.60,VWS V14.01,2013-08-06 15:43:00,
2013-08-06 11:44:00,70.5,69.0,29.80,North,11,0.0,0.0,95,0.00,,---,0.60,VWS V14.01,2013-08-06 15:44:00,
2013-08-06 11:45:00,70.4,68.6,29.82,North,11,0.0,0.0,94,0.00,,---,0.60,VWS V14.01,2013-08-06 15:45:00,
2013-08-06 11:46:00,70.4,68.6,29.82,North,11,0.0,0.0,94,0.00,,---,0.60,VWS V14.01,2013-08-06 15:46:00,
2013-08-06 11:47:00,70.4,68.9,29.82,North,11,0.0,0.0,95,0.00,,---,0.60,VWS V14.01,2013-08-06 15:47:00,
2013-08-06 11:48:00,70.3,68.8,29.82,North,11,0.0,0.0,95,0.00,,---,0.60,VWS V14.01,2013-08-06 15:48:00,
2013-08-06 11:49:00,70.3,68.8,29.82,North,11,0.0,0.0,95,0.00,,---,0.60,VWS V14.01,2013-08-06 15:49:00,
2013-08-06 11:50:00,70.2,68.7,29.82,North,11,0.0,0.0,95,0.00,,---,0.60,VWS V14.01,2013-08-06 15:50:00,
2013-08-06 11:51:00,70.3,68.8,29.82,North,11,0.0,0.0,95,0.00,,---,0.60,VWS V14.01,2013-08-06 15:51:00,
2013-08-06 11:52:00,70.3,68.8,29.82,North,11,0.0,0.0,95,0.00,,---,0.60,VWS V14.01,2013-08-06 15:52:00,
2013-08-06 11:53:00,70.4,68.9,29.82,North,11,0.0,0.0,95,0.00,,---,0.60,VWS V14.01,2013-08-06 15:53:00,
2013-08-06 11:54:00,70.4,68.9,29.82,North,11,0.0,0.0,95,0.00,,---,0.60,VWS V14.01,2013-08-06 15:54:00,
2013-08-06 11:55:00,70.4,68.9,29.82,North,11,0.0,0.0,95,0.00,,---,0.60,VWS V14.01,2013-08-06 15:55:00,
2013-08-06 11:56:00,70.4,68.9,29.82,North,11,0.0,0.0,95,0.00,,---,0.60,VWS V14.01,2013-08-06 15:56:00,
2013-08-06 11:57:00,70.4,68.9,29.82,North,11,0.0,0.0,95,0.00,,---,0.60,VWS V14.01,2013-08-06 15:57:00,
2013-08-06 11:58:00,70.6,69.1,29.82,North,11,0.0,0.0,95,0.00,,---,0.60,VWS V14.01,2013-08-06 15:58:00,
2013-08-06 11:59:00,70.7,69.5,29.82,North,11,0.0,0.0,96,0.00,,---,0.60,VWS V14.01,2013-08-06 15:59:00,
2013-08-06 12:00:00,70.7,69.2,29.81,North,11,0.0,0.0,95,0.00,,---,0.60,VWS V14.01,2013-08-06 16:00:00,
2013-08-06 12:01:00,70.7,68.9,29.81,North,11,0.0,0.0,94,0.00,,---,0.60,VWS V14.01,2013-08-06 16:01:00,
2013-08-06 12:02:00,70.7,68.9,29.81,North,11,0.0,0.0,94,0.00,,---,0.60,VWS V14.01,2013-08-06 16:02:00,
2013-08-06 12:03:00,70.7,68.9,29.81,North,11,0.0,0.0,94,0.00,,---,0.60,VWS V14.01,2013-08-06 16:03:00,
2013-08-06 12:04:00,70.8,69.0,29.81,North,11,0.0,0.0,94,0.00,,---,0.60,VWS V14.01,2013-08-06 16:04:00,
2013-08-06 12:05:00,70.8,69.0,29.81,North,11,0.0,0.0,94,0.00,,---,0.60,VWS V14.01,2013-08-06 16:05:00,
2013-08-06 12:06:00,70.8,69.0,29.81,North,11,0.0,0.0,94,0.00,,---,0.60,VWS V14.01,2013-08-06 16:06:00,
2013-08-06 12:07:00,70.9,69.1,29.81,North,11,0.0,0.0,94,0.00,,---,0.60,VWS V14.01,2013-08-06 16:07:00,
2013-08-06 12:08:00,70.9,69.1,29.81,North,11,0.0,0.0,94,0.00,,---,0.60,VWS V14.01,2013-08-06 16:08:00,
2013-08-06 12:09:00,70.9,69.1,29.81,North,11,0.0,0.0,94,0.00,,---,0.60,VWS V14.01,2013-08-06 16:09:00,
2013-08-06 12:10:00,71.0,69.2,29.81,North,11,0.0,0.0,94,0.00,,---,0.60,VWS V14.01,2013-08-06 16:10:00,
2013-08-06 12:11:00,71.0,69.2,29.81,North,11,0.0,0.0,94,0.00,,---,0.60,VWS V14.01,2013-08-06 16:11:00,
2013-08-06 12:12:00,71.0,68.9,29.81,North,11,0.0,0.0,93,0.00,,---,0.60,VWS V14.01,2013-08-06 16:12:00,
2013-08-06 12:13:00,71.0,68.9,29.81,North,11,0.0,0.0,93,0.00,,---,0.60,VWS V14.01,2013-08-06 16:13:00,
2013-08-06 12:14:00,71.0,68.9,29.81,North,11,0.0,0.0,93,0.00,,---,0.60,VWS V14.01,2013-08-06 16:14:00,
2013-08-06 12:15:00,71.1,69.3,29.81,North,11,0.0,0.0,94,0.00,,---,0.60,VWS V14.01,2013-08-06 16:15:00,
2013-08-06 12:16:00,71.1,69.0,29.81,North,11,0.0,0.0,93,0.00,,---,0.60,VWS V14.01,2013-08-06 16:16:00,
2013-08-06 12:17:00,71.1,69.0,29.81,North,11,0.0,0.0,93,0.00,,---,0.60,VWS V14.01,2013-08-06 16:17:00,
2013-08-06 12:18:00,71.2,69.1,29.81,North,11,0.0,0.0,93,0.00,,---,0.60,VWS V14.01,2013-08-06 16:18:00,
2013-08-06 12:19:00,71.3,68.9,29.81,North,11,0.0,0.0,92,0.00,,---,0.60,VWS V14.01,2013-08-06 16:19:00,
2013-08-06 12:20:00,71.4,69.3,29.81,North,11,0.0,0.0,93,0.00,,---,0.60,VWS V14.01,2013-08-06 16:20:00,
2013-08-06 12:21:00,71.5,69.1,29.81,North,9,0.0,0.0,92,0.00,,---,0.60,VWS V14.01,2013-08-06 16:21:00,
2013-08-06 12:22:00,71.5,69.1,29.81,North,9,0.0,0.0,92,0.00,,---,0.60,VWS V14.01,2013-08-06 16:22:00,
2013-08-06 12:23:00,71.5,68.7,29.81,North,9,0.0,0.0,91,0.00,,---,0.60,VWS V14.01,2013-08-06 16:23:00,
2013-08-06 12:24:00,71.6,69.2,29.81,North,10,0.0,0.0,92,0.00,,---,0.60,VWS V14.01,2013-08-06 16:24:00,
2013-08-06 12:25:00,71.6,69.2,29.81,North,10,0.0,0.0,92,0.00,,---,0.60,VWS V14.01,2013-08-06 16:25:00,
2013-08-06 12:26:00,71.6,69.2,29.81,North,10,0.0,0.0,92,0.00,,---,0.60,VWS V14.01,2013-08-06 16:26:00,
2013-08-06 12:27:00,71.6,69.2,29.81,North,10,0.0,0.0,92,0.00,,---,0.60,VWS V14.01,2013-08-06 16:27:00,
2013-08-06 12:28:00,71.5,69.1,29.81,North,10,0.0,0.0,92,0.00,,---,0.60,VWS V14.01,2013-08-06 16:28:00,
2013-08-06 12:29:00,71.5,69.1,29.81,North,10,0.0,0.0,92,0.00,,---,0.60,VWS V14.01,2013-08-06 16:29:00,
2013-08-06 12:30:00,71.5,69.4,29.81,North,10,0.0,0.0,93,0.00,,---,0.60,VWS V14.01,2013-08-06 16:30:00,
2013-08-06 12:31:00,71.5,69.4,29.81,North,10,0.0,0.0,93,0.00,,---,0.60,VWS V14.01,2013-08-06 16:31:00,
2013-08-06 12:32:00,71.6,69.5,29.81,North,10,0.0,0.0,93,0.00,,---,0.60,VWS V14.01,2013-08-06 16:32:00,
2013-08-06 12:33:00,71.6,69.5,29.81,North,10,0.0,0.0,93,0.00,,---,0.60,VWS V14.01,2013-08-06 16:33:00,
2013-08-06 12:34:00,71.7,69.3,29.81,North,10,0.0,0.0,92,0.00,,---,0.60,VWS V14.01,2013-08-06 16:34:00,
2013-08-06 12:35:00,71.7,69.3,29.81,North,10,0.0,0.0,92,0.00,,---,0.60,VWS V14.01,2013-08-06 16:35:00,
2013-08-06 12:36:00,71.7,69.3,29.81,North,0,0.0,0.0,92,0.00,,---,0.60,VWS V14.01,2013-08-06 16:36:00,
2013-08-06 12:37:00,71.7,69.3,29.81,North,0,0.0,0.0,92,0.00,,---,0.60,VWS V14.01,2013-08-06 16:37:00,
2013-08-06 12:38:00,71.8,69.3,29.81,North,1,0.0,0.0,92,0.00,,---,0.60,VWS V14.01,2013-08-06 16:38:00,
2013-08-06 12:39:00,71.7,69.3,29.81,North,1,0.0,0.0,92,0.00,,---,0.60,VWS V14.01,2013-08-06 16:39:00,
2013-08-06 12:40:00,71.7,69.3,29.81,North,1,0.0,0.0,92,0.00,,---,0.60,VWS V14.01,2013-08-06 16:40:00,
2013-08-06 12:41:00,71.7,69.3,29.81,North,1,0.0,0.0,92,0.00,,---,0.60,VWS V14.01,2013-08-06 16:41:00,
2013-08-06 12:42:00,71.6,69.5,29.81,North,1,0.0,0.0,93,0.00,,---,0.60,VWS V14.01,2013-08-06 16:42:00,
2013-08-06 12:43:00,71.5,69.4,29.81,North,1,0.0,0.0,93,0.00,,---,0.60,VWS V14.01,2013-08-06 16:43:00,
2013-08-06 12:44:00,71.5,69.4,29.81,North,1,0.0,0.0,93,0.00,,---,0.60,VWS V14.01,2013-08-06 16:44:00,
2013-08-06 12:45:00,71.4,69.3,29.82,North,1,0.0,0.0,93,0.00,,---,0.60,VWS V14.01,2013-08-06 16:45:00,
2013-08-06 12:46:00,71.3,69.2,29.82,North,1,0.0,0.0,93,0.00,,---,0.60,VWS V14.01,2013-08-06 16:46:00,
2013-08-06 12:47:00,71.4,69.3,29.82,North,1,0.0,0.0,93,0.00,,---,0.60,VWS V14.01,2013-08-06 16:47:00,
2013-08-06 12:48:00,71.4,69.6,29.82,North,1,0.0,0.0,94,0.00,,---,0.60,VWS V14.01,2013-08-06 16:48:00,
2013-08-06 12:49:00,71.4,69.3,29.82,North,1,0.0,0.0,93,0.00,,---,0.60,VWS V14.01,2013-08-06 16:49:00,
2013-08-06 12:50:00,71.4,69.3,29.82,North,1,0.0,0.0,93,0.00,,---,0.60,VWS V14.01,2013-08-06 16:50:00,
2013-08-06 12:51:00,71.4,69.3,29.82,North,1,0.0,0.0,93,0.00,,---,0.60,VWS V14.01,2013-08-06 16:51:00,
2013-08-06 12:52:00,71.3,69.2,29.82,North,1,0.0,0.0,93,0.00,,---,0.60,VWS V14.01,2013-08-06 16:52:00,
2013-08-06 12:53:00,71.3,69.2,29.82,North,1,0.0,0.0,93,0.00,,---,0.60,VWS V14.01,2013-08-06 16:53:00,
2013-08-06 12:54:00,71.3,69.2,29.82,North,1,0.0,0.0,93,0.00,,---,0.60,VWS V14.01,2013-08-06 16:54:00,
2013-08-06 12:55:00,71.3,69.2,29.82,North,1,0.0,0.0,93,0.00,,---,0.60,VWS V14.01,2013-08-06 16:55:00,
2013-08-06 12:56:00,71.4,69.3,29.82,North,1,0.0,0.0,93,0.00,,---,0.60,VWS V14.01,2013-08-06 16:56:00,
2013-08-06 12:57:00,71.4,69.3,29.82,North,1,0.0,0.0,93,0.00,,---,0.60,VWS V14.01,2013-08-06 16:57:00,
2013-08-06 12:58:00,71.5,69.7,29.82,North,1,0.0,0.0,94,0.00,,---,0.60,VWS V14.01,2013-08-06 16:58:00,
2013-08-06 12:59:00,71.5,69.7,29.82,North,1,0.0,0.0,94,0.00,,---,0.60,VWS V14.01,2013-08-06 16:59:00,
2013-08-06 13:00:00,71.6,69.8,29.82,North,1,0.0,0.0,94,0.00,,---,0.60,VWS V14.01,2013-08-06 17:00:00,
2013-08-06 13:01:00,71.6,69.5,29.82,North,1,0.0,0.0,93,0.00,,---,0.60,VWS V14.01,2013-08-06 17:01:00,
2013-08-06 13:02:00,71.7,69.6,29.82,North,1,0.0,0.0,93,0.00,,---,0.60,VWS V14.01,2013-08-06 17:02:00,
2013-08-06 13:03:00,71.6,69.5,29.82,North,1,0.0,0.0,93,0.00,,---,0.60,VWS V14.01,2013-08-06 17:03:00,
2013-08-06 13:04:00,71.6,69.5,29.82,North,1,0.0,0.0,93,0.00,,---,0.60,VWS V14.01,2013-08-06 17:04:00,
2013-08-06 13:05:00,71.6,69.5,29.82,North,1,0.0,0.0,93,0.00,,---,0.60,VWS V14.01,2013-08-06 17:05:00,
2013-08-06 13:06:00,71.5,69.4,29.82,North,1,0.0,0.0,93,0.00,,---,0.60,VWS V14.01,2013-08-06 17:06:00,
2013-08-06 13:07:00,71.5,69.4,29.82,North,1,0.0,0.0,93,0.00,,---,0.60,VWS V14.01,2013-08-06 17:07:00,
2013-08-06 13:08:00,71.5,69.4,29.82,North,1,0.0,0.0,93,0.00,,---,0.60,VWS V14.01,2013-08-06 17:08:00,
2013-08-06 13:09:00,71.6,69.5,29.82,North,1,0.0,0.0,93,0.00,,---,0.60,VWS V14.01,2013-08-06 17:09:00,
2013-08-06 13:10:00,71.6,69.5,29.82,North,1,0.0,0.0,93,0.00,,---,0.60,VWS V14.01,2013-08-06 17:10:00,
2013-08-06 13:11:00,71.7,69.3,29.82,North,1,0.0,0.0,92,0.00,,---,0.60,VWS V14.01,2013-08-06 17:11:00,
2013-08-06 13:12:00,71.7,69.3,29.82,North,1,0.0,0.0,92,0.00,,---,0.60,VWS V14.01,2013-08-06 17:12:00,
2013-08-06 13:13:00,71.8,69.7,29.82,North,1,0.0,0.0,93,0.00,,---,0.60,VWS V14.01,2013-08-06 17:13:00,
2013-08-06 13:14:00,71.8,69.7,29.82,North,1,0.0,0.0,93,0.00,,---,0.60,VWS V14.01,2013-08-06 17:14:00,
2013-08-06 13:15:00,71.8,69.7,29.82,North,1,0.0,0.0,93,0.00,,---,0.60,VWS V14.01,2013-08-06 17:15:00,
2013-08-06 13:16:00,71.7,69.6,29.82,North,1,0.0,0.0,93,0.00,,---,0.60,VWS V14.01,2013-08-06 17:16:00,
2013-08-06 13:17:00,71.7,69.3,29.82,North,1,0.0,0.0,92,0.00,,---,0.60,VWS V14.01,2013-08-06 17:17:00,
2013-08-06 13:18:00,71.6,69.2,29.82,North,1,0.0,0.0,92,0.00,,---,0.60,VWS V14.01,2013-08-06 17:18:00,
2013-08-06 13:19:00,71.6,69.5,29.82,North,1,0.0,0.0,93,0.00,,---,0.60,VWS V14.01,2013-08-06 17:19:00,
2013-08-06 13:20:00,71.5,69.4,29.82,North,1,0.0,0.0,93,0.00,,---,0.60,VWS V14.01,2013-08-06 17:20:00,
2013-08-06 13:21:00,71.5,69.4,29.82,North,1,0.0,0.0,93,0.00,,---,0.60,VWS V14.01,2013-08-06 17:21:00,
2013-08-06 13:22:00,71.5,69.4,29.82,North,1,0.0,0.0,93,0.00,,---,0.60,VWS V14.01,2013-08-06 17:22:00,
2013-08-06 13:23:00,71.6,69.5,29.82,North,1,0.0,0.0,93,0.00,,---,0.60,VWS V14.01,2013-08-06 17:23:00,
2013-08-06 13:24:00,71.6,69.5,29.82,North,1,0.0,0.0,93,0.00,,---,0.60,VWS V14.01,2013-08-06 17:24:00,
2013-08-06 13:25:00,71.8,69.7,29.82,North,1,0.0,0.0,93,0.00,,---,0.60,VWS V14.01,2013-08-06 17:25:00,
2013-08-06 13:26:00,72.0,69.6,29.82,North,1,0.0,0.0,92,0.00,,---,0.60,VWS V14.01,2013-08-06 17:26:00,
2013-08-06 13:27:00,72.2,69.8,29.82,North,1,0.0,0.0,92,0.00,,---,0.60,VWS V14.01,2013-08-06 17:27:00,
2013-08-06 13:28:00,72.3,69.8,29.82,NNW,330,0.0,0.0,92,0.00,,---,0.60,VWS V14.01,2013-08-06 17:28:00,
2013-08-06 13:29:00,72.6,69.8,29.82,NNW,330,0.0,0.0,91,0.00,,---,0.60,VWS V14.01,2013-08-06 17:29:00,
2013-08-06 13:30:00,72.7,69.9,29.81,NNW,330,0.0,0.0,91,0.00,,---,0.60,VWS V14.01,2013-08-06 17:30:00,
2013-08-06 13:31:00,72.8,70.3,29.81,NNW,330,0.0,0.0,92,0.00,,---,0.60,VWS V14.01,2013-08-06 17:31:00,
2013-08-06 13:32:00,72.8,70.0,29.81,NNW,330,0.0,0.0,91,0.00,,---,0.60,VWS V14.01,2013-08-06 17:32:00,
2013-08-06 13:33:00,72.8,70.0,29.81,NNW,330,0.0,0.0,91,0.00,,---,0.60,VWS V14.01,2013-08-06 17:33:00,
2013-08-06 13:34:00,72.7,69.9,29.81,NNW,330,0.0,0.0,91,0.00,,---,0.60,VWS V14.01,2013-08-06 17:34:00,
2013-08-06 13:35:00,72.8,70.0,29.81,NNW,330,0.0,0.0,91,0.00,,---,0.60,VWS V14.01,2013-08-06 17:35:00,
2013-08-06 13:36:00,72.8,70.3,29.81,NNW,330,0.0,0.0,92,0.00,,---,0.60,VWS V14.01,2013-08-06 17:36:00,
2013-08-06 13:37:00,72.8,70.3,29.81,NNW,330,0.0,0.0,92,0.00,,---,0.60,VWS V14.01,2013-08-06 17:37:00,
2013-08-06 13:38:00,72.7,69.9,29.81,NNW,330,0.0,0.0,91,0.00,,---,0.60,VWS V14.01,2013-08-06 17:38:00,
2013-08-06 13:39:00,72.6,69.8,29.81,NNW,330,0.0,0.0,91,0.00,,---,0.60,VWS V14.01,2013-08-06 17:39:00,
2013-08-06 13:40:00,72.6,69.8,29.81,NNW,330,0.0,0.0,91,0.00,,---,0.60,VWS V14.01,2013-08-06 17:40:00,
2013-08-06 13:41:00,72.5,69.7,29.81,NNW,330,0.0,0.0,91,0.00,,---,0.60,VWS V14.01,2013-08-06 17:41:00,
2013-08-06 13:42:00,72.5,70.1,29.81,NNW,330,0.0,0.0,92,0.00,,---,0.60,VWS V14.01,2013-08-06 17:42:00,
2013-08-06 13:43:00,72.4,69.9,29.81,NNW,330,0.0,0.0,92,0.00,,---,0.60,VWS V14.01,2013-08-06 17:43:00,
2013-08-06 13:44:00,72.5,70.1,29.81,NNW,330,0.0,0.0,92,0.00,,---,0.60,VWS V14.01,2013-08-06 17:44:00,
2013-08-06 13:45:00,72.5,70.1,29.81,NNW,330,0.0,0.0,92,0.00,,---,0.60,VWS V14.01,2013-08-06 17:45:00,
2013-08-06 13:46:00,72.5,70.1,29.81,NNW,330,0.0,0.0,92,0.00,,---,0.60,VWS V14.01,2013-08-06 17:46:00,
2013-08-06 13:47:00,72.5,70.1,29.81,NNW,330,0.0,0.0,92,0.00,,---,0.60,VWS V14.01,2013-08-06 17:47:00,
2013-08-06 13:48:00,72.5,69.7,29.81,NNW,330,0.0,0.0,91,0.00,,---,0.60,VWS V14.01,2013-08-06 17:48:00,
2013-08-06 13:49:00,72.5,69.7,29.81,NNW,330,0.0,0.0,91,0.00,,---,0.60,VWS V14.01,2013-08-06 17:49:00,
2013-08-06 13:50:00,72.5,69.7,29.81,NNW,330,0.0,0.0,91,0.00,,---,0.60,VWS V14.01,2013-08-06 17:50:00,
2013-08-06 13:51:00,72.6,69.8,29.81,NNW,330,0.0,0.0,91,0.00,,---,0.60,VWS V14.01,2013-08-06 17:51:00,
2013-08-06 13:52:00,72.7,69.9,29.81,North,5,0.0,0.0,91,0.00,,---,0.60,VWS V14.01,2013-08-06 17:52:00,
2013-08-06 13:53:00,72.7,69.9,29.81,North,5,0.0,0.0,91,0.00,,---,0.60,VWS V14.01,2013-08-06 17:53:00,
2013-08-06 13:54:00,72.7,69.9,29.81,North,5,0.0,0.0,91,0.00,,---,0.60,VWS V14.01,2013-08-06 17:54:00,
2013-08-06 13:55:00,72.7,69.9,29.81,North,5,0.0,0.0,91,0.00,,---,0.60,VWS V14.01,2013-08-06 17:55:00,
2013-08-06 13:56:00,72.7,69.6,29.81,North,5,0.0,0.0,90,0.00,,---,0.60,VWS V14.01,2013-08-06 17:56:00,
2013-08-06 13:57:00,72.7,69.6,29.81,North,5,0.0,0.0,90,0.00,,---,0.60,VWS V14.01,2013-08-06 17:57:00,
2013-08-06 13:58:00,72.7,69.6,29.81,North,5,0.0,0.0,90,0.00,,---,0.60,VWS V14.01,2013-08-06 17:58:00,
2013-08-06 13:59:00,72.7,69.6,29.81,North,5,0.0,0.0,90,0.00,,---,0.60,VWS V14.01,2013-08-06 17:59:00,
2013-08-06 14:00:00,72.6,69.5,29.80,North,5,0.0,0.0,90,0.00,,---,0.60,VWS V14.01,2013-08-06 18:00:00,
2013-08-06 14:01:00,72.6,69.8,29.80,North,5,0.0,0.0,91,0.00,,---,0.60,VWS V14.01,2013-08-06 18:01:00,
2013-08-06 14:02:00,72.6,69.8,29.80,North,5,0.0,0.0,91,0.00,,---,0.60,VWS V14.01,2013-08-06 18:02:00,
2013-08-06 14:03:00,72.5,69.7,29.80,North,5,0.0,0.0,91,0.00,,---,0.60,VWS V14.01,2013-08-06 18:03:00,
2013-08-06 14:04:00,72.5,69.4,29.80,North,5,0.0,0.0,90,0.00,,---,0.60,VWS V14.01,2013-08-06 18:04:00,
2013-08-06 14:05:00,72.4,69.6,29.80,North,5,0.0,0.0,91,0.00,,---,0.60,VWS V14.01,2013-08-06 18:05:00,
2013-08-06 14:06:00,72.4,69.6,29.80,North,5,0.0,0.0,91,0.00,,---,0.60,VWS V14.01,2013-08-06 18:06:00,
2013-08-06 14:07:00,72.5,70.1,29.80,North,5,0.0,0.0,92,0.00,,---,0.60,VWS V14.01,2013-08-06 18:07:00,
2013-08-06 14:08:00,72.6,70.2,29.80,North,5,0.0,0.0,92,0.00,,---,0.60,VWS V14.01,2013-08-06 18:08:00,
2013-08-06 14:09:00,72.8,70.3,29.80,North,4,0.0,0.0,92,0.00,,---,0.60,VWS V14.01,2013-08-06 18:09:00,
2013-08-06 14:10:00,73.0,70.5,29.80,North,4,0.0,0.0,92,0.00,,---,0.60,VWS V14.01,2013-08-06 18:10:00,
2013-08-06 14:11:00,73.2,70.4,29.80,North,4,0.0,0.0,91,0.00,,---,0.60,VWS V14.01,2013-08-06 18:11:00,
2013-08-06 14:12:00,73.4,70.3,29.80,WNW,293,0.0,0.0,90,0.00,,---,0.60,VWS V14.01,2013-08-06 18:12:00,
2013-08-06 14:13:00,73.5,70.4,29.80,WNW,293,0.0,0.0,90,0.00,,---,0.60,VWS V14.01,2013-08-06 18:13:00,
2013-08-06 14:14:00,73.7,70.3,29.80,WNW,293,0.0,0.0,89,0.00,,---,0.60,VWS V14.01,2013-08-06 18:14:00,
2013-08-06 14:15:00,73.6,69.8,29.80,WNW,293,0.0,0.0,88,0.00,,---,0.60,VWS V14.01,2013-08-06 18:15:00,
2013-08-06 14:16:00,73.6,70.2,29.80,WNW,293,0.0,0.0,89,0.00,,---,0.60,VWS V14.01,2013-08-06 18:16:00,
2013-08-06 14:17:00,73.5,70.1,29.80,WNW,293,0.0,0.0,89,0.00,,---,0.60,VWS V14.01,2013-08-06 18:17:00,
2013-08-06 14:18:00,73.4,70.0,29.80,WNW,293,0.0,0.0,89,0.00,,---,0.60,VWS V14.01,2013-08-06 18:18:00,
2013-08-06 14:19:00,73.4,70.0,29.80,WNW,293,0.0,0.0,89,0.00,,---,0.60,VWS V14.01,2013-08-06 18:19:00,
2013-08-06 14:20:00,73.3,70.2,29.80,WNW,293,0.0,0.0,90,0.00,,---,0.60,VWS V14.01,2013-08-06 18:20:00,
2013-08-06 14:21:00,73.2,69.8,29.80,WNW,293,0.0,0.0,89,0.00,,---,0.60,VWS V14.01,2013-08-06 18:21:00,
2013-08-06 14:22:00,73.2,70.1,29.80,WNW,293,0.0,0.0,90,0.00,,---,0.60,VWS V14.01,2013-08-06 18:22:00,
2013-08-06 14:23:00,73.3,70.2,29.80,WNW,293,0.0,0.0,90,0.00,,---,0.60,VWS V14.01,2013-08-06 18:23:00,
2013-08-06 14:24:00,73.4,70.3,29.80,WNW,293,0.0,0.0,90,0.00,,---,0.60,VWS V14.01,2013-08-06 18:24:00,
2013-08-06 14:25:00,73.5,70.4,29.80,WNW,293,0.0,0.0,90,0.00,,---,0.60,VWS V14.01,2013-08-06 18:25:00,
2013-08-06 14:26:00,73.5,70.4,29.80,WNW,293,0.0,0.0,90,0.00,,---,0.60,VWS V14.01,2013-08-06 18:26:00,
2013-08-06 14:27:00,73.5,70.4,29.80,WNW,293,0.0,0.0,90,0.00,,---,0.60,VWS V14.01,2013-08-06 18:27:00,
2013-08-06 14:28:00,73.5,70.4,29.80,WNW,293,0.0,0.0,90,0.00,,---,0.60,VWS V14.01,2013-08-06 18:28:00,
2013-08-06 14:29:00,73.5,70.4,29.80,WNW,293,0.0,0.0,90,0.00,,---,0.60,VWS V14.01,2013-08-06 18:29:00,
2013-08-06 14:30:00,73.4,70.3,29.80,WNW,293,0.0,0.0,90,0.00,,---,0.60,VWS V14.01,2013-08-06 18:30:00,
2013-08-06 14:31:00,73.4,70.3,29.80,WNW,293,0.0,0.0,90,0.00,,---,0.60,VWS V14.01,2013-08-06 18:31:00,
2013-08-06 14:32:00,73.3,70.2,29.80,WNW,293,0.0,0.0,90,0.00,,---,0.60,VWS V14.01,2013-08-06 18:32:00,
2013-08-06 14:33:00,73.3,70.5,29.80,WNW,293,0.0,0.0,91,0.00,,---,0.60,VWS V14.01,2013-08-06 18:33:00,
2013-08-06 14:34:00,73.2,70.1,29.80,WNW,293,0.0,0.0,90,0.00,,---,0.60,VWS V14.01,2013-08-06 18:34:00,
2013-08-06 14:35:00,73.2,70.1,29.80,WNW,293,0.0,0.0,90,0.00,,---,0.60,VWS V14.01,2013-08-06 18:35:00,
2013-08-06 14:36:00,73.3,70.2,29.80,WNW,293,0.0,0.0,90,0.00,,---,0.60,VWS V14.01,2013-08-06 18:36:00,
2013-08-06 14:37:00,73.3,70.2,29.80,WNW,293,0.0,0.0,90,0.00,,---,0.60,VWS V14.01,2013-08-06 18:37:00,
2013-08-06 14:38:00,73.3,70.2,29.80,WNW,293,0.0,0.0,90,0.00,,---,0.60,VWS V14.01,2013-08-06 18:38:00,
2013-08-06 14:39:00,73.3,70.2,29.80,WNW,293,0.0,0.0,90,0.00,,---,0.60,VWS V14.01,2013-08-06 18:39:00,
2013-08-06 14:40:00,73.3,70.2,29.80,WNW,293,0.0,0.0,90,0.00,,---,0.60,VWS V14.01,2013-08-06 18:40:00,
2013-08-06 14:41:00,73.3,70.2,29.80,WNW,293,0.0,0.0,90,0.00,,---,0.60,VWS V14.01,2013-08-06 18:41:00,
2013-08-06 14:42:00,73.3,69.9,29.80,WNW,293,0.0,0.0,89,0.00,,---,0.60,VWS V14.01,2013-08-06 18:42:00,
2013-08-06 14:43:00,73.2,69.8,29.80,WNW,293,0.0,0.0,89,0.00,,---,0.60,VWS V14.01,2013-08-06 18:43:00,
2013-08-06 14:44:00,73.3,69.9,29.80,WNW,293,0.0,0.0,89,0.00,,---,0.60,VWS V14.01,2013-08-06 18:44:00,
2013-08-06 14:45:00,73.4,70.3,29.80,WNW,293,0.0,0.0,90,0.00,,---,0.60,VWS V14.01,2013-08-06 18:45:00,
2013-08-06 14:46:00,73.4,70.0,29.80,WNW,293,0.0,0.0,89,0.00,,---,0.60,VWS V14.01,2013-08-06 18:46:00,
2013-08-06 14:47:00,73.5,70.4,29.80,WNW,293,0.0,0.0,90,0.00,,---,0.60,VWS V14.01,2013-08-06 18:47:00,
2013-08-06 14:48:00,73.5,70.4,29.80,WNW,293,0.0,0.0,90,0.00,,---,0.60,VWS V14.01,2013-08-06 18:48:00,
2013-08-06 14:49:00,73.6,70.8,29.80,WNW,293,0.0,0.0,91,0.00,,---,0.60,VWS V14.01,2013-08-06 18:49:00,
2013-08-06 14:50:00,73.5,70.4,29.80,WNW,293,0.0,0.0,90,0.00,,---,0.60,VWS V14.01,2013-08-06 18:50:00,
2013-08-06 14:51:00,73.6,70.5,29.80,WNW,293,0.0,0.0,90,0.00,,---,0.60,VWS V14.01,2013-08-06 18:51:00,
2013-08-06 14:52:00,73.6,70.8,29.80,WNW,293,0.0,0.0,91,0.00,,---,0.60,VWS V14.01,2013-08-06 18:52:00,
2013-08-06 14:53:00,73.7,70.6,29.80,WNW,293,0.0,0.0,90,0.00,,---,0.60,VWS V14.01,2013-08-06 18:53:00,
2013-08-06 14:54:00,73.6,70.2,29.80,WNW,293,0.0,0.0,89,0.00,,---,0.60,VWS V14.01,2013-08-06 18:54:00,
2013-08-06 14:55:00,73.7,70.6,29.80,WNW,295,0.0,0.0,90,0.00,,---,0.60,VWS V14.01,2013-08-06 18:55:00,
2013-08-06 14:56:00,73.7,70.6,29.80,WNW,295,0.0,0.0,90,0.00,,---,0.60,VWS V14.01,2013-08-06 18:56:00,
2013-08-06 14:57:00,73.8,70.4,29.80,WNW,295,0.0,0.0,89,0.00,,---,0.60,VWS V14.01,2013-08-06 18:57:00,
2013-08-06 14:58:00,73.8,70.4,29.80,WNW,295,0.0,0.0,89,0.00,,---,0.60,VWS V14.01,2013-08-06 18:58:00,
2013-08-06 14:59:00,73.9,70.1,29.80,WNW,295,0.0,0.0,88,0.00,,---,0.60,VWS V14.01,2013-08-06 18:59:00,
2013-08-06 15:00:00,74.0,70.6,29.80,WNW,295,0.0,0.0,89,0.00,,---,0.60,VWS V14.01,2013-08-06 19:00:00,
2013-08-06 15:01:00,74.0,70.6,29.80,WNW,295,0.0,0.0,89,0.00,,---,0.60,VWS V14.01,2013-08-06 19:01:00,
2013-08-06 15:02:00,73.9,70.1,29.80,WNW,295,0.0,0.0,88,0.00,,---,0.60,VWS V14.01,2013-08-06 19:02:00,
2013-08-06 15:03:00,73.9,70.1,29.80,WNW,295,0.0,0.0,88,0.00,,---,0.60,VWS V14.01,2013-08-06 19:03:00,
2013-08-06 15:04:00,74.0,70.6,29.80,WNW,295,0.0,0.0,89,0.00,,---,0.60,VWS V14.01,2013-08-06 19:04:00,
2013-08-06 15:05:00,74.0,70.6,29.80,WNW,295,0.0,0.0,89,0.00,,---,0.60,VWS V14.01,2013-08-06 19:05:00,
2013-08-06 15:06:00,74.0,70.6,29.80,WNW,295,0.0,0.0,89,0.00,,---,0.60,VWS V14.01,2013-08-06 19:06:00,
2013-08-06 15:07:00,74.0,70.6,29.80,WNW,295,0.0,0.0,89,0.00,,---,0.60,VWS V14.01,2013-08-06 19:07:00,
2013-08-06 15:08:00,74.0,70.6,29.80,WNW,295,0.0,0.0,89,0.00,,---,0.60,VWS V14.01,2013-08-06 19:08:00,
2013-08-06 15:09:00,74.1,71.0,29.80,WNW,295,0.0,0.0,90,0.00,,---,0.60,VWS V14.01,2013-08-06 19:09:00,
2013-08-06 15:10:00,74.2,71.4,29.80,WNW,295,0.0,0.0,91,0.00,,---,0.60,VWS V14.01,2013-08-06 19:10:00,
2013-08-06 15:11:00,74.1,70.3,29.80,WNW,295,0.0,0.0,88,0.00,,---,0.60,VWS V14.01,2013-08-06 19:11:00,
2013-08-06 15:12:00,74.1,70.3,29.80,WNW,295,0.0,0.0,88,0.00,,---,0.60,VWS V14.01,2013-08-06 19:12:00,
2013-08-06 15:13:00,74.1,70.7,29.80,WNW,295,0.0,0.0,89,0.00,,---,0.60,VWS V14.01,2013-08-06 19:13:00,
2013-08-06 15:14:00,74.3,70.8,29.80,WNW,295,0.0,0.0,89,0.00,,---,0.60,VWS V14.01,2013-08-06 19:14:00,
2013-08-06 15:15:00,74.3,70.8,29.79,WNW,295,0.0,0.0,89,0.00,,---,0.60,VWS V14.01,2013-08-06 19:15:00,
2013-08-06 15:16:00,74.3,70.5,29.79,WNW,295,0.0,0.0,88,0.00,,---,0.60,VWS V14.01,2013-08-06 19:16:00,
2013-08-06 15:17:00,74.4,70.9,29.79,WNW,295,0.0,0.0,89,0.00,,---,0.60,VWS V14.01,2013-08-06 19:17:00,
2013-08-06 15:18:00,74.6,71.2,29.79,WNW,295,0.0,0.0,89,0.00,,---,0.60,VWS V14.01,2013-08-06 19:18:00,
2013-08-06 15:19:00,74.8,71.3,29.79,WNW,295,0.0,0.0,89,0.00,,---,0.60,VWS V14.01,2013-08-06 19:19:00,
2013-08-06 15:20:00,74.9,71.4,29.79,WNW,295,0.0,0.0,89,0.00,,---,0.60,VWS V14.01,2013-08-06 19:20:00,
2013-08-06 15:21:00,75.1,71.6,29.79,WNW,295,0.0,0.0,89,0.00,,---,0.60,VWS V14.01,2013-08-06 19:21:00,
2013-08-06 15:22:00,75.3,70.8,29.79,WNW,295,0.0,0.0,86,0.00,,---,0.60,VWS V14.01,2013-08-06 19:22:00,
2013-08-06 15:23:00,75.5,71.4,29.79,WNW,295,0.0,0.0,87,0.00,,---,0.60,VWS V14.01,2013-08-06 19:23:00,
2013-08-06 15:24:00,75.8,72.0,29.79,WNW,295,0.0,0.0,88,0.00,,---,0.60,VWS V14.01,2013-08-06 19:24:00,
2013-08-06 15:25:00,75.9,71.8,29.79,WNW,295,0.0,0.0,87,0.00,,---,0.60,VWS V14.01,2013-08-06 19:25:00,
2013-08-06 15:26:00,76.1,72.3,29.79,WNW,295,0.0,0.0,88,0.00,,---,0.60,VWS V14.01,2013-08-06 19:26:00,
2013-08-06 15:27:00,76.2,72.4,29.79,WNW,295,0.0,0.0,88,0.00,,---,0.60,VWS V14.01,2013-08-06 19:27:00,
2013-08-06 15:28:00,76.2,71.7,29.79,WNW,295,0.0,0.0,86,0.00,,---,0.60,VWS V14.01,2013-08-06 19:28:00,
2013-08-06 15:29:00,76.2,72.1,29.79,WNW,295,0.0,0.0,87,0.00,,---,0.60,VWS V14.01,2013-08-06 19:29:00,
2013-08-06 15:30:00,76.2,71.7,29.78,WNW,295,0.0,0.0,86,0.00,,---,0.60,VWS V14.01,2013-08-06 19:30:00,
2013-08-06 15:31:00,76.1,71.3,29.78,WNW,295,0.0,0.0,85,0.00,,---,0.60,VWS V14.01,2013-08-06 19:31:00,
2013-08-06 15:32:00,76.1,71.6,29.78,WNW,295,0.0,0.0,86,0.00,,---,0.60,VWS V14.01,2013-08-06 19:32:00,
2013-08-06 15:33:00,76.0,71.5,29.78,WNW,295,0.0,0.0,86,0.00,,---,0.60,VWS V14.01,2013-08-06 19:33:00,
2013-08-06 15:34:00,76.1,71.6,29.78,WNW,295,0.0,0.0,86,0.00,,---,0.60,VWS V14.01,2013-08-06 19:34:00,
2013-08-06 15:35:00,76.1,71.6,29.78,WNW,295,0.0,0.0,86,0.00,,---,0.60,VWS V14.01,2013-08-06 19:35:00,
2013-08-06 15:36:00,76.2,71.4,29.78,WNW,295,0.0,0.0,85,0.00,,---,0.60,VWS V14.01,2013-08-06 19:36:00,
2013-08-06 15:37:00,76.2,71.4,29.78,WNW,295,0.0,0.0,85,0.00,,---,0.60,VWS V14.01,2013-08-06 19:37:00,
2013-08-06 15:38:00,76.2,71.0,29.78,WNW,295,0.0,0.0,84,0.00,,---,0.60,VWS V14.01,2013-08-06 19:38:00,
2013-08-06 15:39:00,76.3,71.1,29.78,WNW,295,0.0,0.0,84,0.00,,---,0.60,VWS V14.01,2013-08-06 19:39:00,
2013-08-06 15:40:00,76.4,71.2,29.78,WNW,295,0.0,0.0,84,0.00,,---,0.60,VWS V14.01,2013-08-06 19:40:00,
2013-08-06 15:41:00,76.4,71.6,29.78,WNW,295,0.0,0.0,85,0.00,,---,0.60,VWS V14.01,2013-08-06 19:41:00,
2013-08-06 15:42:00,76.4,71.2,29.78,WNW,295,0.0,0.0,84,0.00,,---,0.60,VWS V14.01,2013-08-06 19:42:00,
2013-08-06 15:43:00,76.4,71.2,29.78,WNW,295,0.0,0.0,84,0.00,,---,0.60,VWS V14.01,2013-08-06 19:43:00,
2013-08-06 15:44:00,76.4,71.2,29.78,WNW,295,0.0,0.0,84,0.00,,---,0.60,VWS V14.01,2013-08-06 19:44:00,
2013-08-06 15:45:00,76.5,71.3,29.78,WNW,295,0.0,0.0,84,0.00,,---,0.60,VWS V14.01,2013-08-06 19:45:00,
2013-08-06 15:46:00,76.6,72.1,29.78,WNW,295,0.0,0.0,86,0.00,,---,0.60,VWS V14.01,2013-08-06 19:46:00,
2013-08-06 15:47:00,76.6,71.8,29.78,WNW,295,0.0,0.0,85,0.00,,---,0.60,VWS V14.01,2013-08-06 19:47:00,
2013-08-06 15:48:00,76.5,71.7,29.78,WNW,295,0.0,0.0,85,0.00,,---,0.60,VWS V14.01,2013-08-06 19:48:00,
2013-08-06 15:49:00,76.5,72.0,29.78,WNW,295,0.0,0.0,86,0.00,,---,0.60,VWS V14.01,2013-08-06 19:49:00,
2013-08-06 15:50:00,76.6,71.8,29.78,WNW,295,0.0,0.0,85,0.00,,---,0.60,VWS V14.01,2013-08-06 19:50:00,
2013-08-06 15:51:00,76.6,71.8,29.78,WNW,295,0.0,0.0,85,0.00,,---,0.60,VWS V14.01,2013-08-06 19:51:00,
2013-08-06 15:52:00,76.7,71.5,29.78,WNW,295,0.0,0.0,84,0.00,,---,0.60,VWS V14.01,2013-08-06 19:52:00,
2013-08-06 15:53:00,76.7,70.8,29.78,WNW,295,0.0,0.0,82,0.00,,---,0.60,VWS V14.01,2013-08-06 19:53:00,
2013-08-06 15:54:00,76.7,71.2,29.78,WNW,295,0.0,0.0,83,0.00,,---,0.60,VWS V14.01,2013-08-06 19:54:00,
2013-08-06 15:55:00,76.7,70.8,29.78,WNW,297,0.0,0.0,82,0.00,,---,0.60,VWS V14.01,2013-08-06 19:55:00,
2013-08-06 15:56:00,76.6,71.1,29.78,WNW,297,0.0,0.0,83,0.00,,---,0.60,VWS V14.01,2013-08-06 19:56:00,
2013-08-06 15:57:00,76.6,71.1,29.78,WNW,297,0.0,0.0,83,0.00,,---,0.60,VWS V14.01,2013-08-06 19:57:00,
2013-08-06 15:58:00,76.6,71.4,29.78,WNW,297,0.0,0.0,84,0.00,,---,0.60,VWS V14.01,2013-08-06 19:58:00,
2013-08-06 15:59:00,76.5,71.3,29.78,WNW,297,0.0,0.0,84,0.00,,---,0.60,VWS V14.01,2013-08-06 19:59:00,
2013-08-06 16:00:00,76.4,71.6,29.77,WNW,297,0.0,0.0,85,0.00,,---,0.60,VWS V14.01,2013-08-06 20:00:00,
2013-08-06 16:01:00,76.3,71.1,29.77,WNW,297,0.0,0.0,84,0.00,,---,0.60,VWS V14.01,2013-08-06 20:01:00,
2013-08-06 16:02:00,76.1,70.9,29.77,WNW,297,0.0,0.0,84,0.00,,---,0.60,VWS V14.01,2013-08-06 20:02:00,
2013-08-06 16:03:00,76.0,70.8,29.77,WNW,297,0.0,0.0,84,0.00,,---,0.60,VWS V14.01,2013-08-06 20:03:00,
2013-08-06 16:04:00,75.9,71.1,29.77,WNW,297,0.0,0.0,85,0.00,,---,0.60,VWS V14.01,2013-08-06 20:04:00,
2013-08-06 16:05:00,75.9,70.7,29.77,WNW,297,0.0,0.0,84,0.00,,---,0.60,VWS V14.01,2013-08-06 20:05:00,
2013-08-06 16:06:00,75.9,70.7,29.77,WNW,297,0.0,0.0,84,0.00,,---,0.60,VWS V14.01,2013-08-06 20:06:00,
2013-08-06 16:07:00,75.8,70.6,29.77,WNW,297,0.0,0.0,84,0.00,,---,0.60,VWS V14.01,2013-08-06 20:07:00,
2013-08-06 16:08:00,75.7,70.5,29.77,WNW,297,0.0,0.0,84,0.00,,---,0.60,VWS V14.01,2013-08-06 20:08:00,
2013-08-06 16:09:00,75.7,70.9,29.77,WNW,297,0.0,0.0,85,0.00,,---,0.60,VWS V14.01,2013-08-06 20:09:00,
2013-08-06 16:10:00,75.7,70.9,29.77,WNW,297,0.0,0.0,85,0.00,,---,0.60,VWS V14.01,2013-08-06 20:10:00,
2013-08-06 16:11:00,75.7,70.9,29.77,WNW,297,0.0,0.0,85,0.00,,---,0.60,VWS V14.01,2013-08-06 20:11:00,
2013-08-06 16:12:00,75.7,71.2,29.77,WNW,297,0.0,0.0,86,0.00,,---,0.60,VWS V14.01,2013-08-06 20:12:00,
2013-08-06 16:13:00,75.7,71.2,29.77,WNW,297,0.0,0.0,86,0.00,,---,0.60,VWS V14.01,2013-08-06 20:13:00,
2013-08-06 16:14:00,75.5,71.0,29.77,WNW,297,0.0,0.0,86,0.00,,---,0.60,VWS V14.01,2013-08-06 20:14:00,
2013-08-06 16:15:00,75.4,70.9,29.77,WNW,297,0.0,0.0,86,0.00,,---,0.60,VWS V14.01,2013-08-06 20:15:00,
2013-08-06 16:16:00,75.3,70.5,29.77,WNW,297,0.0,0.0,85,0.00,,---,0.60,VWS V14.01,2013-08-06 20:16:00,
2013-08-06 16:17:00,75.2,70.4,29.77,WNW,297,0.0,0.0,85,0.00,,---,0.60,VWS V14.01,2013-08-06 20:17:00,
2013-08-06 16:18:00,75.2,70.7,29.77,WNW,297,0.0,0.0,86,0.00,,---,0.60,VWS V14.01,2013-08-06 20:18:00,
2013-08-06 16:19:00,75.3,70.5,29.77,WNW,297,0.0,0.0,85,0.00,,---,0.60,VWS V14.01,2013-08-06 20:19:00,
2013-08-06 16:20:00,75.4,70.9,29.77,WNW,297,0.0,0.0,86,0.00,,---,0.60,VWS V14.01,2013-08-06 20:20:00,
2013-08-06 16:21:00,75.4,70.9,29.77,WNW,297,0.0,0.0,86,0.00,,---,0.60,VWS V14.01,2013-08-06 20:21:00,
2013-08-06 16:22:00,75.4,70.9,29.77,WNW,297,0.0,0.0,86,0.00,,---,0.60,VWS V14.01,2013-08-06 20:22:00,
2013-08-06 16:23:00,75.4,71.3,29.77,WNW,297,0.0,0.0,87,0.00,,---,0.60,VWS V14.01,2013-08-06 20:23:00,
2013-08-06 16:24:00,75.5,71.4,29.77,WNW,297,0.0,0.0,87,0.00,,---,0.60,VWS V14.01,2013-08-06 20:24:00,
2013-08-06 16:25:00,75.6,71.1,29.77,WNW,297,0.0,0.0,86,0.00,,---,0.60,VWS V14.01,2013-08-06 20:25:00,
2013-08-06 16:26:00,75.7,71.2,29.77,WNW,297,0.0,0.0,86,0.00,,---,0.60,VWS V14.01,2013-08-06 20:26:00,
2013-08-06 16:27:00,75.8,71.3,29.77,WNW,297,0.0,0.0,86,0.00,,---,0.60,VWS V14.01,2013-08-06 20:27:00,
2013-08-06 16:28:00,76.0,71.2,29.77,WNW,297,0.0,0.0,85,0.00,,---,0.60,VWS V14.01,2013-08-06 20:28:00,
2013-08-06 16:29:00,76.1,71.6,29.77,WNW,297,0.0,0.0,86,0.00,,---,0.60,VWS V14.01,2013-08-06 20:29:00,
2013-08-06 16:30:00,76.2,71.4,29.77,WNW,297,0.0,0.0,85,0.00,,---,0.60,VWS V14.01,2013-08-06 20:30:00,
2013-08-06 16:31:00,76.2,71.0,29.77,WNW,297,0.0,0.0,84,0.00,,---,0.60,VWS V14.01,2013-08-06 20:31:00,
2013-08-06 16:32:00,76.2,71.0,29.77,WNW,297,0.0,0.0,84,0.00,,---,0.60,VWS V14.01,2013-08-06 20:32:00,
2013-08-06 16:33:00,76.2,71.0,29.77,WNW,297,0.0,0.0,84,0.00,,---,0.60,VWS V14.01,2013-08-06 20:33:00,
2013-08-06 16:34:00,76.1,70.9,29.77,WNW,297,0.0,0.0,84,0.00,,---,0.60,VWS V14.01,2013-08-06 20:34:00,
2013-08-06 16:35:00,76.0,70.8,29.77,WNW,297,0.0,0.0,84,0.00,,---,0.60,VWS V14.01,2013-08-06 20:35:00,
2013-08-06 16:36:00,75.9,71.1,29.77,WNW,297,0.0,0.0,85,0.00,,---,0.60,VWS V14.01,2013-08-06 20:36:00,
2013-08-06 16:37:00,75.8,71.0,29.77,WNW,297,0.0,0.0,85,0.00,,---,0.60,VWS V14.01,2013-08-06 20:37:00,
2013-08-06 16:38:00,75.7,70.9,29.77,WNW,297,0.0,0.0,85,0.00,,---,0.60,VWS V14.01,2013-08-06 20:38:00,
2013-08-06 16:39:00,75.6,71.5,29.77,WNW,297,0.0,0.0,87,0.00,,---,0.60,VWS V14.01,2013-08-06 20:39:00,
2013-08-06 16:40:00,75.5,71.0,29.77,WNW,297,0.0,0.0,86,0.00,,---,0.60,VWS V14.01,2013-08-06 20:40:00,
2013-08-06 16:41:00,75.4,71.3,29.77,WNW,297,0.0,0.0,87,0.00,,---,0.60,VWS V14.01,2013-08-06 20:41:00,
2013-08-06 16:42:00,75.3,71.2,29.77,WNW,297,0.0,0.0,87,0.00,,---,0.60,VWS V14.01,2013-08-06 20:42:00,
2013-08-06 16:43:00,75.3,70.8,29.77,WNW,297,0.0,0.0,86,0.00,,---,0.60,VWS V14.01,2013-08-06 20:43:00,
2013-08-06 16:44:00,75.4,71.3,29.77,WNW,297,0.0,0.0,87,0.00,,---,0.60,VWS V14.01,2013-08-06 20:44:00,
2013-08-06 16:45:00,75.6,71.5,29.77,WNW,297,0.0,0.0,87,0.00,,---,0.60,VWS V14.01,2013-08-06 20:45:00,
2013-08-06 16:46:00,75.7,71.6,29.77,WNW,297,0.0,0.0,87,0.00,,---,0.60,VWS V14.01,2013-08-06 20:46:00,
2013-08-06 16:47:00,75.9,71.1,29.77,WNW,297,0.0,0.0,85,0.00,,---,0.60,VWS V14.01,2013-08-06 20:47:00,
2013-08-06 16:48:00,76.0,71.2,29.77,WNW,297,0.0,0.0,85,0.00,,---,0.60,VWS V14.01,2013-08-06 20:48:00,
2013-08-06 16:49:00,76.0,71.5,29.77,WNW,297,0.0,0.0,86,0.00,,---,0.60,VWS V14.01,2013-08-06 20:49:00,
2013-08-06 16:50:00,76.0,71.5,29.77,WNW,297,0.0,0.0,86,0.00,,---,0.60,VWS V14.01,2013-08-06 20:50:00,
2013-08-06 16:51:00,76.0,71.2,29.77,WNW,297,0.0,0.0,85,0.00,,---,0.60,VWS V14.01,2013-08-06 20:51:00,
2013-08-06 16:52:00,75.9,71.4,29.77,WNW,297,0.0,0.0,86,0.00,,---,0.60,VWS V14.01,2013-08-06 20:52:00,
2013-08-06 16:53:00,75.9,71.8,29.77,WNW,297,0.0,0.0,87,0.00,,---,0.60,VWS V14.01,2013-08-06 20:53:00,
2013-08-06 16:54:00,75.9,71.8,29.77,WNW,297,0.0,0.0,87,0.00,,---,0.60,VWS V14.01,2013-08-06 20:54:00,
2013-08-06 16:55:00,75.9,71.4,29.77,WNW,297,0.0,0.0,86,0.00,,---,0.60,VWS V14.01,2013-08-06 20:55:00,
2013-08-06 16:56:00,75.9,71.4,29.77,WNW,297,0.0,0.0,86,0.00,,---,0.60,VWS V14.01,2013-08-06 20:56:00,
2013-08-06 16:57:00,75.8,71.3,29.77,WNW,297,0.0,0.0,86,0.00,,---,0.60,VWS V14.01,2013-08-06 20:57:00,
2013-08-06 16:58:00,75.9,71.4,29.77,WNW,297,0.0,0.0,86,0.00,,---,0.60,VWS V14.01,2013-08-06 20:58:00,
2013-08-06 16:59:00,75.8,71.0,29.77,WNW,297,0.0,0.0,85,0.00,,---,0.60,VWS V14.01,2013-08-06 20:59:00,
2013-08-06 17:00:00,75.8,71.0,29.77,WNW,297,0.0,0.0,85,0.00,,---,0.60,VWS V14.01,2013-08-06 21:00:00,
2013-08-06 17:01:00,75.8,71.0,29.77,WNW,297,0.0,0.0,85,0.00,,---,0.60,VWS V14.01,2013-08-06 21:01:00,
2013-08-06 17:02:00,75.9,71.4,29.77,WNW,297,0.0,0.0,86,0.00,,---,0.60,VWS V14.01,2013-08-06 21:02:00,
2013-08-06 17:03:00,76.0,71.2,29.77,WNW,297,0.0,0.0,85,0.00,,---,0.60,VWS V14.01,2013-08-06 21:03:00,
2013-08-06 17:04:00,76.1,71.3,29.77,WNW,297,0.0,0.0,85,0.00,,---,0.60,VWS V14.01,2013-08-06 21:04:00,
2013-08-06 17:05:00,76.2,71.0,29.77,WNW,297,0.0,0.0,84,0.00,,---,0.60,VWS V14.01,2013-08-06 21:05:00,
2013-08-06 17:06:00,76.3,71.1,29.77,WNW,297,0.0,0.0,84,0.00,,---,0.60,VWS V14.01,2013-08-06 21:06:00,
2013-08-06 17:07:00,76.4,71.6,29.77,WNW,297,0.0,0.0,85,0.00,,---,0.60,VWS V14.01,2013-08-06 21:07:00,
2013-08-06 17:08:00,76.6,71.8,29.77,WNW,297,0.0,0.0,85,0.00,,---,0.60,VWS V14.01,2013-08-06 21:08:00,
2013-08-06 17:09:00,76.7,71.5,29.77,WNW,297,0.0,0.0,84,0.00,,---,0.60,VWS V14.01,2013-08-06 21:09:00,
2013-08-06 17:10:00,76.8,71.9,29.77,WNW,297,0.0,0.0,85,0.00,,---,0.60,VWS V14.01,2013-08-06 21:10:00,
2013-08-06 17:11:00,76.8,72.3,29.77,WNW,297,0.0,0.0,86,0.00,,---,0.60,VWS V14.01,2013-08-06 21:11:00,
2013-08-06 17:12:00,76.8,71.6,29.77,WNW,297,0.0,0.0,84,0.00,,---,0.60,VWS V14.01,2013-08-06 21:12:00,
2013-08-06 17:13:00,76.7,71.5,29.77,WNW,297,0.0,0.0,84,0.00,,---,0.60,VWS V14.01,2013-08-06 21:13:00,
2013-08-06 17:14:00,76.7,71.5,29.77,WNW,297,0.0,0.0,84,0.00,,---,0.60,VWS V14.01,2013-08-06 21:14:00,
2013-08-06 17:15:00,76.7,71.5,29.77,WNW,297,0.0,0.0,84,0.00,,---,0.60,VWS V14.01,2013-08-06 21:15:00,
2013-08-06 17:16:00,76.7,71.2,29.77,WNW,297,0.0,0.0,83,0.00,,---,0.60,VWS V14.01,2013-08-06 21:16:00,
2013-08-06 17:17:00,76.7,71.5,29.77,WNW,297,0.0,0.0,84,0.00,,---,0.60,VWS V14.01,2013-08-06 21:17:00,
2013-08-06 17:18:00,76.6,71.1,29.77,WNW,297,0.0,0.0,83,0.00,,---,0.60,VWS V14.01,2013-08-06 21:18:00,
2013-08-06 17:19:00,76.6,71.1,29.77,WNW,297,0.0,0.0,83,0.00,,---,0.60,VWS V14.01,2013-08-06 21:19:00,
2013-08-06 17:20:00,76.5,71.0,29.77,WNW,297,0.0,0.0,83,0.00,,---,0.60,VWS V14.01,2013-08-06 21:20:00,
2013-08-06 17:21:00,76.4,70.9,29.77,WNW,297,0.0,0.0,83,0.00,,---,0.60,VWS V14.01,2013-08-06 21:21:00,
2013-08-06 17:22:00,76.3,70.8,29.77,WNW,297,0.0,0.0,83,0.00,,---,0.60,VWS V14.01,2013-08-06 21:22:00,
2013-08-06 17:23:00,76.2,70.7,29.77,WNW,297,0.0,0.0,83,0.00,,---,0.60,VWS V14.01,2013-08-06 21:23:00,
2013-08-06 17:24:00,76.1,70.6,29.77,WNW,297,0.0,0.0,83,0.00,,---,0.60,VWS V14.01,2013-08-06 21:24:00,
2013-08-06 17:25:00,76.0,70.8,29.77,WNW,297,0.0,0.0,84,0.00,,---,0.60,VWS V14.01,2013-08-06 21:25:00,
2013-08-06 17:26:00,75.8,70.6,29.77,WNW,297,0.0,0.0,84,0.00,,---,0.60,VWS V14.01,2013-08-06 21:26:00,
2013-08-06 17:27:00,75.7,70.9,29.77,WNW,297,0.0,0.0,85,0.00,,---,0.60,VWS V14.01,2013-08-06 21:27:00,
2013-08-06 17:28:00,75.6,70.8,29.77,WNW,297,0.0,0.0,85,0.00,,---,0.60,VWS V14.01,2013-08-06 21:28:00,
2013-08-06 17:29:00,75.6,71.1,29.77,WNW,297,0.0,0.0,86,0.00,,---,0.60,VWS V14.01,2013-08-06 21:29:00,
2013-08-06 17:30:00,75.6,70.8,29.77,WNW,297,0.0,0.0,85,0.00,,---,0.60,VWS V14.01,2013-08-06 21:30:00,
2013-08-06 17:31:00,75.6,70.8,29.77,WNW,297,0.0,0.0,85,0.00,,---,0.60,VWS V14.01,2013-08-06 21:31:00,
2013-08-06 17:32:00,75.6,70.8,29.77,WNW,297,0.0,0.0,85,0.00,,---,0.60,VWS V14.01,2013-08-06 21:32:00,
2013-08-06 17:33:00,75.7,70.9,29.77,WNW,297,0.0,0.0,85,0.00,,---,0.60,VWS V14.01,2013-08-06 21:33:00,
2013-08-06 17:34:00,75.7,70.9,29.77,WNW,297,0.0,0.0,85,0.00,,---,0.60,VWS V14.01,2013-08-06 21:34:00,
2013-08-06 17:35:00,75.8,71.0,29.77,WNW,297,0.0,0.0,85,0.00,,---,0.60,VWS V14.01,2013-08-06 21:35:00,
2013-08-06 17:36:00,75.8,71.0,29.77,WNW,297,0.0,0.0,85,0.00,,---,0.60,VWS V14.01,2013-08-06 21:36:00,
2013-08-06 17:37:00,75.7,70.5,29.77,WNW,297,0.0,0.0,84,0.00,,---,0.60,VWS V14.01,2013-08-06 21:37:00,
2013-08-06 17:38:00,75.7,70.5,29.77,WNW,297,0.0,0.0,84,0.00,,---,0.60,VWS V14.01,2013-08-06 21:38:00,
2013-08-06 17:39:00,75.7,70.5,29.77,WNW,297,0.0,0.0,84,0.00,,---,0.60,VWS V14.01,2013-08-06 21:39:00,
2013-08-06 17:40:00,75.6,70.4,29.77,WNW,297,0.0,0.0,84,0.00,,---,0.60,VWS V14.01,2013-08-06 21:40:00,
2013-08-06 17:41:00,75.6,70.4,29.77,WNW,297,0.0,0.0,84,0.00,,---,0.60,VWS V14.01,2013-08-06 21:41:00,
2013-08-06 17:42:00,75.5,70.3,29.77,WNW,297,0.0,0.0,84,0.00,,---,0.60,VWS V14.01,2013-08-06 21:42:00,
2013-08-06 17:43:00,75.5,70.7,29.77,WNW,297,0.0,0.0,85,0.00,,---,0.60,VWS V14.01,2013-08-06 21:43:00,
2013-08-06 17:44:00,75.6,70.8,29.77,WNW,297,0.0,0.0,85,0.00,,---,0.60,VWS V14.01,2013-08-06 21:44:00,
2013-08-06 17:45:00,75.6,70.8,29.77,WNW,297,0.0,0.0,85,0.00,,---,0.60,VWS V14.01,2013-08-06 21:45:00,
2013-08-06 17:46:00,75.7,71.2,29.77,WNW,297,0.0,0.0,86,0.00,,---,0.60,VWS V14.01,2013-08-06 21:46:00,
2013-08-06 17:47:00,75.8,71.0,29.77,WNW,297,0.0,0.0,85,0.00,,---,0.60,VWS V14.01,2013-08-06 21:47:00,
2013-08-06 17:48:00,75.9,71.1,29.77,WNW,297,0.0,0.0,85,0.00,,---,0.60,VWS V14.01,2013-08-06 21:48:00,
2013-08-06 17:49:00,76.0,71.2,29.77,WNW,297,0.0,0.0,85,0.00,,---,0.60,VWS V14.01,2013-08-06 21:49:00,
2013-08-06 17:50:00,76.1,70.9,29.77,WNW,297,0.0,0.0,84,0.00,,---,0.60,VWS V14.01,2013-08-06 21:50:00,
2013-08-06 17:51:00,76.2,71.0,29.77,WNW,297,0.0,0.0,84,0.00,,---,0.60,VWS V14.01,2013-08-06 21:51:00,
2013-08-06 17:52:00,76.2,70.7,29.77,WNW,297,0.0,0.0,83,0.00,,---,0.60,VWS V14.01,2013-08-06 21:52:00,
2013-08-06 17:53:00,76.3,70.8,29.77,WNW,297,0.0,0.0,83,0.00,,---,0.60,VWS V14.01,2013-08-06 21:53:00,
2013-08-06 17:54:00,76.3,70.8,29.77,WNW,297,0.0,0.0,83,0.00,,---,0.60,VWS V14.01,2013-08-06 21:54:00,
2013-08-06 17:55:00,76.3,70.8,29.77,WNW,297,0.0,0.0,83,0.00,,---,0.60,VWS V14.01,2013-08-06 21:55:00,
2013-08-06 17:56:00,76.2,70.7,29.77,WNW,297,0.0,0.0,83,0.00,,---,0.60,VWS V14.01,2013-08-06 21:56:00,
2013-08-06 17:57:00,76.2,71.0,29.77,WNW,297,0.0,0.0,84,0.00,,---,0.60,VWS V14.01,2013-08-06 21:57:00,
2013-08-06 17:58:00,76.2,71.0,29.77,WNW,297,0.0,0.0,84,0.00,,---,0.60,VWS V14.01,2013-08-06 21:58:00,
2013-08-06 17:59:00,76.2,71.0,29.77,WNW,297,0.0,0.0,84,0.00,,---,0.60,VWS V14.01,2013-08-06 21:59:00,
2013-08-06 18:00:00,76.2,71.4,29.77,WNW,297,0.0,0.0,85,0.00,,---,0.60,VWS V14.01,2013-08-06 22:00:00,
2013-08-06 18:01:00,76.2,71.4,29.77,WNW,297,0.0,0.0,85,0.00,,---,0.60,VWS V14.01,2013-08-06 22:01:00,
2013-08-06 18:02:00,76.2,71.0,29.77,WNW,297,0.0,0.0,84,0.00,,---,0.60,VWS V14.01,2013-08-06 22:02:00,
2013-08-06 18:03:00,76.2,71.0,29.77,WNW,297,0.0,0.0,84,0.00,,---,0.60,VWS V14.01,2013-08-06 22:03:00,
2013-08-06 18:04:00,76.2,70.7,29.77,WNW,297,0.0,0.0,83,0.00,,---,0.60,VWS V14.01,2013-08-06 22:04:00,
2013-08-06 18:05:00,76.3,70.8,29.77,WNW,297,0.0,0.0,83,0.00,,---,0.60,VWS V14.01,2013-08-06 22:05:00,
2013-08-06 18:06:00,76.4,71.6,29.77,WNW,297,0.0,0.0,85,0.00,,---,0.60,VWS V14.01,2013-08-06 22:06:00,
2013-08-06 18:07:00,76.4,71.2,29.77,WNW,297,0.0,0.0,84,0.00,,---,0.60,VWS V14.01,2013-08-06 22:07:00,
2013-08-06 18:08:00,76.5,71.0,29.77,WNW,297,0.0,0.0,83,0.00,,---,0.60,VWS V14.01,2013-08-06 22:08:00,
2013-08-06 18:09:00,76.5,71.0,29.77,WNW,297,0.0,0.0,83,0.00,,---,0.60,VWS V14.01,2013-08-06 22:09:00,
2013-08-06 18:10:00,76.6,71.1,29.77,WNW,300,0.0,0.0,83,0.00,,---,0.60,VWS V14.01,2013-08-06 22:10:00,
2013-08-06 18:11:00,76.6,71.1,29.77,WNW,300,0.0,0.0,83,0.00,,---,0.60,VWS V14.01,2013-08-06 22:11:00,
2013-08-06 18:12:00,76.5,70.6,29.77,WNW,300,0.0,0.0,82,0.00,,---,0.60,VWS V14.01,2013-08-06 22:12:00,
2013-08-06 18:13:00,76.5,71.0,29.77,WNW,300,0.0,0.0,83,0.00,,---,0.60,VWS V14.01,2013-08-06 22:13:00,
2013-08-06 18:14:00,76.4,70.9,29.77,WNW,300,0.0,0.0,83,0.00,,---,0.60,VWS V14.01,2013-08-06 22:14:00,
2013-08-06 18:15:00,76.4,70.9,29.77,WNW,300,0.0,0.0,83,0.00,,---,0.60,VWS V14.01,2013-08-06 22:15:00,
2013-08-06 18:16:00,76.4,71.2,29.77,WNW,300,0.0,0.0,84,0.00,,---,0.60,VWS V14.01,2013-08-06 22:16:00,
2013-08-06 18:17:00,76.3,70.8,29.77,WNW,300,0.0,0.0,83,0.00,,---,0.60,VWS V14.01,2013-08-06 22:17:00,
2013-08-06 18:18:00,76.2,70.7,29.77,WNW,300,0.0,0.0,83,0.00,,---,0.60,VWS V14.01,2013-08-06 22:18:00,
2013-08-06 18:19:00,76.2,71.0,29.77,WNW,300,0.0,0.0,84,0.00,,---,0.60,VWS V14.01,2013-08-06 22:19:00,
2013-08-06 18:20:00,76.1,70.9,29.77,WNW,300,0.0,0.0,84,0.00,,---,0.60,VWS V14.01,2013-08-06 22:20:00,
2013-08-06 18:21:00,76.0,70.8,29.77,WNW,300,0.0,0.0,84,0.00,,---,0.60,VWS V14.01,2013-08-06 22:21:00,
2013-08-06 18:22:00,75.9,71.1,29.77,WNW,300,0.0,0.0,85,0.00,,---,0.60,VWS V14.01,2013-08-06 22:22:00,
2013-08-06 18:23:00,75.9,71.1,29.77,WNW,300,0.0,0.0,85,0.00,,---,0.60,VWS V14.01,2013-08-06 22:23:00,
2013-08-06 18:24:00,75.9,70.7,29.77,WNW,300,0.0,0.0,84,0.00,,---,0.60,VWS V14.01,2013-08-06 22:24:00,
2013-08-06 18:25:00,75.9,71.1,29.77,WNW,300,0.0,0.0,85,0.00,,---,0.60,VWS V14.01,2013-08-06 22:25:00,
2013-08-06 18:26:00,76.0,71.5,29.77,WNW,300,0.0,0.0,86,0.00,,---,0.60,VWS V14.01,2013-08-06 22:26:00,
2013-08-06 18:27:00,76.1,71.6,29.77,WNW,300,0.0,0.0,86,0.00,,---,0.60,VWS V14.01,2013-08-06 22:27:00,
2013-08-06 18:28:00,76.1,70.9,29.77,WNW,300,0.0,0.0,84,0.00,,---,0.60,VWS V14.01,2013-08-06 22:28:00,
2013-08-06 18:29:00,76.2,71.0,29.77,WNW,300,0.0,0.0,84,0.00,,---,0.60,VWS V14.01,2013-08-06 22:29:00,
2013-08-06 18:30:00,76.3,71.1,29.77,WNW,300,0.0,0.0,84,0.00,,---,0.60,VWS V14.01,2013-08-06 22:30:00,
2013-08-06 18:31:00,76.3,71.1,29.77,WNW,300,0.0,0.0,84,0.00,,---,0.60,VWS V14.01,2013-08-06 22:31:00,
2013-08-06 18:32:00,76.3,71.1,29.77,WNW,300,0.0,0.0,84,0.00,,---,0.60,VWS V14.01,2013-08-06 22:32:00,
2013-08-06 18:33:00,76.3,71.1,29.77,WNW,300,0.0,0.0,84,0.00,,---,0.60,VWS V14.01,2013-08-06 22:33:00,
2013-08-06 18:34:00,76.3,71.1,29.77,WNW,300,0.0,0.0,84,0.00,,---,0.60,VWS V14.01,2013-08-06 22:34:00,
2013-08-06 18:35:00,76.3,71.1,29.77,WNW,300,0.0,0.0,84,0.00,,---,0.60,VWS V14.01,2013-08-06 22:35:00,
2013-08-06 18:36:00,76.3,71.1,29.77,WNW,300,0.0,0.0,84,0.00,,---,0.60,VWS V14.01,2013-08-06 22:36:00,
2013-08-06 18:37:00,76.2,71.0,29.77,North,0,0.0,0.0,84,0.00,,---,0.60,VWS V14.01,2013-08-06 22:37:00,
2013-08-06 18:38:00,76.2,71.0,29.77,North,1,0.0,0.0,84,0.00,,---,0.60,VWS V14.01,2013-08-06 22:38:00,
2013-08-06 18:39:00,76.2,71.0,29.77,North,1,0.0,0.0,84,0.00,,---,0.60,VWS V14.01,2013-08-06 22:39:00,
2013-08-06 18:40:00,76.2,71.4,29.77,North,1,0.0,0.0,85,0.00,,---,0.60,VWS V14.01,2013-08-06 22:40:00,
2013-08-06 18:41:00,76.2,71.4,29.77,North,1,0.0,0.0,85,0.00,,---,0.60,VWS V14.01,2013-08-06 22:41:00,
2013-08-06 18:42:00,76.2,71.0,29.77,North,1,0.0,0.0,84,0.00,,---,0.60,VWS V14.01,2013-08-06 22:42:00,
2013-08-06 18:43:00,76.2,71.0,29.77,North,1,0.0,0.0,84,0.00,,---,0.60,VWS V14.01,2013-08-06 22:43:00,
2013-08-06 18:44:00,76.2,71.4,29.77,North,1,0.0,0.0,85,0.00,,---,0.60,VWS V14.01,2013-08-06 22:44:00,
2013-08-06 18:45:00,76.2,71.4,29.77,North,1,0.0,0.0,85,0.00,,---,0.60,VWS V14.01,2013-08-06 22:45:00,
2013-08-06 18:46:00,76.2,71.0,29.77,North,1,0.0,0.0,84,0.00,,---,0.60,VWS V14.01,2013-08-06 22:46:00,
2013-08-06 18:47:00,76.1,70.9,29.77,North,1,0.0,0.0,84,0.00,,---,0.60,VWS V14.01,2013-08-06 22:47:00,
2013-08-06 18:48:00,76.1,70.9,29.77,North,1,0.0,0.0,84,0.00,,---,0.60,VWS V14.01,2013-08-06 22:48:00,
2013-08-06 18:49:00,76.1,70.9,29.77,North,1,0.0,0.0,84,0.00,,---,0.60,VWS V14.01,2013-08-06 22:49:00,
2013-08-06 18:50:00,76.1,70.9,29.77,North,1,0.0,0.0,84,0.00,,---,0.60,VWS V14.01,2013-08-06 22:50:00,
2013-08-06 18:51:00,76.1,70.9,29.77,North,1,0.0,0.0,84,0.00,,---,0.60,VWS V14.01,2013-08-06 22:51:00,
2013-08-06 18:52:00,76.1,71.3,29.77,North,1,0.0,0.0,85,0.00,,---,0.60,VWS V14.01,2013-08-06 22:52:00,
2013-08-06 18:53:00,76.1,71.3,29.77,North,1,0.0,0.0,85,0.00,,---,0.60,VWS V14.01,2013-08-06 22:53:00,
2013-08-06 18:54:00,76.1,70.9,29.77,North,1,0.0,0.0,84,0.00,,---,0.60,VWS V14.01,2013-08-06 22:54:00,
2013-08-06 18:55:00,76.1,70.9,29.77,North,1,0.0,0.0,84,0.00,,---,0.60,VWS V14.01,2013-08-06 22:55:00,
2013-08-06 18:56:00,76.2,71.0,29.77,North,1,0.0,0.0,84,0.00,,---,0.60,VWS V14.01,2013-08-06 22:56:00,
2013-08-06 18:57:00,76.2,71.0,29.77,North,1,0.0,0.0,84,0.00,,---,0.60,VWS V14.01,2013-08-06 22:57:00,
2013-08-06 18:58:00,76.2,71.0,29.77,North,1,0.0,0.0,84,0.00,,---,0.60,VWS V14.01,2013-08-06 22:58:00,
2013-08-06 18:59:00,76.3,71.1,29.77,North,1,0.0,0.0,84,0.00,,---,0.60,VWS V14.01,2013-08-06 22:59:00,
2013-08-06 19:00:00,76.3,71.1,29.77,North,1,0.0,0.0,84,0.00,,---,0.60,VWS V14.01,2013-08-06 23:00:00,
2013-08-06 19:01:00,76.4,71.2,29.77,North,1,0.0,0.0,84,0.00,,---,0.60,VWS V14.01,2013-08-06 23:01:00,
2013-08-06 19:02:00,76.3,71.1,29.77,North,1,0.0,0.0,84,0.00,,---,0.60,VWS V14.01,2013-08-06 23:02:00,
2013-08-06 19:03:00,76.3,71.1,29.77,North,1,0.0,0.0,84,0.00,,---,0.60,VWS V14.01,2013-08-06 23:03:00,
2013-08-06 19:04:00,76.3,70.8,29.77,North,1,0.0,0.0,83,0.00,,---,0.60,VWS V14.01,2013-08-06 23:04:00,
2013-08-06 19:05:00,76.3,71.1,29.77,North,1,0.0,0.0,84,0.00,,---,0.60,VWS V14.01,2013-08-06 23:05:00,
2013-08-06 19:06:00,76.2,71.0,29.77,North,1,0.0,0.0,84,0.00,,---,0.60,VWS V14.01,2013-08-06 23:06:00,
2013-08-06 19:07:00,76.2,71.0,29.77,North,1,0.0,0.0,84,0.00,,---,0.60,VWS V14.01,2013-08-06 23:07:00,
2013-08-06 19:08:00,76.2,71.0,29.77,North,1,0.0,0.0,84,0.00,,---,0.60,VWS V14.01,2013-08-06 23:08:00,
2013-08-06 19:09:00,76.1,70.9,29.77,North,1,0.0,0.0,84,0.00,,---,0.60,VWS V14.01,2013-08-06 23:09:00,
2013-08-06 19:10:00,76.2,71.0,29.77,North,1,0.0,0.0,84,0.00,,---,0.60,VWS V14.01,2013-08-06 23:10:00,
2013-08-06 19:11:00,76.2,71.0,29.77,North,1,0.0,0.0,84,0.00,,---,0.60,VWS V14.01,2013-08-06 23:11:00,
2013-08-06 19:12:00,76.2,71.0,29.77,North,1,0.0,0.0,84,0.00,,---,0.60,VWS V14.01,2013-08-06 23:12:00,
2013-08-06 19:13:00,76.2,71.0,29.77,North,1,0.0,0.0,84,0.00,,---,0.60,VWS V14.01,2013-08-06 23:13:00,
2013-08-06 19:14:00,76.2,70.7,29.77,North,1,0.0,0.0,83,0.00,,---,0.60,VWS V14.01,2013-08-06 23:14:00,
2013-08-06 19:15:00,76.2,70.7,29.77,North,1,0.0,0.0,83,0.00,,---,0.60,VWS V14.01,2013-08-06 23:15:00,
2013-08-06 19:16:00,76.2,71.0,29.77,North,1,0.0,0.0,84,0.00,,---,0.60,VWS V14.01,2013-08-06 23:16:00,
2013-08-06 19:17:00,76.2,71.4,29.77,North,1,0.0,0.0,85,0.00,,---,0.60,VWS V14.01,2013-08-06 23:17:00,
2013-08-06 19:18:00,76.2,71.4,29.77,North,1,0.0,0.0,85,0.00,,---,0.60,VWS V14.01,2013-08-06 23:18:00,
2013-08-06 19:19:00,76.2,71.0,29.77,North,1,0.0,0.0,84,0.00,,---,0.60,VWS V14.01,2013-08-06 23:19:00,
2013-08-06 19:20:00,76.2,71.4,29.77,North,1,0.0,0.0,85,0.00,,---,0.60,VWS V14.01,2013-08-06 23:20:00,
2013-08-06 19:21:00,76.2,71.0,29.77,North,1,0.0,0.0,84,0.00,,---,0.60,VWS V14.01,2013-08-06 23:21:00,
2013-08-06 19:22:00,76.2,71.4,29.77,North,1,0.0,0.0,85,0.00,,---,0.60,VWS V14.01,2013-08-06 23:22:00,
2013-08-06 19:23:00,76.2,71.0,29.77,North,1,0.0,0.0,84,0.00,,---,0.60,VWS V14.01,2013-08-06 23:23:00,
2013-08-06 19:24:00,76.1,70.9,29.77,North,1,0.0,0.0,84,0.00,,---,0.60,VWS V14.01,2013-08-06 23:24:00,
2013-08-06 19:25:00,76.1,70.9,29.77,North,1,0.0,0.0,84,0.00,,---,0.60,VWS V14.01,2013-08-06 23:25:00,
2013-08-06 19:26:00,76.1,70.9,29.77,North,1,0.0,0.0,84,0.00,,---,0.60,VWS V14.01,2013-08-06 23:26:00,
2013-08-06 19:27:00,76.2,71.4,29.77,North,1,0.0,0.0,85,0.00,,---,0.60,VWS V14.01,2013-08-06 23:27:00,
2013-08-06 19:28:00,76.2,71.4,29.77,North,1,0.0,0.0,85,0.00,,---,0.60,VWS V14.01,2013-08-06 23:28:00,
2013-08-06 19:29:00,76.2,71.4,29.77,North,1,0.0,0.0,85,0.00,,---,0.60,VWS V14.01,2013-08-06 23:29:00,
2013-08-06 19:30:00,76.2,71.4,29.77,North,1,0.0,0.0,85,0.00,,---,0.60,VWS V14.01,2013-08-06 23:30:00,
2013-08-06 19:31:00,76.1,71.3,29.77,North,1,0.0,0.0,85,0.00,,---,0.60,VWS V14.01,2013-08-06 23:31:00,
2013-08-06 19:32:00,76.1,70.9,29.77,North,1,0.0,0.0,84,0.00,,---,0.60,VWS V14.01,2013-08-06 23:32:00,
2013-08-06 19:33:00,76.0,71.2,29.77,North,1,0.0,0.0,85,0.00,,---,0.60,VWS V14.01,2013-08-06 23:33:00,
2013-08-06 19:34:00,75.9,71.1,29.77,North,1,0.0,0.0,85,0.00,,---,0.60,VWS V14.01,2013-08-06 23:34:00,
2013-08-06 19:35:00,75.9,70.7,29.77,North,1,0.0,0.0,84,0.00,,---,0.60,VWS V14.01,2013-08-06 23:35:00,
2013-08-06 19:36:00,75.8,70.6,29.77,North,1,0.0,0.0,84,0.00,,---,0.60,VWS V14.01,2013-08-06 23:36:00,
2013-08-06 19:37:00,75.8,71.0,29.77,North,1,0.0,0.0,85,0.00,,---,0.60,VWS V14.01,2013-08-06 23:37:00,
2013-08-06 19:38:00,75.7,70.5,29.77,North,1,0.0,0.0,84,0.00,,---,0.60,VWS V14.01,2013-08-06 23:38:00,
2013-08-06 19:39:00,75.7,70.5,29.77,North,1,0.0,0.0,84,0.00,,---,0.60,VWS V14.01,2013-08-06 23:39:00,
2013-08-06 19:40:00,75.6,70.8,29.77,North,1,0.0,0.0,85,0.00,,---,0.60,VWS V14.01,2013-08-06 23:40:00,
2013-08-06 19:41:00,75.6,70.8,29.77,North,1,0.0,0.0,85,0.00,,---,0.60,VWS V14.01,2013-08-06 23:41:00,
2013-08-06 19:42:00,75.5,71.0,29.77,North,1,0.0,0.0,86,0.00,,---,0.60,VWS V14.01,2013-08-06 23:42:00,
2013-08-06 19:43:00,75.5,71.0,29.77,North,1,0.0,0.0,86,0.00,,---,0.60,VWS V14.01,2013-08-06 23:43:00,
2013-08-06 19:44:00,75.4,70.6,29.77,North,1,0.0,0.0,85,0.00,,---,0.60,VWS V14.01,2013-08-06 23:44:00,
2013-08-06 19:45:00,75.4,70.9,29.77,North,1,0.0,0.0,86,0.00,,---,0.60,VWS V14.01,2013-08-06 23:45:00,
2013-08-06 19:46:00,75.3,70.5,29.77,North,1,0.0,0.0,85,0.00,,---,0.60,VWS V14.01,2013-08-06 23:46:00,
2013-08-06 19:47:00,75.3,70.8,29.77,North,1,0.0,0.0,86,0.00,,---,0.60,VWS V14.01,2013-08-06 23:47:00,
2013-08-06 19:48:00,75.3,70.8,29.77,North,1,0.0,0.0,86,0.00,,---,0.60,VWS V14.01,2013-08-06 23:48:00,
2013-08-06 19:49:00,75.3,70.8,29.77,North,1,0.0,0.0,86,0.00,,---,0.60,VWS V14.01,2013-08-06 23:49:00,
2013-08-06 19:50:00,75.2,70.7,29.77,North,1,0.0,0.0,86,0.00,,---,0.60,VWS V14.01,2013-08-06 23:50:00,
2013-08-06 19:51:00,75.2,70.7,29.77,North,1,0.0,0.0,86,0.00,,---,0.60,VWS V14.01,2013-08-06 23:51:00,
2013-08-06 19:52:00,75.2,70.7,29.77,North,1,0.0,0.0,86,0.00,,---,0.60,VWS V14.01,2013-08-06 23:52:00,
2013-08-06 19:53:00,75.1,70.6,29.77,North,1,0.0,0.0,86,0.00,,---,0.60,VWS V14.01,2013-08-06 23:53:00,
2013-08-06 19:54:00,75.1,70.6,29.77,North,1,0.0,0.0,86,0.00,,---,0.60,VWS V14.01,2013-08-06 23:54:00,
2013-08-06 19:55:00,75.0,70.5,29.77,North,1,0.0,0.0,86,0.00,,---,0.60,VWS V14.01,2013-08-06 23:55:00,
2013-08-06 19:56:00,75.0,70.5,29.77,North,1,0.0,0.0,86,0.00,,---,0.60,VWS V14.01,2013-08-06 23:56:00,
2013-08-06 19:57:00,74.9,70.4,29.77,North,1,0.0,0.0,86,0.00,,---,0.60,VWS V14.01,2013-08-06 23:57:00,
2013-08-06 19:58:00,74.9,70.4,29.77,North,1,0.0,0.0,86,0.00,,---,0.60,VWS V14.01,2013-08-06 23:58:00,
2013-08-06 19:59:00,74.9,70.4,29.77,North,1,0.0,0.0,86,0.00,,---,0.60,VWS V14.01,2013-08-06 23:59:00,
2013-08-06 20:00:00,74.9,70.4,29.77,North,1,0.0,0.0,86,0.00,,---,0.60,VWS V14.01,2013-08-07 00:00:00,
2013-08-06 20:01:00,74.8,70.7,29.77,North,1,0.0,0.0,87,0.00,,---,0.60,VWS V14.01,2013-08-07 00:01:00,
2013-08-06 20:02:00,74.8,70.7,29.77,North,1,0.0,0.0,87,0.00,,---,0.60,VWS V14.01,2013-08-07 00:02:00,
2013-08-06 20:03:00,74.8,70.7,29.77,North,1,0.0,0.0,87,0.00,,---,0.60,VWS V14.01,2013-08-07 00:03:00,
2013-08-06 20:04:00,74.8,70.7,29.77,North,1,0.0,0.0,87,0.00,,---,0.60,VWS V14.01,2013-08-07 00:04:00,
2013-08-06 20:05:00,74.8,70.7,29.77,North,1,0.0,0.0,87,0.00,,---,0.60,VWS V14.01,2013-08-07 00:05:00,
2013-08-06 20:06:00,74.8,70.7,29.77,North,1,0.0,0.0,87,0.00,,---,0.60,VWS V14.01,2013-08-07 00:06:00,
2013-08-06 20:07:00,74.8,70.7,29.77,North,1,0.0,0.0,87,0.00,,---,0.60,VWS V14.01,2013-08-07 00:07:00,
2013-08-06 20:08:00,74.8,70.7,29.77,North,1,0.0,0.0,87,0.00,,---,0.60,VWS V14.01,2013-08-07 00:08:00,
2013-08-06 20:09:00,74.8,70.7,29.77,North,1,0.0,0.0,87,0.00,,---,0.60,VWS V14.01,2013-08-07 00:09:00,
2013-08-06 20:10:00,74.8,70.3,29.77,North,1,0.0,0.0,86,0.00,,---,0.60,VWS V14.01,2013-08-07 00:10:00,
2013-08-06 20:11:00,74.8,70.3,29.77,North,1,0.0,0.0,86,0.00,,---,0.60,VWS V14.01,2013-08-07 00:11:00,
2013-08-06 20:12:00,74.9,70.4,29.77,North,1,0.0,0.0,86,0.00,,---,0.60,VWS V14.01,2013-08-07 00:12:00,
2013-08-06 20:13:00,74.9,70.4,29.77,North,1,0.0,0.0,86,0.00,,---,0.60,VWS V14.01,2013-08-07 00:13:00,
2013-08-06 20:14:00,74.9,70.4,29.77,North,1,0.0,0.0,86,0.00,,---,0.60,VWS V14.01,2013-08-07 00:14:00,
2013-08-06 20:15:00,74.9,70.4,29.77,North,1,0.0,0.0,86,0.00,,---,0.60,VWS V14.01,2013-08-07 00:15:00,
2013-08-06 20:16:00,74.9,70.4,29.77,North,1,0.0,0.0,86,0.00,,---,0.60,VWS V14.01,2013-08-07 00:16:00,
2013-08-06 20:17:00,74.9,70.4,29.77,North,1,0.0,0.0,86,0.00,,---,0.60,VWS V14.01,2013-08-07 00:17:00,
2013-08-06 20:18:00,74.9,70.4,29.77,North,1,0.0,0.0,86,0.00,,---,0.60,VWS V14.01,2013-08-07 00:18:00,
2013-08-06 20:19:00,74.9,70.4,29.77,North,1,0.0,0.0,86,0.00,,---,0.60,VWS V14.01,2013-08-07 00:19:00,
2013-08-06 20:20:00,74.9,70.4,29.77,North,1,0.0,0.0,86,0.00,,---,0.60,VWS V14.01,2013-08-07 00:20:00,
2013-08-06 20:21:00,74.9,70.4,29.77,North,1,0.0,0.0,86,0.00,,---,0.60,VWS V14.01,2013-08-07 00:21:00,
2013-08-06 20:22:00,74.8,70.3,29.77,North,1,0.0,0.0,86,0.00,,---,0.60,VWS V14.01,2013-08-07 00:22:00,
2013-08-06 20:23:00,74.8,70.3,29.77,North,1,0.0,0.0,86,0.00,,---,0.60,VWS V14.01,2013-08-07 00:23:00,
2013-08-06 20:24:00,74.8,70.3,29.77,North,1,0.0,0.0,86,0.00,,---,0.60,VWS V14.01,2013-08-07 00:24:00,
2013-08-06 20:25:00,74.8,70.0,29.77,North,1,0.0,0.0,85,0.00,,---,0.60,VWS V14.01,2013-08-07 00:25:00,
2013-08-06 20:26:00,74.8,70.0,29.77,North,1,0.0,0.0,85,0.00,,---,0.60,VWS V14.01,2013-08-07 00:26:00,
2013-08-06 20:27:00,74.8,70.0,29.77,North,1,0.0,0.0,85,0.00,,---,0.60,VWS V14.01,2013-08-07 00:27:00,
2013-08-06 20:28:00,74.7,69.9,29.77,North,1,0.0,0.0,85,0.00,,---,0.60,VWS V14.01,2013-08-07 00:28:00,
2013-08-06 20:29:00,74.7,69.9,29.77,North,1,0.0,0.0,85,0.00,,---,0.60,VWS V14.01,2013-08-07 00:29:00,
2013-08-06 20:30:00,74.7,69.9,29.77,North,1,0.0,0.0,85,0.00,,---,0.60,VWS V14.01,2013-08-07 00:30:00,
2013-08-06 20:31:00,74.7,69.9,29.77,North,1,0.0,0.0,85,0.00,,---,0.60,VWS V14.01,2013-08-07 00:31:00,
2013-08-06 20:32:00,74.6,69.8,29.77,North,1,0.0,0.0,85,0.00,,---,0.60,VWS V14.01,2013-08-07 00:32:00,
2013-08-06 20:33:00,74.6,69.8,29.77,North,1,0.0,0.0,85,0.00,,---,0.60,VWS V14.01,2013-08-07 00:33:00,
2013-08-06 20:34:00,74.6,69.8,29.77,North,1,0.0,0.0,85,0.00,,---,0.60,VWS V14.01,2013-08-07 00:34:00,
2013-08-06 20:35:00,74.6,69.8,29.77,North,1,0.0,0.0,85,0.00,,---,0.60,VWS V14.01,2013-08-07 00:35:00,
2013-08-06 20:36:00,74.5,69.7,29.77,North,1,0.0,0.0,85,0.00,,---,0.60,VWS V14.01,2013-08-07 00:36:00,
2013-08-06 20:37:00,74.5,69.7,29.77,North,1,0.0,0.0,85,0.00,,---,0.60,VWS V14.01,2013-08-07 00:37:00,
2013-08-06 20:38:00,74.5,69.7,29.77,North,1,0.0,0.0,85,0.00,,---,0.60,VWS V14.01,2013-08-07 00:38:00,
2013-08-06 20:39:00,74.4,69.6,29.77,North,1,0.0,0.0,85,0.00,,---,0.60,VWS V14.01,2013-08-07 00:39:00,
2013-08-06 20:40:00,74.4,69.6,29.77,North,1,0.0,0.0,85,0.00,,---,0.60,VWS V14.01,2013-08-07 00:40:00,
2013-08-06 20:41:00,74.4,69.6,29.77,North,1,0.0,0.0,85,0.00,,---,0.60,VWS V14.01,2013-08-07 00:41:00,
2013-08-06 20:42:00,74.3,69.5,29.77,North,1,0.0,0.0,85,0.00,,---,0.60,VWS V14.01,2013-08-07 00:42:00,
2013-08-06 20:43:00,74.3,69.5,29.77,North,1,0.0,0.0,85,0.00,,---,0.60,VWS V14.01,2013-08-07 00:43:00,
2013-08-06 20:44:00,74.3,69.5,29.77,North,1,0.0,0.0,85,0.00,,---,0.60,VWS V14.01,2013-08-07 00:44:00,
2013-08-06 20:45:00,74.2,69.4,29.78,North,1,0.0,0.0,85,0.00,,---,0.60,VWS V14.01,2013-08-07 00:45:00,
2013-08-06 20:46:00,74.2,69.8,29.78,North,1,0.0,0.0,86,0.00,,---,0.60,VWS V14.01,2013-08-07 00:46:00,
2013-08-06 20:47:00,74.2,69.8,29.78,North,1,0.0,0.0,86,0.00,,---,0.60,VWS V14.01,2013-08-07 00:47:00,
2013-08-06 20:48:00,74.2,69.8,29.78,North,1,0.0,0.0,86,0.00,,---,0.60,VWS V14.01,2013-08-07 00:48:00,
2013-08-06 20:49:00,74.1,69.7,29.78,North,1,0.0,0.0,86,0.00,,---,0.60,VWS V14.01,2013-08-07 00:49:00,
2013-08-06 20:50:00,74.1,69.7,29.78,North,1,0.0,0.0,86,0.00,,---,0.60,VWS V14.01,2013-08-07 00:50:00,
2013-08-06 20:51:00,74.1,69.7,29.78,North,1,0.0,0.0,86,0.00,,---,0.60,VWS V14.01,2013-08-07 00:51:00,
2013-08-06 20:52:00,74.0,69.6,29.78,North,1,0.0,0.0,86,0.00,,---,0.60,VWS V14.01,2013-08-07 00:52:00,
2013-08-06 20:53:00,74.0,69.6,29.78,North,1,0.0,0.0,86,0.00,,---,0.60,VWS V14.01,2013-08-07 00:53:00,
2013-08-06 20:54:00,74.0,69.6,29.78,North,1,0.0,0.0,86,0.00,,---,0.60,VWS V14.01,2013-08-07 00:54:00,
2013-08-06 20:55:00,73.9,69.4,29.78,North,1,0.0,0.0,86,0.00,,---,0.60,VWS V14.01,2013-08-07 00:55:00,
2013-08-06 20:56:00,73.9,69.4,29.78,North,1,0.0,0.0,86,0.00,,---,0.60,VWS V14.01,2013-08-07 00:56:00,
2013-08-06 20:57:00,73.9,69.4,29.78,North,1,0.0,0.0,86,0.00,,---,0.60,VWS V14.01,2013-08-07 00:57:00,
2013-08-06 20:58:00,73.9,69.4,29.78,North,1,0.0,0.0,86,0.00,,---,0.60,VWS V14.01,2013-08-07 00:58:00,
2013-08-06 20:59:00,73.8,69.3,29.78,North,1,0.0,0.0,86,0.00,,---,0.60,VWS V14.01,2013-08-07 00:59:00,
2013-08-06 21:00:00,73.8,69.3,29.78,North,1,0.0,0.0,86,0.00,,---,0.60,VWS V14.01,2013-08-07 01:00:00,
2013-08-06 21:01:00,73.8,69.3,29.78,North,1,0.0,0.0,86,0.00,,---,0.60,VWS V14.01,2013-08-07 01:01:00,
2013-08-06 21:02:00,73.7,69.3,29.78,North,1,0.0,0.0,86,0.00,,---,0.60,VWS V14.01,2013-08-07 01:02:00,
2013-08-06 21:03:00,73.7,69.3,29.78,North,1,0.0,0.0,86,0.00,,---,0.60,VWS V14.01,2013-08-07 01:03:00,
2013-08-06 21:04:00,73.7,69.3,29.78,North,1,0.0,0.0,86,0.00,,---,0.60,VWS V14.01,2013-08-07 01:04:00,
2013-08-06 21:05:00,73.6,69.2,29.78,North,1,0.0,0.0,86,0.00,,---,0.60,VWS V14.01,2013-08-07 01:05:00,
2013-08-06 21:06:00,73.6,69.2,29.78,North,1,0.0,0.0,86,0.00,,---,0.60,VWS V14.01,2013-08-07 01:06:00,
2013-08-06 21:07:00,73.5,69.1,29.78,North,1,0.0,0.0,86,0.00,,---,0.60,VWS V14.01,2013-08-07 01:07:00,
2013-08-06 21:08:00,73.5,69.1,29.78,North,1,0.0,0.0,86,0.00,,---,0.60,VWS V14.01,2013-08-07 01:08:00,
2013-08-06 21:09:00,73.5,69.4,29.78,North,1,0.0,0.0,87,0.00,,---,0.60,VWS V14.01,2013-08-07 01:09:00,
2013-08-06 21:10:00,73.5,69.4,29.78,North,1,0.0,0.0,87,0.00,,---,0.60,VWS V14.01,2013-08-07 01:10:00,
2013-08-06 21:11:00,73.4,69.3,29.78,North,1,0.0,0.0,87,0.00,,---,0.60,VWS V14.01,2013-08-07 01:11:00,
2013-08-06 21:12:00,73.4,69.3,29.78,North,1,0.0,0.0,87,0.00,,---,0.60,VWS V14.01,2013-08-07 01:12:00,
2013-08-06 21:13:00,73.4,69.3,29.78,North,1,0.0,0.0,87,0.00,,---,0.60,VWS V14.01,2013-08-07 01:13:00,
2013-08-06 21:14:00,73.3,69.2,29.78,North,1,0.0,0.0,87,0.00,,---,0.60,VWS V14.01,2013-08-07 01:14:00,
2013-08-06 21:15:00,73.3,69.2,29.77,North,1,0.0,0.0,87,0.00,,---,0.60,VWS V14.01,2013-08-07 01:15:00,
2013-08-06 21:16:00,73.3,69.2,29.77,North,1,0.0,0.0,87,0.00,,---,0.60,VWS V14.01,2013-08-07 01:16:00,
2013-08-06 21:17:00,73.3,69.2,29.77,North,1,0.0,0.0,87,0.00,,---,0.60,VWS V14.01,2013-08-07 01:17:00,
2013-08-06 21:18:00,73.2,69.1,29.77,North,1,0.0,0.0,87,0.00,,---,0.60,VWS V14.01,2013-08-07 01:18:00,
2013-08-06 21:19:00,73.2,69.1,29.77,North,1,0.0,0.0,87,0.00,,---,0.60,VWS V14.01,2013-08-07 01:19:00,
2013-08-06 21:20:00,73.2,69.1,29.77,North,1,0.0,0.0,87,0.00,,---,0.60,VWS V14.01,2013-08-07 01:20:00,
2013-08-06 21:21:00,73.1,69.0,29.77,North,1,0.0,0.0,87,0.00,,---,0.60,VWS V14.01,2013-08-07 01:21:00,
2013-08-06 21:22:00,73.1,69.0,29.77,North,1,0.0,0.0,87,0.00,,---,0.60,VWS V14.01,2013-08-07 01:22:00,
2013-08-06 21:23:00,73.1,69.0,29.77,North,1,0.0,0.0,87,0.00,,---,0.60,VWS V14.01,2013-08-07 01:23:00,
2013-08-06 21:24:00,73.0,68.9,29.77,North,1,0.0,0.0,87,0.00,,---,0.60,VWS V14.01,2013-08-07 01:24:00,
2013-08-06 21:25:00,73.0,68.9,29.77,North,1,0.0,0.0,87,0.00,,---,0.60,VWS V14.01,2013-08-07 01:25:00,
2013-08-06 21:26:00,73.0,68.9,29.77,North,1,0.0,0.0,87,0.00,,---,0.60,VWS V14.01,2013-08-07 01:26:00,
2013-08-06 21:27:00,72.9,68.8,29.77,North,1,0.0,0.0,87,0.00,,---,0.60,VWS V14.01,2013-08-07 01:27:00,
2013-08-06 21:28:00,72.9,68.8,29.77,North,1,0.0,0.0,87,0.00,,---,0.60,VWS V14.01,2013-08-07 01:28:00,
2013-08-06 21:29:00,72.9,68.8,29.77,North,1,0.0,0.0,87,0.00,,---,0.60,VWS V14.01,2013-08-07 01:29:00,
2013-08-06 21:30:00,72.9,68.8,29.78,North,1,0.0,0.0,87,0.00,,---,0.60,VWS V14.01,2013-08-07 01:30:00,
2013-08-06 21:31:00,72.8,69.0,29.78,North,1,0.0,0.0,88,0.00,,---,0.60,VWS V14.01,2013-08-07 01:31:00,
2013-08-06 21:32:00,72.8,69.0,29.78,North,1,0.0,0.0,88,0.00,,---,0.60,VWS V14.01,2013-08-07 01:32:00,
2013-08-06 21:33:00,72.8,69.0,29.78,North,1,0.0,0.0,88,0.00,,---,0.60,VWS V14.01,2013-08-07 01:33:00,
2013-08-06 21:34:00,72.8,69.0,29.78,North,1,0.0,0.0,88,0.00,,---,0.60,VWS V14.01,2013-08-07 01:34:00,
2013-08-06 21:35:00,72.7,68.9,29.78,North,1,0.0,0.0,88,0.00,,---,0.60,VWS V14.01,2013-08-07 01:35:00,
2013-08-06 21:36:00,72.7,68.9,29.78,North,1,0.0,0.0,88,0.00,,---,0.60,VWS V14.01,2013-08-07 01:36:00,
2013-08-06 21:37:00,72.7,68.9,29.78,North,1,0.0,0.0,88,0.00,,---,0.60,VWS V14.01,2013-08-07 01:37:00,
2013-08-06 21:38:00,72.7,69.3,29.78,North,1,0.0,0.0,89,0.00,,---,0.60,VWS V14.01,2013-08-07 01:38:00,
2013-08-06 21:39:00,72.6,69.2,29.78,North,1,0.0,0.0,89,0.00,,---,0.60,VWS V14.01,2013-08-07 01:39:00,
2013-08-06 21:40:00,72.6,69.2,29.78,North,1,0.0,0.0,89,0.00,,---,0.60,VWS V14.01,2013-08-07 01:40:00,
2013-08-06 21:41:00,72.6,69.2,29.78,North,1,0.0,0.0,89,0.00,,---,0.60,VWS V14.01,2013-08-07 01:41:00,
2013-08-06 21:42:00,72.5,69.1,29.78,North,1,0.0,0.0,89,0.00,,---,0.60,VWS V14.01,2013-08-07 01:42:00,
2013-08-06 21:43:00,72.5,69.1,29.78,North,1,0.0,0.0,89,0.00,,---,0.60,VWS V14.01,2013-08-07 01:43:00,
2013-08-06 21:44:00,72.5,69.1,29.78,North,1,0.0,0.0,89,0.00,,---,0.60,VWS V14.01,2013-08-07 01:44:00,
2013-08-06 21:45:00,72.4,68.7,29.77,North,1,0.0,0.0,88,0.00,,---,0.60,VWS V14.01,2013-08-07 01:45:00,
2013-08-06 21:46:00,72.4,68.7,29.77,North,1,0.0,0.0,88,0.00,,---,0.60,VWS V14.01,2013-08-07 01:46:00,
2013-08-06 21:47:00,72.4,68.7,29.77,North,1,0.0,0.0,88,0.00,,---,0.60,VWS V14.01,2013-08-07 01:47:00,
2013-08-06 21:48:00,72.4,68.7,29.77,North,1,0.0,0.0,88,0.00,,---,0.60,VWS V14.01,2013-08-07 01:48:00,
2013-08-06 21:49:00,72.3,68.9,29.77,North,1,0.0,0.0,89,0.00,,---,0.60,VWS V14.01,2013-08-07 01:49:00,
2013-08-06 21:50:00,72.3,68.9,29.77,North,1,0.0,0.0,89,0.00,,---,0.60,VWS V14.01,2013-08-07 01:50:00,
2013-08-06 21:51:00,72.3,68.9,29.77,North,1,0.0,0.0,89,0.00,,---,0.60,VWS V14.01,2013-08-07 01:51:00,
2013-08-06 21:52:00,72.2,68.8,29.77,North,1,0.0,0.0,89,0.00,,---,0.60,VWS V14.01,2013-08-07 01:52:00,
2013-08-06 21:53:00,72.2,68.8,29.77,North,1,0.0,0.0,89,0.00,,---,0.60,VWS V14.01,2013-08-07 01:53:00,
2013-08-06 21:54:00,72.2,68.8,29.77,North,1,0.0,0.0,89,0.00,,---,0.60,VWS V14.01,2013-08-07 01:54:00,
2013-08-06 21:55:00,72.2,68.8,29.77,North,1,0.0,0.0,89,0.00,,---,0.60,VWS V14.01,2013-08-07 01:55:00,
2013-08-06 21:56:00,72.2,68.8,29.77,North,1,0.0,0.0,89,0.00,,---,0.60,VWS V14.01,2013-08-07 01:56:00,
2013-08-06 21:57:00,72.1,68.7,29.77,North,1,0.0,0.0,89,0.00,,---,0.60,VWS V14.01,2013-08-07 01:57:00,
2013-08-06 21:58:00,72.1,68.7,29.77,North,1,0.0,0.0,89,0.00,,---,0.60,VWS V14.01,2013-08-07 01:58:00,
2013-08-06 21:59:00,72.1,68.7,29.77,North,1,0.0,0.0,89,0.00,,---,0.60,VWS V14.01,2013-08-07 01:59:00,
2013-08-06 22:00:00,72.1,68.7,29.78,North,1,0.0,0.0,89,0.00,,---,0.60,VWS V14.01,2013-08-07 02:00:00,
2013-08-06 22:01:00,72.0,68.6,29.78,North,1,0.0,0.0,89,0.00,,---,0.60,VWS V14.01,2013-08-07 02:01:00,
2013-08-06 22:02:00,72.0,68.6,29.78,North,1,0.0,0.0,89,0.00,,---,0.60,VWS V14.01,2013-08-07 02:02:00,
2013-08-06 22:03:00,72.0,68.6,29.78,North,1,0.0,0.0,89,0.00,,---,0.60,VWS V14.01,2013-08-07 02:03:00,
2013-08-06 22:04:00,72.0,68.6,29.78,North,1,0.0,0.0,89,0.00,,---,0.60,VWS V14.01,2013-08-07 02:04:00,
2013-08-06 22:05:00,71.9,68.5,29.78,North,1,0.0,0.0,89,0.00,,---,0.60,VWS V14.01,2013-08-07 02:05:00,
2013-08-06 22:06:00,71.9,68.5,29.78,North,1,0.0,0.0,89,0.00,,---,0.60,VWS V14.01,2013-08-07 02:06:00,
2013-08-06 22:07:00,71.9,68.8,29.78,North,1,0.0,0.0,90,0.00,,---,0.60,VWS V14.01,2013-08-07 02:07:00,
2013-08-06 22:08:00,71.9,68.8,29.78,North,1,0.0,0.0,90,0.00,,---,0.60,VWS V14.01,2013-08-07 02:08:00,
2013-08-06 22:09:00,71.9,68.8,29.78,North,1,0.0,0.0,90,0.00,,---,0.60,VWS V14.01,2013-08-07 02:09:00,
2013-08-06 22:10:00,71.8,68.4,29.78,North,1,0.0,0.0,89,0.00,,---,0.60,VWS V14.01,2013-08-07 02:10:00,
2013-08-06 22:11:00,71.8,68.4,29.78,North,1,0.0,0.0,89,0.00,,---,0.60,VWS V14.01,2013-08-07 02:11:00,
2013-08-06 22:12:00,71.8,68.4,29.78,North,1,0.0,0.0,89,0.00,,---,0.60,VWS V14.01,2013-08-07 02:12:00,
2013-08-06 22:13:00,71.7,68.3,29.78,North,1,0.0,0.0,89,0.00,,---,0.60,VWS V14.01,2013-08-07 02:13:00,
2013-08-06 22:14:00,71.7,68.3,29.78,North,1,0.0,0.0,89,0.00,,---,0.60,VWS V14.01,2013-08-07 02:14:00,
2013-08-06 22:15:00,71.7,68.3,29.78,North,1,0.0,0.0,89,0.00,,---,0.60,VWS V14.01,2013-08-07 02:15:00,
2013-08-06 22:16:00,71.7,68.3,29.78,North,1,0.0,0.0,89,0.00,,---,0.60,VWS V14.01,2013-08-07 02:16:00,
2013-08-06 22:17:00,71.7,68.3,29.78,North,1,0.0,0.0,89,0.00,,---,0.60,VWS V14.01,2013-08-07 02:17:00,
2013-08-06 22:18:00,71.6,68.5,29.78,North,1,0.0,0.0,90,0.00,,---,0.60,VWS V14.01,2013-08-07 02:18:00,
2013-08-06 22:19:00,71.6,68.5,29.78,North,1,0.0,0.0,90,0.00,,---,0.60,VWS V14.01,2013-08-07 02:19:00,
2013-08-06 22:20:00,71.6,68.5,29.78,North,1,0.0,0.0,90,0.00,,---,0.60,VWS V14.01,2013-08-07 02:20:00,
2013-08-06 22:21:00,71.6,68.5,29.78,North,1,0.0,0.0,90,0.00,,---,0.60,VWS V14.01,2013-08-07 02:21:00,
2013-08-06 22:22:00,71.5,68.4,29.78,North,1,0.0,0.0,90,0.00,,---,0.60,VWS V14.01,2013-08-07 02:22:00,
2013-08-06 22:23:00,71.5,68.4,29.78,North,1,0.0,0.0,90,0.00,,---,0.60,VWS V14.01,2013-08-07 02:23:00,
2013-08-06 22:24:00,71.5,68.4,29.78,North,1,0.0,0.0,90,0.00,,---,0.60,VWS V14.01,2013-08-07 02:24:00,
2013-08-06 22:25:00,71.5,68.4,29.78,North,1,0.0,0.0,90,0.00,,---,0.60,VWS V14.01,2013-08-07 02:25:00,
2013-08-06 22:26:00,71.4,68.3,29.78,North,1,0.0,0.0,90,0.00,,---,0.60,VWS V14.01,2013-08-07 02:26:00,
2013-08-06 22:27:00,71.4,68.3,29.78,North,1,0.0,0.0,90,0.00,,---,0.60,VWS V14.01,2013-08-07 02:27:00,
2013-08-06 22:28:00,71.4,68.3,29.78,North,1,0.0,0.0,90,0.00,,---,0.60,VWS V14.01,2013-08-07 02:28:00,
2013-08-06 22:29:00,71.3,68.2,29.78,North,1,0.0,0.0,90,0.00,,---,0.60,VWS V14.01,2013-08-07 02:29:00,
2013-08-06 22:30:00,71.3,68.2,29.78,North,1,0.0,0.0,90,0.00,,---,0.60,VWS V14.01,2013-08-07 02:30:00,
2013-08-06 22:31:00,71.3,68.2,29.78,North,1,0.0,0.0,90,0.00,,---,0.60,VWS V14.01,2013-08-07 02:31:00,
2013-08-06 22:32:00,71.3,68.5,29.78,North,1,0.0,0.0,91,0.00,,---,0.60,VWS V14.01,2013-08-07 02:32:00,
2013-08-06 22:33:00,71.3,68.5,29.78,North,1,0.0,0.0,91,0.00,,---,0.60,VWS V14.01,2013-08-07 02:33:00,
2013-08-06 22:34:00,71.3,68.5,29.78,North,1,0.0,0.0,91,0.00,,---,0.60,VWS V14.01,2013-08-07 02:34:00,
2013-08-06 22:35:00,71.3,68.5,29.78,North,1,0.0,0.0,91,0.00,,---,0.60,VWS V14.01,2013-08-07 02:35:00,
2013-08-06 22:36:00,71.2,68.4,29.78,North,1,0.0,0.0,91,0.00,,---,0.60,VWS V14.01,2013-08-07 02:36:00,
2013-08-06 22:37:00,71.2,68.4,29.78,North,1,0.0,0.0,91,0.00,,---,0.60,VWS V14.01,2013-08-07 02:37:00,
2013-08-06 22:38:00,71.2,68.4,29.78,North,1,0.0,0.0,91,0.00,,---,0.60,VWS V14.01,2013-08-07 02:38:00,
2013-08-06 22:39:00,71.2,68.4,29.78,North,1,0.0,0.0,91,0.00,,---,0.60,VWS V14.01,2013-08-07 02:39:00,
2013-08-06 22:40:00,71.2,68.4,29.78,North,1,0.0,0.0,91,0.00,,---,0.60,VWS V14.01,2013-08-07 02:40:00,
2013-08-06 22:41:00,71.2,68.4,29.78,North,1,0.0,0.0,91,0.00,,---,0.60,VWS V14.01,2013-08-07 02:41:00,
2013-08-06 22:42:00,71.1,68.3,29.78,North,1,0.0,0.0,91,0.00,,---,0.60,VWS V14.01,2013-08-07 02:42:00,
2013-08-06 22:43:00,71.1,68.3,29.78,North,1,0.0,0.0,91,0.00,,---,0.60,VWS V14.01,2013-08-07 02:43:00,
2013-08-06 22:44:00,71.1,68.3,29.78,North,1,0.0,0.0,91,0.00,,---,0.60,VWS V14.01,2013-08-07 02:44:00,
2013-08-06 22:45:00,71.1,68.3,29.78,North,1,0.0,0.0,91,0.00,,---,0.60,VWS V14.01,2013-08-07 02:45:00,
2013-08-06 22:46:00,71.0,68.2,29.78,North,1,0.0,0.0,91,0.00,,---,0.60,VWS V14.01,2013-08-07 02:46:00,
2013-08-06 22:47:00,71.0,68.2,29.78,North,1,0.0,0.0,91,0.00,,---,0.60,VWS V14.01,2013-08-07 02:47:00,
2013-08-06 22:48:00,71.0,68.2,29.78,North,1,0.0,0.0,91,0.00,,---,0.60,VWS V14.01,2013-08-07 02:48:00,
2013-08-06 22:49:00,71.0,68.2,29.78,North,1,0.0,0.0,91,0.00,,---,0.60,VWS V14.01,2013-08-07 02:49:00,
2013-08-06 22:50:00,71.0,68.2,29.78,North,1,0.0,0.0,91,0.00,,---,0.60,VWS V14.01,2013-08-07 02:50:00,
2013-08-06 22:51:00,71.0,68.2,29.78,North,1,0.0,0.0,91,0.00,,---,0.60,VWS V14.01,2013-08-07 02:51:00,
2013-08-06 22:52:00,70.9,68.5,29.78,North,1,0.0,0.0,92,0.00,,---,0.60,VWS V14.01,2013-08-07 02:52:00,
2013-08-06 22:53:00,70.9,68.5,29.78,North,1,0.0,0.0,92,0.00,,---,0.60,VWS V14.01,2013-08-07 02:53:00,
2013-08-06 22:54:00,70.9,68.5,29.78,North,1,0.0,0.0,92,0.00,,---,0.60,VWS V14.01,2013-08-07 02:54:00,
2013-08-06 22:55:00,70.9,68.5,29.78,North,1,0.0,0.0,92,0.00,,---,0.60,VWS V14.01,2013-08-07 02:55:00,
2013-08-06 22:56:00,70.8,68.4,29.78,North,1,0.0,0.0,92,0.00,,---,0.60,VWS V14.01,2013-08-07 02:56:00,
2013-08-06 22:57:00,70.8,68.4,29.78,North,1,0.0,0.0,92,0.00,,---,0.60,VWS V14.01,2013-08-07 02:57:00,
2013-08-06 22:58:00,70.8,68.4,29.78,North,1,0.0,0.0,92,0.00,,---,0.60,VWS V14.01,2013-08-07 02:58:00,
2013-08-06 22:59:00,70.8,68.4,29.78,North,1,0.0,0.0,92,0.00,,---,0.60,VWS V14.01,2013-08-07 02:59:00,
2013-08-06 23:00:00,70.7,68.3,29.78,North,1,0.0,0.0,92,0.00,,---,0.60,VWS V14.01,2013-08-07 03:00:00,
2013-08-06 23:01:00,70.7,68.3,29.78,North,1,0.0,0.0,92,0.00,,---,0.60,VWS V14.01,2013-08-07 03:01:00,
2013-08-06 23:02:00,70.7,68.3,29.78,North,1,0.0,0.0,92,0.00,,---,0.60,VWS V14.01,2013-08-07 03:02:00,
2013-08-06 23:03:00,70.7,68.3,29.78,North,1,0.0,0.0,92,0.00,,---,0.60,VWS V14.01,2013-08-07 03:03:00,
2013-08-06 23:04:00,70.6,68.2,29.78,North,1,0.0,0.0,92,0.00,,---,0.60,VWS V14.01,2013-08-07 03:04:00,
2013-08-06 23:05:00,70.6,68.2,29.78,North,1,0.0,0.0,92,0.00,,---,0.60,VWS V14.01,2013-08-07 03:05:00,
2013-08-06 23:06:00,70.6,68.2,29.78,North,1,0.0,0.0,92,0.00,,---,0.60,VWS V14.01,2013-08-07 03:06:00,
2013-08-06 23:07:00,70.6,68.2,29.78,North,1,0.0,0.0,92,0.00,,---,0.60,VWS V14.01,2013-08-07 03:07:00,
2013-08-06 23:08:00,70.6,68.2,29.78,North,1,0.0,0.0,92,0.00,,---,0.60,VWS V14.01,2013-08-07 03:08:00,
2013-08-06 23:09:00,70.6,68.2,29.78,North,1,0.0,0.0,92,0.00,,---,0.60,VWS V14.01,2013-08-07 03:09:00,
2013-08-06 23:10:00,70.5,68.1,29.78,North,1,0.0,0.0,92,0.00,,---,0.60,VWS V14.01,2013-08-07 03:10:00,
2013-08-06 23:11:00,70.5,68.1,29.78,North,1,0.0,0.0,92,0.00,,---,0.60,VWS V14.01,2013-08-07 03:11:00,
2013-08-06 23:12:00,70.5,68.1,29.78,North,1,0.0,0.0,92,0.00,,---,0.60,VWS V14.01,2013-08-07 03:12:00,
2013-08-06 23:13:00,70.5,68.1,29.78,North,1,0.0,0.0,92,0.00,,---,0.60,VWS V14.01,2013-08-07 03:13:00,
2013-08-06 23:14:00,70.5,68.1,29.78,North,1,0.0,0.0,92,0.00,,---,0.60,VWS V14.01,2013-08-07 03:14:00,
2013-08-06 23:15:00,70.4,68.0,29.78,North,1,0.0,0.0,92,0.00,,---,0.60,VWS V14.01,2013-08-07 03:15:00,
2013-08-06 23:16:00,70.4,68.0,29.78,North,1,0.0,0.0,92,0.00,,---,0.60,VWS V14.01,2013-08-07 03:16:00,
2013-08-06 23:17:00,70.4,68.0,29.78,North,1,0.0,0.0,92,0.00,,---,0.60,VWS V14.01,2013-08-07 03:17:00,
2013-08-06 23:18:00,70.4,68.0,29.78,North,1,0.0,0.0,92,0.00,,---,0.60,VWS V14.01,2013-08-07 03:18:00,
2013-08-06 23:19:00,70.4,68.3,29.78,North,1,0.0,0.0,93,0.00,,---,0.60,VWS V14.01,2013-08-07 03:19:00,
2013-08-06 23:20:00,70.4,68.3,29.78,North,1,0.0,0.0,93,0.00,,---,0.60,VWS V14.01,2013-08-07 03:20:00,
2013-08-06 23:21:00,70.3,68.2,29.78,North,1,0.0,0.0,93,0.00,,---,0.60,VWS V14.01,2013-08-07 03:21:00,
2013-08-06 23:22:00,70.3,68.2,29.78,North,1,0.0,0.0,93,0.00,,---,0.60,VWS V14.01,2013-08-07 03:22:00,
2013-08-06 23:23:00,70.3,68.2,29.78,North,1,0.0,0.0,93,0.00,,---,0.60,VWS V14.01,2013-08-07 03:23:00,
2013-08-06 23:24:00,70.3,68.2,29.78,North,1,0.0,0.0,93,0.00,,---,0.60,VWS V14.01,2013-08-07 03:24:00,
2013-08-06 23:25:00,70.3,68.2,29.78,North,1,0.0,0.0,93,0.00,,---,0.60,VWS V14.01,2013-08-07 03:25:00,
2013-08-06 23:26:00,70.2,68.1,29.78,North,1,0.0,0.0,93,0.00,,---,0.60,VWS V14.01,2013-08-07 03:26:00,
2013-08-06 23:27:00,70.2,68.1,29.78,North,1,0.0,0.0,93,0.00,,---,0.60,VWS V14.01,2013-08-07 03:27:00,
2013-08-06 23:28:00,70.2,68.1,29.78,North,1,0.0,0.0,93,0.00,,---,0.60,VWS V14.01,2013-08-07 03:28:00,
2013-08-06 23:29:00,70.2,68.1,29.78,North,1,0.0,0.0,93,0.00,,---,0.60,VWS V14.01,2013-08-07 03:29:00,
2013-08-06 23:30:00,70.2,68.1,29.78,North,1,0.0,0.0,93,0.00,,---,0.60,VWS V14.01,2013-08-07 03:30:00,
2013-08-06 23:31:00,70.1,68.0,29.78,North,1,0.0,0.0,93,0.00,,---,0.60,VWS V14.01,2013-08-07 03:31:00,
2013-08-06 23:32:00,70.1,68.0,29.78,North,1,0.0,0.0,93,0.00,,---,0.60,VWS V14.01,2013-08-07 03:32:00,
2013-08-06 23:33:00,70.1,68.0,29.78,North,1,0.0,0.0,93,0.00,,---,0.60,VWS V14.01,2013-08-07 03:33:00,
2013-08-06 23:34:00,70.1,68.0,29.78,North,1,0.0,0.0,93,0.00,,---,0.60,VWS V14.01,2013-08-07 03:34:00,
2013-08-06 23:35:00,70.1,68.0,29.78,North,1,0.0,0.0,93,0.00,,---,0.60,VWS V14.01,2013-08-07 03:35:00,
2013-08-06 23:36:00,70.1,68.0,29.78,North,1,0.0,0.0,93,0.00,,---,0.60,VWS V14.01,2013-08-07 03:36:00,
2013-08-06 23:37:00,70.0,67.9,29.78,North,1,0.0,0.0,93,0.00,,---,0.60,VWS V14.01,2013-08-07 03:37:00,
2013-08-06 23:38:00,70.0,67.9,29.78,North,1,0.0,0.0,93,0.00,,---,0.60,VWS V14.01,2013-08-07 03:38:00,
2013-08-06 23:39:00,70.0,67.9,29.78,North,1,0.0,0.0,93,0.00,,---,0.60,VWS V14.01,2013-08-07 03:39:00,
2013-08-06 23:40:00,69.9,67.8,29.78,North,1,0.0,0.0,93,0.00,,---,0.60,VWS V14.01,2013-08-07 03:40:00,
2013-08-06 23:41:00,69.9,67.8,29.78,North,1,0.0,0.0,93,0.00,,---,0.60,VWS V14.01,2013-08-07 03:41:00,
2013-08-06 23:42:00,69.9,67.8,29.78,North,1,0.0,0.0,93,0.00,,---,0.60,VWS V14.01,2013-08-07 03:42:00,
2013-08-06 23:43:00,69.9,67.8,29.78,North,1,0.0,0.0,93,0.00,,---,0.60,VWS V14.01,2013-08-07 03:43:00,
2013-08-06 23:44:00,69.9,67.8,29.78,North,1,0.0,0.0,93,0.00,,---,0.60,VWS V14.01,2013-08-07 03:44:00,
2013-08-06 23:45:00,69.9,67.8,29.78,North,1,0.0,0.0,93,0.00,,---,0.60,VWS V14.01,2013-08-07 03:45:00,
2013-08-06 23:46:00,69.9,67.8,29.78,North,1,0.0,0.0,93,0.00,,---,0.60,VWS V14.01,2013-08-07 03:46:00,
2013-08-06 23:47:00,69.9,67.8,29.78,North,1,0.0,0.0,93,0.00,,---,0.60,VWS V14.01,2013-08-07 03:47:00,
2013-08-06 23:48:00,69.9,67.8,29.78,North,1,0.0,0.0,93,0.00,,---,0.60,VWS V14.01,2013-08-07 03:48:00,
2013-08-06 23:49:00,69.8,67.7,29.78,North,1,0.0,0.0,93,0.00,,---,0.60,VWS V14.01,2013-08-07 03:49:00,
2013-08-06 23:50:00,69.8,67.7,29.78,North,1,0.0,0.0,93,0.00,,---,0.60,VWS V14.01,2013-08-07 03:50:00,
2013-08-06 23:51:00,69.8,67.7,29.78,North,1,0.0,0.0,93,0.00,,---,0.60,VWS V14.01,2013-08-07 03:51:00,
2013-08-06 23:52:00,69.7,67.6,29.78,North,1,0.0,0.0,93,0.00,,---,0.60,VWS V14.01,2013-08-07 03:52:00,
2013-08-06 23:53:00,69.7,67.6,29.78,North,1,0.0,0.0,93,0.00,,---,0.60,VWS V14.01,2013-08-07 03:53:00,
2013-08-06 23:54:00,69.7,67.6,29.78,North,1,0.0,0.0,93,0.00,,---,0.60,VWS V14.01,2013-08-07 03:54:00,
2013-08-06 23:55:00,69.7,67.6,29.78,North,1,0.0,0.0,93,0.00,,---,0.60,VWS V14.01,2013-08-07 03:55:00,
2013-08-06 23:56:00,69.7,67.6,29.78,North,1,0.0,0.0,93,0.00,,---,0.60,VWS V14.01,2013-08-07 03:56:00,
2013-08-06 23:57:00,69.7,67.6,29.78,North,1,0.0,0.0,93,0.00,,---,0.60,VWS V14.01,2013-08-07 03:57:00,
2013-08-06 23:58:00,69.7,67.6,29.78,North,1,0.0,0.0,93,0.00,,---,0.60,VWS V14.01,2013-08-07 03:58:00,
2013-08-06 23:59:00,69.7,67.6,29.78,North,1,0.0,0.0,93,0.00,,---,0.60,VWS V14.01,2013-08-07 03:59:00,